<?xml version="1.0" encoding="UTF-8" standalone="no" ?>
<gpx xmlns="http://www.topografix.com/GPX/1/1" xmlns:xsi="http://www.w3.org/2001/XMLSchema-instance" xsi:schemaLocation="http://www.topografix.com/GPX/1/1 http://www.topografix.com/GPX/1/1/gpx.xsd" version="1.1" creator="VisuGPX - https://www.visugpx.com">
  <metadata>
    <name>Rando VTT Frelinghien 30 10 2011</name>
    <desc><![CDATA[Parcours 38 km (40 en réel)]]></desc>
  </metadata>
  <trk>
    <name><![CDATA[Untitled]]></name>
    <trkseg>
      <trkpt lat="50.7126" lon="2.93193">
        <ele>18</ele>
        <time>2011-10-30T07:55:09.000Z</time>
      </trkpt>
      <trkpt lat="50.71257" lon="2.93218">
        <ele>18.39999961853</ele>
        <time>2011-10-30T07:55:16.000Z</time>
      </trkpt>
      <trkpt lat="50.71249" lon="2.93232">
        <ele>18.60000038147</ele>
        <time>2011-10-30T07:55:21.000Z</time>
      </trkpt>
      <trkpt lat="50.71232" lon="2.93232">
        <ele>18.200000762939</ele>
        <time>2011-10-30T07:55:26.000Z</time>
      </trkpt>
      <trkpt lat="50.71211" lon="2.93235">
        <ele>17.799999237061</ele>
        <time>2011-10-30T07:55:32.000Z</time>
      </trkpt>
      <trkpt lat="50.71193" lon="2.93239">
        <ele>17.39999961853</ele>
        <time>2011-10-30T07:55:37.000Z</time>
      </trkpt>
      <trkpt lat="50.71174" lon="2.93245">
        <ele>17</ele>
        <time>2011-10-30T07:55:42.000Z</time>
      </trkpt>
      <trkpt lat="50.71156" lon="2.93252">
        <ele>17</ele>
        <time>2011-10-30T07:55:47.000Z</time>
      </trkpt>
      <trkpt lat="50.71136" lon="2.93259">
        <ele>17</ele>
        <time>2011-10-30T07:55:52.000Z</time>
      </trkpt>
      <trkpt lat="50.71117" lon="2.93265">
        <ele>17</ele>
        <time>2011-10-30T07:55:57.000Z</time>
      </trkpt>
      <trkpt lat="50.71098" lon="2.93259">
        <ele>17</ele>
        <time>2011-10-30T07:56:02.000Z</time>
      </trkpt>
      <trkpt lat="50.71095" lon="2.93257">
        <ele>17</ele>
        <time>2011-10-30T07:56:03.000Z</time>
      </trkpt>
      <trkpt lat="50.71088" lon="2.93274">
        <ele>17</ele>
        <time>2011-10-30T07:56:07.000Z</time>
      </trkpt>
      <trkpt lat="50.71089" lon="2.93279">
        <ele>17</ele>
        <time>2011-10-30T07:56:08.000Z</time>
      </trkpt>
      <trkpt lat="50.71089" lon="2.93306">
        <ele>17</ele>
        <time>2011-10-30T07:56:12.000Z</time>
      </trkpt>
      <trkpt lat="50.71082" lon="2.93335">
        <ele>17</ele>
        <time>2011-10-30T07:56:17.000Z</time>
      </trkpt>
      <trkpt lat="50.71074" lon="2.93363">
        <ele>17.39999961853</ele>
        <time>2011-10-30T07:56:22.000Z</time>
      </trkpt>
      <trkpt lat="50.71065" lon="2.93393">
        <ele>17.60000038147</ele>
        <time>2011-10-30T07:56:27.000Z</time>
      </trkpt>
      <trkpt lat="50.71056" lon="2.93421">
        <ele>18</ele>
        <time>2011-10-30T07:56:32.000Z</time>
      </trkpt>
      <trkpt lat="50.71047" lon="2.9345">
        <ele>18</ele>
        <time>2011-10-30T07:56:37.000Z</time>
      </trkpt>
      <trkpt lat="50.71037" lon="2.93481">
        <ele>18</ele>
        <time>2011-10-30T07:56:42.000Z</time>
      </trkpt>
      <trkpt lat="50.71027" lon="2.93513">
        <ele>18</ele>
        <time>2011-10-30T07:56:46.000Z</time>
      </trkpt>
      <trkpt lat="50.71018" lon="2.9354">
        <ele>18</ele>
        <time>2011-10-30T07:56:51.000Z</time>
      </trkpt>
      <trkpt lat="50.71012" lon="2.93564">
        <ele>18</ele>
        <time>2011-10-30T07:56:55.000Z</time>
      </trkpt>
      <trkpt lat="50.70999" lon="2.93577">
        <ele>18</ele>
        <time>2011-10-30T07:56:59.000Z</time>
      </trkpt>
      <trkpt lat="50.70981" lon="2.93578">
        <ele>18</ele>
        <time>2011-10-30T07:57:03.000Z</time>
      </trkpt>
      <trkpt lat="50.70964" lon="2.93592">
        <ele>18</ele>
        <time>2011-10-30T07:57:07.000Z</time>
      </trkpt>
      <trkpt lat="50.70958" lon="2.93603">
        <ele>18</ele>
        <time>2011-10-30T07:57:09.000Z</time>
      </trkpt>
      <trkpt lat="50.7094" lon="2.93635">
        <ele>18</ele>
        <time>2011-10-30T07:57:15.000Z</time>
      </trkpt>
      <trkpt lat="50.70926" lon="2.93661">
        <ele>18</ele>
        <time>2011-10-30T07:57:20.000Z</time>
      </trkpt>
      <trkpt lat="50.7091" lon="2.93686">
        <ele>17.60000038147</ele>
        <time>2011-10-30T07:57:25.000Z</time>
      </trkpt>
      <trkpt lat="50.70892" lon="2.93704">
        <ele>17.200000762939</ele>
        <time>2011-10-30T07:57:30.000Z</time>
      </trkpt>
      <trkpt lat="50.70873" lon="2.93718">
        <ele>16.799999237061</ele>
        <time>2011-10-30T07:57:35.000Z</time>
      </trkpt>
      <trkpt lat="50.70853" lon="2.93732">
        <ele>16.39999961853</ele>
        <time>2011-10-30T07:57:40.000Z</time>
      </trkpt>
      <trkpt lat="50.70833" lon="2.93745">
        <ele>16</ele>
        <time>2011-10-30T07:57:45.000Z</time>
      </trkpt>
      <trkpt lat="50.70823" lon="2.93753">
        <ele>16.200000762939</ele>
        <time>2011-10-30T07:57:48.000Z</time>
      </trkpt>
      <trkpt lat="50.70811" lon="2.93765">
        <ele>16.39999961853</ele>
        <time>2011-10-30T07:57:54.000Z</time>
      </trkpt>
      <trkpt lat="50.70794" lon="2.93777">
        <ele>16.799999237061</ele>
        <time>2011-10-30T07:58:00.000Z</time>
      </trkpt>
      <trkpt lat="50.70784" lon="2.93783">
        <ele>17</ele>
        <time>2011-10-30T07:58:03.000Z</time>
      </trkpt>
      <trkpt lat="50.70762" lon="2.93795">
        <ele>17.60000038147</ele>
        <time>2011-10-30T07:58:09.000Z</time>
      </trkpt>
      <trkpt lat="50.70745" lon="2.93806">
        <ele>17.799999237061</ele>
        <time>2011-10-30T07:58:14.000Z</time>
      </trkpt>
      <trkpt lat="50.70728" lon="2.93817">
        <ele>17.799999237061</ele>
        <time>2011-10-30T07:58:19.000Z</time>
      </trkpt>
      <trkpt lat="50.70709" lon="2.93828">
        <ele>17.799999237061</ele>
        <time>2011-10-30T07:58:25.000Z</time>
      </trkpt>
      <trkpt lat="50.7069" lon="2.93838">
        <ele>17.799999237061</ele>
        <time>2011-10-30T07:58:30.000Z</time>
      </trkpt>
      <trkpt lat="50.7067" lon="2.93849">
        <ele>17.799999237061</ele>
        <time>2011-10-30T07:58:36.000Z</time>
      </trkpt>
      <trkpt lat="50.70653" lon="2.93858">
        <ele>17.39999961853</ele>
        <time>2011-10-30T07:58:41.000Z</time>
      </trkpt>
      <trkpt lat="50.70632" lon="2.93869">
        <ele>16.799999237061</ele>
        <time>2011-10-30T07:58:47.000Z</time>
      </trkpt>
      <trkpt lat="50.70615" lon="2.93879">
        <ele>16.39999961853</ele>
        <time>2011-10-30T07:58:52.000Z</time>
      </trkpt>
      <trkpt lat="50.70596" lon="2.9389">
        <ele>16</ele>
        <time>2011-10-30T07:58:58.000Z</time>
      </trkpt>
      <trkpt lat="50.7058" lon="2.93903">
        <ele>16</ele>
        <time>2011-10-30T07:59:03.000Z</time>
      </trkpt>
      <trkpt lat="50.70577" lon="2.93907">
        <ele>16</ele>
        <time>2011-10-30T07:59:04.000Z</time>
      </trkpt>
      <trkpt lat="50.70567" lon="2.93926">
        <ele>16</ele>
        <time>2011-10-30T07:59:08.000Z</time>
      </trkpt>
      <trkpt lat="50.70554" lon="2.93948">
        <ele>16.200000762939</ele>
        <time>2011-10-30T07:59:13.000Z</time>
      </trkpt>
      <trkpt lat="50.70543" lon="2.93971">
        <ele>16</ele>
        <time>2011-10-30T07:59:18.000Z</time>
      </trkpt>
      <trkpt lat="50.70532" lon="2.93995">
        <ele>16</ele>
        <time>2011-10-30T07:59:23.000Z</time>
      </trkpt>
      <trkpt lat="50.7052" lon="2.94022">
        <ele>16</ele>
        <time>2011-10-30T07:59:28.000Z</time>
      </trkpt>
      <trkpt lat="50.7051" lon="2.9405">
        <ele>16</ele>
        <time>2011-10-30T07:59:33.000Z</time>
      </trkpt>
      <trkpt lat="50.705" lon="2.94077">
        <ele>16</ele>
        <time>2011-10-30T07:59:38.000Z</time>
      </trkpt>
      <trkpt lat="50.70492" lon="2.94105">
        <ele>16.200000762939</ele>
        <time>2011-10-30T07:59:43.000Z</time>
      </trkpt>
      <trkpt lat="50.70483" lon="2.9413">
        <ele>16.39999961853</ele>
        <time>2011-10-30T07:59:48.000Z</time>
      </trkpt>
      <trkpt lat="50.70473" lon="2.94155">
        <ele>16.39999961853</ele>
        <time>2011-10-30T07:59:53.000Z</time>
      </trkpt>
      <trkpt lat="50.70463" lon="2.94182">
        <ele>16.60000038147</ele>
        <time>2011-10-30T07:59:58.000Z</time>
      </trkpt>
      <trkpt lat="50.70454" lon="2.94208">
        <ele>16.60000038147</ele>
        <time>2011-10-30T08:00:04.000Z</time>
      </trkpt>
      <trkpt lat="50.70443" lon="2.94237">
        <ele>16.799999237061</ele>
        <time>2011-10-30T08:00:10.000Z</time>
      </trkpt>
      <trkpt lat="50.70433" lon="2.94265">
        <ele>17</ele>
        <time>2011-10-30T08:00:16.000Z</time>
      </trkpt>
      <trkpt lat="50.70421" lon="2.94292">
        <ele>17</ele>
        <time>2011-10-30T08:00:21.000Z</time>
      </trkpt>
      <trkpt lat="50.70408" lon="2.94313">
        <ele>17</ele>
        <time>2011-10-30T08:00:27.000Z</time>
      </trkpt>
      <trkpt lat="50.70397" lon="2.94337">
        <ele>16.799999237061</ele>
        <time>2011-10-30T08:00:32.000Z</time>
      </trkpt>
      <trkpt lat="50.70386" lon="2.94361">
        <ele>16.39999961853</ele>
        <time>2011-10-30T08:00:37.000Z</time>
      </trkpt>
      <trkpt lat="50.70374" lon="2.94384">
        <ele>16.39999961853</ele>
        <time>2011-10-30T08:00:42.000Z</time>
      </trkpt>
      <trkpt lat="50.70362" lon="2.94408">
        <ele>16.200000762939</ele>
        <time>2011-10-30T08:00:47.000Z</time>
      </trkpt>
      <trkpt lat="50.7035" lon="2.9443">
        <ele>16.39999961853</ele>
        <time>2011-10-30T08:00:51.000Z</time>
      </trkpt>
      <trkpt lat="50.70347" lon="2.94438">
        <ele>16.39999961853</ele>
        <time>2011-10-30T08:00:53.000Z</time>
      </trkpt>
      <trkpt lat="50.70336" lon="2.94458">
        <ele>16.39999961853</ele>
        <time>2011-10-30T08:00:57.000Z</time>
      </trkpt>
      <trkpt lat="50.70322" lon="2.94484">
        <ele>16.39999961853</ele>
        <time>2011-10-30T08:01:03.000Z</time>
      </trkpt>
      <trkpt lat="50.70307" lon="2.94509">
        <ele>16.39999961853</ele>
        <time>2011-10-30T08:01:09.000Z</time>
      </trkpt>
      <trkpt lat="50.70294" lon="2.94536">
        <ele>16.60000038147</ele>
        <time>2011-10-30T08:01:15.000Z</time>
      </trkpt>
      <trkpt lat="50.70283" lon="2.94559">
        <ele>16.60000038147</ele>
        <time>2011-10-30T08:01:20.000Z</time>
      </trkpt>
      <trkpt lat="50.70271" lon="2.94582">
        <ele>16.60000038147</ele>
        <time>2011-10-30T08:01:25.000Z</time>
      </trkpt>
      <trkpt lat="50.70258" lon="2.94605">
        <ele>17</ele>
        <time>2011-10-30T08:01:30.000Z</time>
      </trkpt>
      <trkpt lat="50.70244" lon="2.94631">
        <ele>17.60000038147</ele>
        <time>2011-10-30T08:01:36.000Z</time>
      </trkpt>
      <trkpt lat="50.70232" lon="2.94653">
        <ele>17.799999237061</ele>
        <time>2011-10-30T08:01:41.000Z</time>
      </trkpt>
      <trkpt lat="50.70219" lon="2.94678">
        <ele>18</ele>
        <time>2011-10-30T08:01:46.000Z</time>
      </trkpt>
      <trkpt lat="50.70205" lon="2.94704">
        <ele>18.39999961853</ele>
        <time>2011-10-30T08:01:53.000Z</time>
      </trkpt>
      <trkpt lat="50.70198" lon="2.94717">
        <ele>18.60000038147</ele>
        <time>2011-10-30T08:01:56.000Z</time>
      </trkpt>
      <trkpt lat="50.70185" lon="2.94744">
        <ele>18.799999237061</ele>
        <time>2011-10-30T08:02:02.000Z</time>
      </trkpt>
      <trkpt lat="50.70172" lon="2.94769">
        <ele>18.799999237061</ele>
        <time>2011-10-30T08:02:08.000Z</time>
      </trkpt>
      <trkpt lat="50.7016" lon="2.94776">
        <ele>19</ele>
        <time>2011-10-30T08:02:12.000Z</time>
      </trkpt>
      <trkpt lat="50.70148" lon="2.94767">
        <ele>19</ele>
        <time>2011-10-30T08:02:16.000Z</time>
      </trkpt>
      <trkpt lat="50.70131" lon="2.94756">
        <ele>19</ele>
        <time>2011-10-30T08:02:21.000Z</time>
      </trkpt>
      <trkpt lat="50.70114" lon="2.94743">
        <ele>18.799999237061</ele>
        <time>2011-10-30T08:02:26.000Z</time>
      </trkpt>
      <trkpt lat="50.70097" lon="2.94732">
        <ele>18.799999237061</ele>
        <time>2011-10-30T08:02:31.000Z</time>
      </trkpt>
      <trkpt lat="50.70079" lon="2.94719">
        <ele>19</ele>
        <time>2011-10-30T08:02:36.000Z</time>
      </trkpt>
      <trkpt lat="50.7006" lon="2.94705">
        <ele>19.39999961853</ele>
        <time>2011-10-30T08:02:42.000Z</time>
      </trkpt>
      <trkpt lat="50.70043" lon="2.94693">
        <ele>19.799999237061</ele>
        <time>2011-10-30T08:02:47.000Z</time>
      </trkpt>
      <trkpt lat="50.70025" lon="2.94681">
        <ele>20.200000762939</ele>
        <time>2011-10-30T08:02:52.000Z</time>
      </trkpt>
      <trkpt lat="50.70009" lon="2.94669">
        <ele>20.60000038147</ele>
        <time>2011-10-30T08:02:57.000Z</time>
      </trkpt>
      <trkpt lat="50.69989" lon="2.94656">
        <ele>20.200000762939</ele>
        <time>2011-10-30T08:03:03.000Z</time>
      </trkpt>
      <trkpt lat="50.69976" lon="2.94646">
        <ele>19.39999961853</ele>
        <time>2011-10-30T08:03:07.000Z</time>
      </trkpt>
      <trkpt lat="50.69973" lon="2.94644">
        <ele>19.200000762939</ele>
        <time>2011-10-30T08:03:08.000Z</time>
      </trkpt>
      <trkpt lat="50.69956" lon="2.94632">
        <ele>18.39999961853</ele>
        <time>2011-10-30T08:03:13.000Z</time>
      </trkpt>
      <trkpt lat="50.69938" lon="2.94621">
        <ele>17.60000038147</ele>
        <time>2011-10-30T08:03:18.000Z</time>
      </trkpt>
      <trkpt lat="50.6992" lon="2.94608">
        <ele>17</ele>
        <time>2011-10-30T08:03:23.000Z</time>
      </trkpt>
      <trkpt lat="50.69901" lon="2.94595">
        <ele>16.799999237061</ele>
        <time>2011-10-30T08:03:27.000Z</time>
      </trkpt>
      <trkpt lat="50.69883" lon="2.94583">
        <ele>16.39999961853</ele>
        <time>2011-10-30T08:03:33.000Z</time>
      </trkpt>
      <trkpt lat="50.69866" lon="2.94571">
        <ele>16.200000762939</ele>
        <time>2011-10-30T08:03:38.000Z</time>
      </trkpt>
      <trkpt lat="50.69854" lon="2.94564">
        <ele>16</ele>
        <time>2011-10-30T08:03:41.000Z</time>
      </trkpt>
      <trkpt lat="50.69841" lon="2.94583">
        <ele>16</ele>
        <time>2011-10-30T08:03:47.000Z</time>
      </trkpt>
      <trkpt lat="50.69829" lon="2.94608">
        <ele>16.200000762939</ele>
        <time>2011-10-30T08:03:53.000Z</time>
      </trkpt>
      <trkpt lat="50.69818" lon="2.94632">
        <ele>16.60000038147</ele>
        <time>2011-10-30T08:03:58.000Z</time>
      </trkpt>
      <trkpt lat="50.69806" lon="2.94656">
        <ele>17.200000762939</ele>
        <time>2011-10-30T08:04:03.000Z</time>
      </trkpt>
      <trkpt lat="50.69795" lon="2.94681">
        <ele>17.39999961853</ele>
        <time>2011-10-30T08:04:08.000Z</time>
      </trkpt>
      <trkpt lat="50.69784" lon="2.94705">
        <ele>17.39999961853</ele>
        <time>2011-10-30T08:04:13.000Z</time>
      </trkpt>
      <trkpt lat="50.69773" lon="2.94729">
        <ele>17.200000762939</ele>
        <time>2011-10-30T08:04:18.000Z</time>
      </trkpt>
      <trkpt lat="50.69763" lon="2.94753">
        <ele>17</ele>
        <time>2011-10-30T08:04:23.000Z</time>
      </trkpt>
      <trkpt lat="50.69752" lon="2.94778">
        <ele>17</ele>
        <time>2011-10-30T08:04:28.000Z</time>
      </trkpt>
      <trkpt lat="50.69741" lon="2.94803">
        <ele>17</ele>
        <time>2011-10-30T08:04:33.000Z</time>
      </trkpt>
      <trkpt lat="50.69729" lon="2.94828">
        <ele>17</ele>
        <time>2011-10-30T08:04:38.000Z</time>
      </trkpt>
      <trkpt lat="50.69718" lon="2.94852">
        <ele>17</ele>
        <time>2011-10-30T08:04:43.000Z</time>
      </trkpt>
      <trkpt lat="50.69707" lon="2.94877">
        <ele>17</ele>
        <time>2011-10-30T08:04:48.000Z</time>
      </trkpt>
      <trkpt lat="50.69696" lon="2.94902">
        <ele>17</ele>
        <time>2011-10-30T08:04:53.000Z</time>
      </trkpt>
      <trkpt lat="50.69687" lon="2.94931">
        <ele>16.799999237061</ele>
        <time>2011-10-30T08:04:59.000Z</time>
      </trkpt>
      <trkpt lat="50.69676" lon="2.94959">
        <ele>16.60000038147</ele>
        <time>2011-10-30T08:05:05.000Z</time>
      </trkpt>
      <trkpt lat="50.69664" lon="2.94986">
        <ele>16</ele>
        <time>2011-10-30T08:05:11.000Z</time>
      </trkpt>
      <trkpt lat="50.69651" lon="2.95013">
        <ele>16</ele>
        <time>2011-10-30T08:05:16.000Z</time>
      </trkpt>
      <trkpt lat="50.6964" lon="2.95037">
        <ele>16.200000762939</ele>
        <time>2011-10-30T08:05:22.000Z</time>
      </trkpt>
      <trkpt lat="50.69629" lon="2.95059">
        <ele>16.39999961853</ele>
        <time>2011-10-30T08:05:27.000Z</time>
      </trkpt>
      <trkpt lat="50.69617" lon="2.95082">
        <ele>16.39999961853</ele>
        <time>2011-10-30T08:05:32.000Z</time>
      </trkpt>
      <trkpt lat="50.69604" lon="2.95107">
        <ele>16.799999237061</ele>
        <time>2011-10-30T08:05:38.000Z</time>
      </trkpt>
      <trkpt lat="50.69592" lon="2.95133">
        <ele>17.39999961853</ele>
        <time>2011-10-30T08:05:44.000Z</time>
      </trkpt>
      <trkpt lat="50.69578" lon="2.95159">
        <ele>18</ele>
        <time>2011-10-30T08:05:50.000Z</time>
      </trkpt>
      <trkpt lat="50.69567" lon="2.95181">
        <ele>18.200000762939</ele>
        <time>2011-10-30T08:05:55.000Z</time>
      </trkpt>
      <trkpt lat="50.69554" lon="2.95208">
        <ele>18.60000038147</ele>
        <time>2011-10-30T08:06:01.000Z</time>
      </trkpt>
      <trkpt lat="50.69543" lon="2.95231">
        <ele>18.799999237061</ele>
        <time>2011-10-30T08:06:06.000Z</time>
      </trkpt>
      <trkpt lat="50.69532" lon="2.95253">
        <ele>19.200000762939</ele>
        <time>2011-10-30T08:06:11.000Z</time>
      </trkpt>
      <trkpt lat="50.6952" lon="2.95276">
        <ele>19.200000762939</ele>
        <time>2011-10-30T08:06:16.000Z</time>
      </trkpt>
      <trkpt lat="50.69501" lon="2.9531">
        <ele>19.200000762939</ele>
        <time>2011-10-30T08:06:24.000Z</time>
      </trkpt>
      <trkpt lat="50.69487" lon="2.95335">
        <ele>18.799999237061</ele>
        <time>2011-10-30T08:06:30.000Z</time>
      </trkpt>
      <trkpt lat="50.69473" lon="2.95358">
        <ele>18.39999961853</ele>
        <time>2011-10-30T08:06:36.000Z</time>
      </trkpt>
      <trkpt lat="50.6946" lon="2.95384">
        <ele>18.200000762939</ele>
        <time>2011-10-30T08:06:42.000Z</time>
      </trkpt>
      <trkpt lat="50.69449" lon="2.95407">
        <ele>18</ele>
        <time>2011-10-30T08:06:47.000Z</time>
      </trkpt>
      <trkpt lat="50.69437" lon="2.9543">
        <ele>17.799999237061</ele>
        <time>2011-10-30T08:06:52.000Z</time>
      </trkpt>
      <trkpt lat="50.69425" lon="2.95452">
        <ele>17.39999961853</ele>
        <time>2011-10-30T08:06:57.000Z</time>
      </trkpt>
      <trkpt lat="50.69412" lon="2.95478">
        <ele>17.200000762939</ele>
        <time>2011-10-30T08:07:03.000Z</time>
      </trkpt>
      <trkpt lat="50.69401" lon="2.955">
        <ele>17.200000762939</ele>
        <time>2011-10-30T08:07:08.000Z</time>
      </trkpt>
      <trkpt lat="50.6939" lon="2.95521">
        <ele>17.39999961853</ele>
        <time>2011-10-30T08:07:13.000Z</time>
      </trkpt>
      <trkpt lat="50.69388" lon="2.95525">
        <ele>17.39999961853</ele>
        <time>2011-10-30T08:07:14.000Z</time>
      </trkpt>
      <trkpt lat="50.69376" lon="2.95547">
        <ele>17.60000038147</ele>
        <time>2011-10-30T08:07:19.000Z</time>
      </trkpt>
      <trkpt lat="50.69364" lon="2.9557">
        <ele>17.60000038147</ele>
        <time>2011-10-30T08:07:24.000Z</time>
      </trkpt>
      <trkpt lat="50.69352" lon="2.95592">
        <ele>17.60000038147</ele>
        <time>2011-10-30T08:07:29.000Z</time>
      </trkpt>
      <trkpt lat="50.69339" lon="2.95618">
        <ele>17.799999237061</ele>
        <time>2011-10-30T08:07:35.000Z</time>
      </trkpt>
      <trkpt lat="50.69328" lon="2.95642">
        <ele>18</ele>
        <time>2011-10-30T08:07:40.000Z</time>
      </trkpt>
      <trkpt lat="50.69316" lon="2.95666">
        <ele>18</ele>
        <time>2011-10-30T08:07:45.000Z</time>
      </trkpt>
      <trkpt lat="50.69302" lon="2.95692">
        <ele>18</ele>
        <time>2011-10-30T08:07:50.000Z</time>
      </trkpt>
      <trkpt lat="50.69289" lon="2.95718">
        <ele>18.200000762939</ele>
        <time>2011-10-30T08:07:55.000Z</time>
      </trkpt>
      <trkpt lat="50.69274" lon="2.95743">
        <ele>18.60000038147</ele>
        <time>2011-10-30T08:08:00.000Z</time>
      </trkpt>
      <trkpt lat="50.69259" lon="2.95765">
        <ele>18.799999237061</ele>
        <time>2011-10-30T08:08:05.000Z</time>
      </trkpt>
      <trkpt lat="50.69247" lon="2.95786">
        <ele>18.799999237061</ele>
        <time>2011-10-30T08:08:09.000Z</time>
      </trkpt>
      <trkpt lat="50.69236" lon="2.95816">
        <ele>18.799999237061</ele>
        <time>2011-10-30T08:08:14.000Z</time>
      </trkpt>
      <trkpt lat="50.69227" lon="2.95846">
        <ele>18.799999237061</ele>
        <time>2011-10-30T08:08:19.000Z</time>
      </trkpt>
      <trkpt lat="50.69219" lon="2.95879">
        <ele>18.60000038147</ele>
        <time>2011-10-30T08:08:24.000Z</time>
      </trkpt>
      <trkpt lat="50.69212" lon="2.95913">
        <ele>18.39999961853</ele>
        <time>2011-10-30T08:08:29.000Z</time>
      </trkpt>
      <trkpt lat="50.69204" lon="2.95946">
        <ele>18</ele>
        <time>2011-10-30T08:08:34.000Z</time>
      </trkpt>
      <trkpt lat="50.69196" lon="2.95979">
        <ele>17.799999237061</ele>
        <time>2011-10-30T08:08:39.000Z</time>
      </trkpt>
      <trkpt lat="50.69187" lon="2.96009">
        <ele>17.60000038147</ele>
        <time>2011-10-30T08:08:44.000Z</time>
      </trkpt>
      <trkpt lat="50.69185" lon="2.96015">
        <ele>17.799999237061</ele>
        <time>2011-10-30T08:08:45.000Z</time>
      </trkpt>
      <trkpt lat="50.69176" lon="2.96039">
        <ele>17.799999237061</ele>
        <time>2011-10-30T08:08:49.000Z</time>
      </trkpt>
      <trkpt lat="50.69171" lon="2.96051">
        <ele>17.799999237061</ele>
        <time>2011-10-30T08:08:51.000Z</time>
      </trkpt>
      <trkpt lat="50.6916" lon="2.96083">
        <ele>18</ele>
        <time>2011-10-30T08:08:56.000Z</time>
      </trkpt>
      <trkpt lat="50.69149" lon="2.96113">
        <ele>18</ele>
        <time>2011-10-30T08:09:01.000Z</time>
      </trkpt>
      <trkpt lat="50.69144" lon="2.9613">
        <ele>18</ele>
        <time>2011-10-30T08:09:04.000Z</time>
      </trkpt>
      <trkpt lat="50.69147" lon="2.96153">
        <ele>18</ele>
        <time>2011-10-30T08:09:08.000Z</time>
      </trkpt>
      <trkpt lat="50.69155" lon="2.96158">
        <ele>18</ele>
        <time>2011-10-30T08:09:10.000Z</time>
      </trkpt>
      <trkpt lat="50.69178" lon="2.96178">
        <ele>17.799999237061</ele>
        <time>2011-10-30T08:09:16.000Z</time>
      </trkpt>
      <trkpt lat="50.69197" lon="2.96195">
        <ele>17.799999237061</ele>
        <time>2011-10-30T08:09:21.000Z</time>
      </trkpt>
      <trkpt lat="50.69205" lon="2.962">
        <ele>17.799999237061</ele>
        <time>2011-10-30T08:09:23.000Z</time>
      </trkpt>
      <trkpt lat="50.69218" lon="2.96206">
        <ele>17.60000038147</ele>
        <time>2011-10-30T08:09:26.000Z</time>
      </trkpt>
      <trkpt lat="50.69236" lon="2.96198">
        <ele>17.60000038147</ele>
        <time>2011-10-30T08:09:30.000Z</time>
      </trkpt>
      <trkpt lat="50.6925" lon="2.96186">
        <ele>17.60000038147</ele>
        <time>2011-10-30T08:09:34.000Z</time>
      </trkpt>
      <trkpt lat="50.69272" lon="2.96182">
        <ele>17.799999237061</ele>
        <time>2011-10-30T08:09:39.000Z</time>
      </trkpt>
      <trkpt lat="50.69287" lon="2.96194">
        <ele>17.799999237061</ele>
        <time>2011-10-30T08:09:43.000Z</time>
      </trkpt>
      <trkpt lat="50.69308" lon="2.96218">
        <ele>17.799999237061</ele>
        <time>2011-10-30T08:09:49.000Z</time>
      </trkpt>
      <trkpt lat="50.69315" lon="2.96225">
        <ele>17.799999237061</ele>
        <time>2011-10-30T08:09:51.000Z</time>
      </trkpt>
      <trkpt lat="50.6934" lon="2.9623">
        <ele>18</ele>
        <time>2011-10-30T08:09:57.000Z</time>
      </trkpt>
      <trkpt lat="50.69344" lon="2.96228">
        <ele>18</ele>
        <time>2011-10-30T08:09:58.000Z</time>
      </trkpt>
      <trkpt lat="50.69369" lon="2.9621">
        <ele>18.39999961853</ele>
        <time>2011-10-30T08:10:04.000Z</time>
      </trkpt>
      <trkpt lat="50.69389" lon="2.96194">
        <ele>18.60000038147</ele>
        <time>2011-10-30T08:10:09.000Z</time>
      </trkpt>
      <trkpt lat="50.69405" lon="2.96182">
        <ele>18.799999237061</ele>
        <time>2011-10-30T08:10:13.000Z</time>
      </trkpt>
      <trkpt lat="50.69422" lon="2.96169">
        <ele>18.799999237061</ele>
        <time>2011-10-30T08:10:17.000Z</time>
      </trkpt>
      <trkpt lat="50.69437" lon="2.96156">
        <ele>18.799999237061</ele>
        <time>2011-10-30T08:10:21.000Z</time>
      </trkpt>
      <trkpt lat="50.69456" lon="2.96139">
        <ele>18.60000038147</ele>
        <time>2011-10-30T08:10:26.000Z</time>
      </trkpt>
      <trkpt lat="50.69473" lon="2.96123">
        <ele>18.39999961853</ele>
        <time>2011-10-30T08:10:30.000Z</time>
      </trkpt>
      <trkpt lat="50.6949" lon="2.96106">
        <ele>18.200000762939</ele>
        <time>2011-10-30T08:10:35.000Z</time>
      </trkpt>
      <trkpt lat="50.69508" lon="2.96086">
        <ele>17.799999237061</ele>
        <time>2011-10-30T08:10:40.000Z</time>
      </trkpt>
      <trkpt lat="50.69518" lon="2.96075">
        <ele>17.799999237061</ele>
        <time>2011-10-30T08:10:43.000Z</time>
      </trkpt>
      <trkpt lat="50.69522" lon="2.96073">
        <ele>17.799999237061</ele>
        <time>2011-10-30T08:10:44.000Z</time>
      </trkpt>
      <trkpt lat="50.69533" lon="2.96078">
        <ele>17.60000038147</ele>
        <time>2011-10-30T08:10:47.000Z</time>
      </trkpt>
      <trkpt lat="50.69535" lon="2.96083">
        <ele>17.39999961853</ele>
        <time>2011-10-30T08:10:48.000Z</time>
      </trkpt>
      <trkpt lat="50.69552" lon="2.96102">
        <ele>17.39999961853</ele>
        <time>2011-10-30T08:10:54.000Z</time>
      </trkpt>
      <trkpt lat="50.69571" lon="2.96118">
        <ele>17.200000762939</ele>
        <time>2011-10-30T08:11:00.000Z</time>
      </trkpt>
      <trkpt lat="50.6959" lon="2.96133">
        <ele>17</ele>
        <time>2011-10-30T08:11:06.000Z</time>
      </trkpt>
      <trkpt lat="50.69609" lon="2.96149">
        <ele>17.200000762939</ele>
        <time>2011-10-30T08:11:12.000Z</time>
      </trkpt>
      <trkpt lat="50.69625" lon="2.96162">
        <ele>17.39999961853</ele>
        <time>2011-10-30T08:11:17.000Z</time>
      </trkpt>
      <trkpt lat="50.69643" lon="2.96177">
        <ele>17.60000038147</ele>
        <time>2011-10-30T08:11:22.000Z</time>
      </trkpt>
      <trkpt lat="50.69661" lon="2.96191">
        <ele>17.799999237061</ele>
        <time>2011-10-30T08:11:27.000Z</time>
      </trkpt>
      <trkpt lat="50.69679" lon="2.96206">
        <ele>17.799999237061</ele>
        <time>2011-10-30T08:11:32.000Z</time>
      </trkpt>
      <trkpt lat="50.69697" lon="2.9622">
        <ele>17.60000038147</ele>
        <time>2011-10-30T08:11:37.000Z</time>
      </trkpt>
      <trkpt lat="50.69716" lon="2.96236">
        <ele>17.39999961853</ele>
        <time>2011-10-30T08:11:42.000Z</time>
      </trkpt>
      <trkpt lat="50.69733" lon="2.9625">
        <ele>17.200000762939</ele>
        <time>2011-10-30T08:11:47.000Z</time>
      </trkpt>
      <trkpt lat="50.69751" lon="2.96263">
        <ele>17</ele>
        <time>2011-10-30T08:11:52.000Z</time>
      </trkpt>
      <trkpt lat="50.69769" lon="2.96278">
        <ele>17</ele>
        <time>2011-10-30T08:11:57.000Z</time>
      </trkpt>
      <trkpt lat="50.69787" lon="2.96292">
        <ele>17</ele>
        <time>2011-10-30T08:12:02.000Z</time>
      </trkpt>
      <trkpt lat="50.69805" lon="2.96307">
        <ele>17</ele>
        <time>2011-10-30T08:12:07.000Z</time>
      </trkpt>
      <trkpt lat="50.69823" lon="2.96321">
        <ele>17</ele>
        <time>2011-10-30T08:12:12.000Z</time>
      </trkpt>
      <trkpt lat="50.69841" lon="2.96335">
        <ele>17</ele>
        <time>2011-10-30T08:12:17.000Z</time>
      </trkpt>
      <trkpt lat="50.69862" lon="2.9637">
        <ele>17.799999237061</ele>
        <time>2011-10-30T08:12:26.000Z</time>
      </trkpt>
      <trkpt lat="50.69866" lon="2.96405">
        <ele>18.39999961853</ele>
        <time>2011-10-30T08:12:32.000Z</time>
      </trkpt>
      <trkpt lat="50.69868" lon="2.96433">
        <ele>18.39999961853</ele>
        <time>2011-10-30T08:12:37.000Z</time>
      </trkpt>
      <trkpt lat="50.69875" lon="2.96465">
        <ele>18.200000762939</ele>
        <time>2011-10-30T08:12:43.000Z</time>
      </trkpt>
      <trkpt lat="50.69877" lon="2.96493">
        <ele>17.799999237061</ele>
        <time>2011-10-30T08:12:48.000Z</time>
      </trkpt>
      <trkpt lat="50.69882" lon="2.96526">
        <ele>17.200000762939</ele>
        <time>2011-10-30T08:12:54.000Z</time>
      </trkpt>
      <trkpt lat="50.69884" lon="2.96554">
        <ele>16.799999237061</ele>
        <time>2011-10-30T08:12:59.000Z</time>
      </trkpt>
      <trkpt lat="50.6989" lon="2.96576">
        <ele>16.39999961853</ele>
        <time>2011-10-30T08:13:03.000Z</time>
      </trkpt>
      <trkpt lat="50.69893" lon="2.9658">
        <ele>16.200000762939</ele>
        <time>2011-10-30T08:13:04.000Z</time>
      </trkpt>
      <trkpt lat="50.69908" lon="2.96578">
        <ele>16</ele>
        <time>2011-10-30T08:13:09.000Z</time>
      </trkpt>
      <trkpt lat="50.69912" lon="2.96576">
        <ele>16</ele>
        <time>2011-10-30T08:13:10.000Z</time>
      </trkpt>
      <trkpt lat="50.6993" lon="2.96567">
        <ele>16.200000762939</ele>
        <time>2011-10-30T08:13:15.000Z</time>
      </trkpt>
      <trkpt lat="50.69947" lon="2.9656">
        <ele>16.39999961853</ele>
        <time>2011-10-30T08:13:20.000Z</time>
      </trkpt>
      <trkpt lat="50.69966" lon="2.96556">
        <ele>16.60000038147</ele>
        <time>2011-10-30T08:13:25.000Z</time>
      </trkpt>
      <trkpt lat="50.69984" lon="2.9655">
        <ele>16.799999237061</ele>
        <time>2011-10-30T08:13:30.000Z</time>
      </trkpt>
      <trkpt lat="50.70004" lon="2.96541">
        <ele>16.799999237061</ele>
        <time>2011-10-30T08:13:36.000Z</time>
      </trkpt>
      <trkpt lat="50.70025" lon="2.96537">
        <ele>16.799999237061</ele>
        <time>2011-10-30T08:13:41.000Z</time>
      </trkpt>
      <trkpt lat="50.70041" lon="2.9654">
        <ele>16.60000038147</ele>
        <time>2011-10-30T08:13:45.000Z</time>
      </trkpt>
      <trkpt lat="50.70048" lon="2.96564">
        <ele>16.799999237061</ele>
        <time>2011-10-30T08:13:49.000Z</time>
      </trkpt>
      <trkpt lat="50.70049" lon="2.96573">
        <ele>16.799999237061</ele>
        <time>2011-10-30T08:13:50.000Z</time>
      </trkpt>
      <trkpt lat="50.70053" lon="2.96611">
        <ele>17.200000762939</ele>
        <time>2011-10-30T08:13:56.000Z</time>
      </trkpt>
      <trkpt lat="50.70056" lon="2.96644">
        <ele>17.60000038147</ele>
        <time>2011-10-30T08:14:01.000Z</time>
      </trkpt>
      <trkpt lat="50.70061" lon="2.96676">
        <ele>18</ele>
        <time>2011-10-30T08:14:06.000Z</time>
      </trkpt>
      <trkpt lat="50.70065" lon="2.96708">
        <ele>18</ele>
        <time>2011-10-30T08:14:11.000Z</time>
      </trkpt>
      <trkpt lat="50.70069" lon="2.96741">
        <ele>18</ele>
        <time>2011-10-30T08:14:16.000Z</time>
      </trkpt>
      <trkpt lat="50.70074" lon="2.96774">
        <ele>18</ele>
        <time>2011-10-30T08:14:21.000Z</time>
      </trkpt>
      <trkpt lat="50.70077" lon="2.96792">
        <ele>18</ele>
        <time>2011-10-30T08:14:24.000Z</time>
      </trkpt>
      <trkpt lat="50.70081" lon="2.96809">
        <ele>18</ele>
        <time>2011-10-30T08:14:27.000Z</time>
      </trkpt>
      <trkpt lat="50.70094" lon="2.96817">
        <ele>18</ele>
        <time>2011-10-30T08:14:31.000Z</time>
      </trkpt>
      <trkpt lat="50.70112" lon="2.96812">
        <ele>18</ele>
        <time>2011-10-30T08:14:36.000Z</time>
      </trkpt>
      <trkpt lat="50.70124" lon="2.96816">
        <ele>18</ele>
        <time>2011-10-30T08:14:41.000Z</time>
      </trkpt>
      <trkpt lat="50.70124" lon="2.96816">
        <ele>18</ele>
        <time>2011-10-30T08:14:42.000Z</time>
      </trkpt>
      <trkpt lat="50.70127" lon="2.96819">
        <ele>18</ele>
        <time>2011-10-30T08:14:49.000Z</time>
      </trkpt>
      <trkpt lat="50.7014" lon="2.96835">
        <ele>18</ele>
        <time>2011-10-30T08:14:55.000Z</time>
      </trkpt>
      <trkpt lat="50.70149" lon="2.96845">
        <ele>18</ele>
        <time>2011-10-30T08:14:58.000Z</time>
      </trkpt>
      <trkpt lat="50.70156" lon="2.96835">
        <ele>18</ele>
        <time>2011-10-30T08:15:02.000Z</time>
      </trkpt>
      <trkpt lat="50.7017" lon="2.96813">
        <ele>17.799999237061</ele>
        <time>2011-10-30T08:15:08.000Z</time>
      </trkpt>
      <trkpt lat="50.70185" lon="2.96789">
        <ele>17.799999237061</ele>
        <time>2011-10-30T08:15:14.000Z</time>
      </trkpt>
      <trkpt lat="50.70198" lon="2.96765">
        <ele>17.60000038147</ele>
        <time>2011-10-30T08:15:20.000Z</time>
      </trkpt>
      <trkpt lat="50.70212" lon="2.96742">
        <ele>17.39999961853</ele>
        <time>2011-10-30T08:15:26.000Z</time>
      </trkpt>
      <trkpt lat="50.70227" lon="2.96721">
        <ele>17.200000762939</ele>
        <time>2011-10-30T08:15:32.000Z</time>
      </trkpt>
      <trkpt lat="50.70242" lon="2.96697">
        <ele>17</ele>
        <time>2011-10-30T08:15:38.000Z</time>
      </trkpt>
      <trkpt lat="50.70258" lon="2.96674">
        <ele>17</ele>
        <time>2011-10-30T08:15:44.000Z</time>
      </trkpt>
      <trkpt lat="50.70271" lon="2.96654">
        <ele>17.39999961853</ele>
        <time>2011-10-30T08:15:49.000Z</time>
      </trkpt>
      <trkpt lat="50.70286" lon="2.96633">
        <ele>17.60000038147</ele>
        <time>2011-10-30T08:15:55.000Z</time>
      </trkpt>
      <trkpt lat="50.70301" lon="2.9661">
        <ele>17.799999237061</ele>
        <time>2011-10-30T08:16:01.000Z</time>
      </trkpt>
      <trkpt lat="50.70316" lon="2.96588">
        <ele>17.799999237061</ele>
        <time>2011-10-30T08:16:07.000Z</time>
      </trkpt>
      <trkpt lat="50.70331" lon="2.96566">
        <ele>17.799999237061</ele>
        <time>2011-10-30T08:16:13.000Z</time>
      </trkpt>
      <trkpt lat="50.70348" lon="2.96545">
        <ele>18</ele>
        <time>2011-10-30T08:16:19.000Z</time>
      </trkpt>
      <trkpt lat="50.70367" lon="2.96529">
        <ele>18.200000762939</ele>
        <time>2011-10-30T08:16:25.000Z</time>
      </trkpt>
      <trkpt lat="50.70385" lon="2.96522">
        <ele>18.39999961853</ele>
        <time>2011-10-30T08:16:30.000Z</time>
      </trkpt>
      <trkpt lat="50.70404" lon="2.96518">
        <ele>18.60000038147</ele>
        <time>2011-10-30T08:16:36.000Z</time>
      </trkpt>
      <trkpt lat="50.70425" lon="2.96514">
        <ele>18.799999237061</ele>
        <time>2011-10-30T08:16:42.000Z</time>
      </trkpt>
      <trkpt lat="50.70444" lon="2.96507">
        <ele>18.799999237061</ele>
        <time>2011-10-30T08:16:48.000Z</time>
      </trkpt>
      <trkpt lat="50.70465" lon="2.965">
        <ele>19</ele>
        <time>2011-10-30T08:16:54.000Z</time>
      </trkpt>
      <trkpt lat="50.70486" lon="2.96493">
        <ele>19</ele>
        <time>2011-10-30T08:17:00.000Z</time>
      </trkpt>
      <trkpt lat="50.70505" lon="2.96484">
        <ele>19.200000762939</ele>
        <time>2011-10-30T08:17:05.000Z</time>
      </trkpt>
      <trkpt lat="50.70525" lon="2.96468">
        <ele>19.200000762939</ele>
        <time>2011-10-30T08:17:10.000Z</time>
      </trkpt>
      <trkpt lat="50.70542" lon="2.96452">
        <ele>19</ele>
        <time>2011-10-30T08:17:15.000Z</time>
      </trkpt>
      <trkpt lat="50.70558" lon="2.96432">
        <ele>18.799999237061</ele>
        <time>2011-10-30T08:17:20.000Z</time>
      </trkpt>
      <trkpt lat="50.70561" lon="2.96427">
        <ele>18.60000038147</ele>
        <time>2011-10-30T08:17:21.000Z</time>
      </trkpt>
      <trkpt lat="50.70577" lon="2.96405">
        <ele>18</ele>
        <time>2011-10-30T08:17:26.000Z</time>
      </trkpt>
      <trkpt lat="50.70593" lon="2.96389">
        <ele>17.60000038147</ele>
        <time>2011-10-30T08:17:30.000Z</time>
      </trkpt>
      <trkpt lat="50.7061" lon="2.96372">
        <ele>17.60000038147</ele>
        <time>2011-10-30T08:17:35.000Z</time>
      </trkpt>
      <trkpt lat="50.70628" lon="2.96355">
        <ele>17.60000038147</ele>
        <time>2011-10-30T08:17:40.000Z</time>
      </trkpt>
      <trkpt lat="50.70644" lon="2.9634">
        <ele>17.60000038147</ele>
        <time>2011-10-30T08:17:45.000Z</time>
      </trkpt>
      <trkpt lat="50.7066" lon="2.96325">
        <ele>17.799999237061</ele>
        <time>2011-10-30T08:17:50.000Z</time>
      </trkpt>
      <trkpt lat="50.70674" lon="2.96307">
        <ele>18</ele>
        <time>2011-10-30T08:17:55.000Z</time>
      </trkpt>
      <trkpt lat="50.7069" lon="2.96293">
        <ele>18</ele>
        <time>2011-10-30T08:18:00.000Z</time>
      </trkpt>
      <trkpt lat="50.70708" lon="2.9628">
        <ele>18</ele>
        <time>2011-10-30T08:18:05.000Z</time>
      </trkpt>
      <trkpt lat="50.70723" lon="2.96263">
        <ele>18</ele>
        <time>2011-10-30T08:18:10.000Z</time>
      </trkpt>
      <trkpt lat="50.70733" lon="2.96232">
        <ele>18</ele>
        <time>2011-10-30T08:18:16.000Z</time>
      </trkpt>
      <trkpt lat="50.70743" lon="2.96207">
        <ele>18.39999961853</ele>
        <time>2011-10-30T08:18:21.000Z</time>
      </trkpt>
      <trkpt lat="50.70756" lon="2.96182">
        <ele>18.799999237061</ele>
        <time>2011-10-30T08:18:26.000Z</time>
      </trkpt>
      <trkpt lat="50.70759" lon="2.96179">
        <ele>18.799999237061</ele>
        <time>2011-10-30T08:18:27.000Z</time>
      </trkpt>
      <trkpt lat="50.70765" lon="2.96186">
        <ele>18.799999237061</ele>
        <time>2011-10-30T08:18:29.000Z</time>
      </trkpt>
      <trkpt lat="50.70767" lon="2.96193">
        <ele>18.799999237061</ele>
        <time>2011-10-30T08:18:30.000Z</time>
      </trkpt>
      <trkpt lat="50.70778" lon="2.96222">
        <ele>18.39999961853</ele>
        <time>2011-10-30T08:18:36.000Z</time>
      </trkpt>
      <trkpt lat="50.70788" lon="2.96249">
        <ele>18</ele>
        <time>2011-10-30T08:18:41.000Z</time>
      </trkpt>
      <trkpt lat="50.70799" lon="2.96278">
        <ele>17.799999237061</ele>
        <time>2011-10-30T08:18:46.000Z</time>
      </trkpt>
      <trkpt lat="50.70806" lon="2.96297">
        <ele>17.60000038147</ele>
        <time>2011-10-30T08:18:49.000Z</time>
      </trkpt>
      <trkpt lat="50.70808" lon="2.96303">
        <ele>17.39999961853</ele>
        <time>2011-10-30T08:18:50.000Z</time>
      </trkpt>
      <trkpt lat="50.70818" lon="2.96334">
        <ele>17</ele>
        <time>2011-10-30T08:18:55.000Z</time>
      </trkpt>
      <trkpt lat="50.70827" lon="2.96364">
        <ele>17</ele>
        <time>2011-10-30T08:19:00.000Z</time>
      </trkpt>
      <trkpt lat="50.70836" lon="2.96395">
        <ele>17</ele>
        <time>2011-10-30T08:19:05.000Z</time>
      </trkpt>
      <trkpt lat="50.70845" lon="2.96426">
        <ele>17</ele>
        <time>2011-10-30T08:19:10.000Z</time>
      </trkpt>
      <trkpt lat="50.70853" lon="2.96457">
        <ele>17.200000762939</ele>
        <time>2011-10-30T08:19:15.000Z</time>
      </trkpt>
      <trkpt lat="50.70854" lon="2.96461">
        <ele>17.39999961853</ele>
        <time>2011-10-30T08:19:16.000Z</time>
      </trkpt>
      <trkpt lat="50.70864" lon="2.96498">
        <ele>17.60000038147</ele>
        <time>2011-10-30T08:19:22.000Z</time>
      </trkpt>
      <trkpt lat="50.70867" lon="2.96507">
        <ele>17.39999961853</ele>
        <time>2011-10-30T08:19:23.000Z</time>
      </trkpt>
      <trkpt lat="50.70881" lon="2.96521">
        <ele>17.39999961853</ele>
        <time>2011-10-30T08:19:27.000Z</time>
      </trkpt>
      <trkpt lat="50.70884" lon="2.96521">
        <ele>17.200000762939</ele>
        <time>2011-10-30T08:19:28.000Z</time>
      </trkpt>
      <trkpt lat="50.70889" lon="2.96518">
        <ele>17.200000762939</ele>
        <time>2011-10-30T08:19:29.000Z</time>
      </trkpt>
      <trkpt lat="50.70908" lon="2.96506">
        <ele>17</ele>
        <time>2011-10-30T08:19:34.000Z</time>
      </trkpt>
      <trkpt lat="50.70926" lon="2.96493">
        <ele>17</ele>
        <time>2011-10-30T08:19:38.000Z</time>
      </trkpt>
      <trkpt lat="50.7093" lon="2.96491">
        <ele>17</ele>
        <time>2011-10-30T08:19:39.000Z</time>
      </trkpt>
      <trkpt lat="50.70934" lon="2.9649">
        <ele>17</ele>
        <time>2011-10-30T08:19:40.000Z</time>
      </trkpt>
      <trkpt lat="50.70951" lon="2.96503">
        <ele>17</ele>
        <time>2011-10-30T08:19:44.000Z</time>
      </trkpt>
      <trkpt lat="50.70954" lon="2.96508">
        <ele>17</ele>
        <time>2011-10-30T08:19:45.000Z</time>
      </trkpt>
      <trkpt lat="50.7096" lon="2.96519">
        <ele>17</ele>
        <time>2011-10-30T08:19:47.000Z</time>
      </trkpt>
      <trkpt lat="50.70977" lon="2.96552">
        <ele>17</ele>
        <time>2011-10-30T08:19:53.000Z</time>
      </trkpt>
      <trkpt lat="50.7098" lon="2.96557">
        <ele>17</ele>
        <time>2011-10-30T08:19:54.000Z</time>
      </trkpt>
      <trkpt lat="50.70995" lon="2.96589">
        <ele>17</ele>
        <time>2011-10-30T08:20:00.000Z</time>
      </trkpt>
      <trkpt lat="50.71006" lon="2.96614">
        <ele>17.39999961853</ele>
        <time>2011-10-30T08:20:05.000Z</time>
      </trkpt>
      <trkpt lat="50.71015" lon="2.9664">
        <ele>17.60000038147</ele>
        <time>2011-10-30T08:20:09.000Z</time>
      </trkpt>
      <trkpt lat="50.71024" lon="2.96671">
        <ele>18</ele>
        <time>2011-10-30T08:20:14.000Z</time>
      </trkpt>
      <trkpt lat="50.7103" lon="2.96698">
        <ele>18</ele>
        <time>2011-10-30T08:20:18.000Z</time>
      </trkpt>
      <trkpt lat="50.71036" lon="2.96732">
        <ele>18</ele>
        <time>2011-10-30T08:20:23.000Z</time>
      </trkpt>
      <trkpt lat="50.71043" lon="2.96763">
        <ele>18</ele>
        <time>2011-10-30T08:20:28.000Z</time>
      </trkpt>
      <trkpt lat="50.71048" lon="2.96791">
        <ele>18.200000762939</ele>
        <time>2011-10-30T08:20:32.000Z</time>
      </trkpt>
      <trkpt lat="50.7105" lon="2.96802">
        <ele>18.200000762939</ele>
        <time>2011-10-30T08:20:34.000Z</time>
      </trkpt>
      <trkpt lat="50.71053" lon="2.96842">
        <ele>18.60000038147</ele>
        <time>2011-10-30T08:20:40.000Z</time>
      </trkpt>
      <trkpt lat="50.71053" lon="2.9685">
        <ele>18.60000038147</ele>
        <time>2011-10-30T08:20:41.000Z</time>
      </trkpt>
      <trkpt lat="50.71054" lon="2.9688">
        <ele>18.60000038147</ele>
        <time>2011-10-30T08:20:46.000Z</time>
      </trkpt>
      <trkpt lat="50.71054" lon="2.96888">
        <ele>18.60000038147</ele>
        <time>2011-10-30T08:20:47.000Z</time>
      </trkpt>
      <trkpt lat="50.71055" lon="2.96908">
        <ele>18.60000038147</ele>
        <time>2011-10-30T08:20:50.000Z</time>
      </trkpt>
      <trkpt lat="50.71056" lon="2.96948">
        <ele>18.60000038147</ele>
        <time>2011-10-30T08:20:56.000Z</time>
      </trkpt>
      <trkpt lat="50.71056" lon="2.96984">
        <ele>18.60000038147</ele>
        <time>2011-10-30T08:21:01.000Z</time>
      </trkpt>
      <trkpt lat="50.71056" lon="2.97012">
        <ele>18.39999961853</ele>
        <time>2011-10-30T08:21:05.000Z</time>
      </trkpt>
      <trkpt lat="50.71057" lon="2.9704">
        <ele>17.799999237061</ele>
        <time>2011-10-30T08:21:09.000Z</time>
      </trkpt>
      <trkpt lat="50.71059" lon="2.97075">
        <ele>17</ele>
        <time>2011-10-30T08:21:14.000Z</time>
      </trkpt>
      <trkpt lat="50.71059" lon="2.97109">
        <ele>16.799999237061</ele>
        <time>2011-10-30T08:21:19.000Z</time>
      </trkpt>
      <trkpt lat="50.71056" lon="2.97143">
        <ele>16.60000038147</ele>
        <time>2011-10-30T08:21:24.000Z</time>
      </trkpt>
      <trkpt lat="50.7105" lon="2.97175">
        <ele>16.799999237061</ele>
        <time>2011-10-30T08:21:29.000Z</time>
      </trkpt>
      <trkpt lat="50.71043" lon="2.97202">
        <ele>17.200000762939</ele>
        <time>2011-10-30T08:21:34.000Z</time>
      </trkpt>
      <trkpt lat="50.71033" lon="2.97232">
        <ele>17.799999237061</ele>
        <time>2011-10-30T08:21:39.000Z</time>
      </trkpt>
      <trkpt lat="50.71025" lon="2.97262">
        <ele>18.39999961853</ele>
        <time>2011-10-30T08:21:44.000Z</time>
      </trkpt>
      <trkpt lat="50.71019" lon="2.97292">
        <ele>18.60000038147</ele>
        <time>2011-10-30T08:21:49.000Z</time>
      </trkpt>
      <trkpt lat="50.71014" lon="2.97323">
        <ele>18.799999237061</ele>
        <time>2011-10-30T08:21:54.000Z</time>
      </trkpt>
      <trkpt lat="50.71011" lon="2.97352">
        <ele>18.60000038147</ele>
        <time>2011-10-30T08:21:59.000Z</time>
      </trkpt>
      <trkpt lat="50.71009" lon="2.97368">
        <ele>18.39999961853</ele>
        <time>2011-10-30T08:22:02.000Z</time>
      </trkpt>
      <trkpt lat="50.71011" lon="2.97377">
        <ele>18.39999961853</ele>
        <time>2011-10-30T08:22:04.000Z</time>
      </trkpt>
      <trkpt lat="50.71028" lon="2.97382">
        <ele>18.39999961853</ele>
        <time>2011-10-30T08:22:09.000Z</time>
      </trkpt>
      <trkpt lat="50.71047" lon="2.97379">
        <ele>18.39999961853</ele>
        <time>2011-10-30T08:22:14.000Z</time>
      </trkpt>
      <trkpt lat="50.71068" lon="2.97376">
        <ele>18.39999961853</ele>
        <time>2011-10-30T08:22:19.000Z</time>
      </trkpt>
      <trkpt lat="50.7108" lon="2.97376">
        <ele>18.39999961853</ele>
        <time>2011-10-30T08:22:22.000Z</time>
      </trkpt>
      <trkpt lat="50.7109" lon="2.97376">
        <ele>18.200000762939</ele>
        <time>2011-10-30T08:22:24.000Z</time>
      </trkpt>
      <trkpt lat="50.71111" lon="2.97379">
        <ele>17.799999237061</ele>
        <time>2011-10-30T08:22:29.000Z</time>
      </trkpt>
      <trkpt lat="50.71132" lon="2.97382">
        <ele>17.60000038147</ele>
        <time>2011-10-30T08:22:34.000Z</time>
      </trkpt>
      <trkpt lat="50.71151" lon="2.97384">
        <ele>17.39999961853</ele>
        <time>2011-10-30T08:22:38.000Z</time>
      </trkpt>
      <trkpt lat="50.71169" lon="2.97387">
        <ele>17.200000762939</ele>
        <time>2011-10-30T08:22:42.000Z</time>
      </trkpt>
      <trkpt lat="50.71193" lon="2.97389">
        <ele>17.200000762939</ele>
        <time>2011-10-30T08:22:47.000Z</time>
      </trkpt>
      <trkpt lat="50.71212" lon="2.9739">
        <ele>17.200000762939</ele>
        <time>2011-10-30T08:22:51.000Z</time>
      </trkpt>
      <trkpt lat="50.7123" lon="2.97391">
        <ele>17.200000762939</ele>
        <time>2011-10-30T08:22:55.000Z</time>
      </trkpt>
      <trkpt lat="50.71249" lon="2.97391">
        <ele>17.200000762939</ele>
        <time>2011-10-30T08:22:59.000Z</time>
      </trkpt>
      <trkpt lat="50.71254" lon="2.97391">
        <ele>17.200000762939</ele>
        <time>2011-10-30T08:23:00.000Z</time>
      </trkpt>
      <trkpt lat="50.71278" lon="2.97392">
        <ele>16.39999961853</ele>
        <time>2011-10-30T08:23:05.000Z</time>
      </trkpt>
      <trkpt lat="50.71297" lon="2.97393">
        <ele>16</ele>
        <time>2011-10-30T08:23:09.000Z</time>
      </trkpt>
      <trkpt lat="50.71317" lon="2.97395">
        <ele>15.39999961853</ele>
        <time>2011-10-30T08:23:13.000Z</time>
      </trkpt>
      <trkpt lat="50.71336" lon="2.97398">
        <ele>15</ele>
        <time>2011-10-30T08:23:17.000Z</time>
      </trkpt>
      <trkpt lat="50.71356" lon="2.97402">
        <ele>15.199999809265</ele>
        <time>2011-10-30T08:23:21.000Z</time>
      </trkpt>
      <trkpt lat="50.71376" lon="2.97406">
        <ele>15.39999961853</ele>
        <time>2011-10-30T08:23:25.000Z</time>
      </trkpt>
      <trkpt lat="50.71415" lon="2.97414">
        <ele>15.800000190735</ele>
        <time>2011-10-30T08:23:33.000Z</time>
      </trkpt>
      <trkpt lat="50.71435" lon="2.97418">
        <ele>16.200000762939</ele>
        <time>2011-10-30T08:23:37.000Z</time>
      </trkpt>
      <trkpt lat="50.71454" lon="2.97422">
        <ele>16.39999961853</ele>
        <time>2011-10-30T08:23:41.000Z</time>
      </trkpt>
      <trkpt lat="50.71474" lon="2.97429">
        <ele>16.39999961853</ele>
        <time>2011-10-30T08:23:45.000Z</time>
      </trkpt>
      <trkpt lat="50.71477" lon="2.97431">
        <ele>16.60000038147</ele>
        <time>2011-10-30T08:23:46.000Z</time>
      </trkpt>
      <trkpt lat="50.715" lon="2.97447">
        <ele>16.60000038147</ele>
        <time>2011-10-30T08:23:51.000Z</time>
      </trkpt>
      <trkpt lat="50.71518" lon="2.97461">
        <ele>16.200000762939</ele>
        <time>2011-10-30T08:23:55.000Z</time>
      </trkpt>
      <trkpt lat="50.71536" lon="2.97475">
        <ele>16</ele>
        <time>2011-10-30T08:23:59.000Z</time>
      </trkpt>
      <trkpt lat="50.7154" lon="2.97479">
        <ele>16</ele>
        <time>2011-10-30T08:24:00.000Z</time>
      </trkpt>
      <trkpt lat="50.71554" lon="2.97496">
        <ele>15.800000190735</ele>
        <time>2011-10-30T08:24:04.000Z</time>
      </trkpt>
      <trkpt lat="50.71557" lon="2.97494">
        <ele>15.800000190735</ele>
        <time>2011-10-30T08:24:08.000Z</time>
      </trkpt>
      <trkpt lat="50.71558" lon="2.97491">
        <ele>15.800000190735</ele>
        <time>2011-10-30T08:24:09.000Z</time>
      </trkpt>
      <trkpt lat="50.71558" lon="2.97489">
        <ele>15.800000190735</ele>
        <time>2011-10-30T08:24:11.000Z</time>
      </trkpt>
      <trkpt lat="50.71559" lon="2.97483">
        <ele>15.800000190735</ele>
        <time>2011-10-30T08:24:15.000Z</time>
      </trkpt>
      <trkpt lat="50.71563" lon="2.97464">
        <ele>15.60000038147</ele>
        <time>2011-10-30T08:24:22.000Z</time>
      </trkpt>
      <trkpt lat="50.71564" lon="2.97438">
        <ele>15.60000038147</ele>
        <time>2011-10-30T08:24:28.000Z</time>
      </trkpt>
      <trkpt lat="50.71563" lon="2.97413">
        <ele>15.39999961853</ele>
        <time>2011-10-30T08:24:33.000Z</time>
      </trkpt>
      <trkpt lat="50.7156" lon="2.97385">
        <ele>15.199999809265</ele>
        <time>2011-10-30T08:24:39.000Z</time>
      </trkpt>
      <trkpt lat="50.71555" lon="2.97356">
        <ele>15</ele>
        <time>2011-10-30T08:24:45.000Z</time>
      </trkpt>
      <trkpt lat="50.7155" lon="2.97328">
        <ele>15</ele>
        <time>2011-10-30T08:24:51.000Z</time>
      </trkpt>
      <trkpt lat="50.71543" lon="2.97301">
        <ele>15</ele>
        <time>2011-10-30T08:24:57.000Z</time>
      </trkpt>
      <trkpt lat="50.71537" lon="2.97272">
        <ele>15</ele>
        <time>2011-10-30T08:25:03.000Z</time>
      </trkpt>
      <trkpt lat="50.7153" lon="2.97242">
        <ele>15</ele>
        <time>2011-10-30T08:25:09.000Z</time>
      </trkpt>
      <trkpt lat="50.71523" lon="2.97212">
        <ele>15.199999809265</ele>
        <time>2011-10-30T08:25:15.000Z</time>
      </trkpt>
      <trkpt lat="50.71517" lon="2.9718">
        <ele>15.39999961853</ele>
        <time>2011-10-30T08:25:21.000Z</time>
      </trkpt>
      <trkpt lat="50.71514" lon="2.97148">
        <ele>15.39999961853</ele>
        <time>2011-10-30T08:25:27.000Z</time>
      </trkpt>
      <trkpt lat="50.71513" lon="2.97115">
        <ele>15</ele>
        <time>2011-10-30T08:25:33.000Z</time>
      </trkpt>
      <trkpt lat="50.71512" lon="2.97086">
        <ele>14.800000190735</ele>
        <time>2011-10-30T08:25:38.000Z</time>
      </trkpt>
      <trkpt lat="50.71512" lon="2.97058">
        <ele>14.800000190735</ele>
        <time>2011-10-30T08:25:43.000Z</time>
      </trkpt>
      <trkpt lat="50.71517" lon="2.97025">
        <ele>14.60000038147</ele>
        <time>2011-10-30T08:25:49.000Z</time>
      </trkpt>
      <trkpt lat="50.71522" lon="2.96997">
        <ele>14.60000038147</ele>
        <time>2011-10-30T08:25:54.000Z</time>
      </trkpt>
      <trkpt lat="50.71525" lon="2.96973">
        <ele>14.800000190735</ele>
        <time>2011-10-30T08:25:59.000Z</time>
      </trkpt>
      <trkpt lat="50.71525" lon="2.96941">
        <ele>15</ele>
        <time>2011-10-30T08:26:05.000Z</time>
      </trkpt>
      <trkpt lat="50.71525" lon="2.96909">
        <ele>15.199999809265</ele>
        <time>2011-10-30T08:26:11.000Z</time>
      </trkpt>
      <trkpt lat="50.71524" lon="2.96875">
        <ele>15.199999809265</ele>
        <time>2011-10-30T08:26:17.000Z</time>
      </trkpt>
      <trkpt lat="50.71524" lon="2.96869">
        <ele>15.199999809265</ele>
        <time>2011-10-30T08:26:18.000Z</time>
      </trkpt>
      <trkpt lat="50.71521" lon="2.96842">
        <ele>15.199999809265</ele>
        <time>2011-10-30T08:26:23.000Z</time>
      </trkpt>
      <trkpt lat="50.71517" lon="2.96806">
        <ele>14.800000190735</ele>
        <time>2011-10-30T08:26:30.000Z</time>
      </trkpt>
      <trkpt lat="50.71515" lon="2.96776">
        <ele>14.60000038147</ele>
        <time>2011-10-30T08:26:37.000Z</time>
      </trkpt>
      <trkpt lat="50.71511" lon="2.96756">
        <ele>14.199999809265</ele>
        <time>2011-10-30T08:26:43.000Z</time>
      </trkpt>
      <trkpt lat="50.71514" lon="2.96729">
        <ele>14.199999809265</ele>
        <time>2011-10-30T08:26:49.000Z</time>
      </trkpt>
      <trkpt lat="50.71518" lon="2.96699">
        <ele>14.199999809265</ele>
        <time>2011-10-30T08:26:55.000Z</time>
      </trkpt>
      <trkpt lat="50.71521" lon="2.96666">
        <ele>14.199999809265</ele>
        <time>2011-10-30T08:27:01.000Z</time>
      </trkpt>
      <trkpt lat="50.71523" lon="2.96635">
        <ele>14.60000038147</ele>
        <time>2011-10-30T08:27:07.000Z</time>
      </trkpt>
      <trkpt lat="50.71522" lon="2.96602">
        <ele>15</ele>
        <time>2011-10-30T08:27:13.000Z</time>
      </trkpt>
      <trkpt lat="50.7152" lon="2.96573">
        <ele>15.199999809265</ele>
        <time>2011-10-30T08:27:18.000Z</time>
      </trkpt>
      <trkpt lat="50.71519" lon="2.96528">
        <ele>15.60000038147</ele>
        <time>2011-10-30T08:27:26.000Z</time>
      </trkpt>
      <trkpt lat="50.71518" lon="2.96495">
        <ele>15.800000190735</ele>
        <time>2011-10-30T08:27:32.000Z</time>
      </trkpt>
      <trkpt lat="50.71516" lon="2.9645">
        <ele>15.39999961853</ele>
        <time>2011-10-30T08:27:40.000Z</time>
      </trkpt>
      <trkpt lat="50.71515" lon="2.96417">
        <ele>15</ele>
        <time>2011-10-30T08:27:46.000Z</time>
      </trkpt>
      <trkpt lat="50.71514" lon="2.96384">
        <ele>15.39999961853</ele>
        <time>2011-10-30T08:27:52.000Z</time>
      </trkpt>
      <trkpt lat="50.71511" lon="2.9635">
        <ele>15.800000190735</ele>
        <time>2011-10-30T08:27:58.000Z</time>
      </trkpt>
      <trkpt lat="50.71507" lon="2.96318">
        <ele>16</ele>
        <time>2011-10-30T08:28:04.000Z</time>
      </trkpt>
      <trkpt lat="50.71503" lon="2.96284">
        <ele>16</ele>
        <time>2011-10-30T08:28:10.000Z</time>
      </trkpt>
      <trkpt lat="50.71499" lon="2.96259">
        <ele>16</ele>
        <time>2011-10-30T08:28:15.000Z</time>
      </trkpt>
      <trkpt lat="50.71489" lon="2.96252">
        <ele>16</ele>
        <time>2011-10-30T08:28:22.000Z</time>
      </trkpt>
      <trkpt lat="50.71485" lon="2.96253">
        <ele>16</ele>
        <time>2011-10-30T08:28:25.000Z</time>
      </trkpt>
      <trkpt lat="50.71484" lon="2.9625">
        <ele>16</ele>
        <time>2011-10-30T08:28:29.000Z</time>
      </trkpt>
      <trkpt lat="50.71484" lon="2.96252">
        <ele>16</ele>
        <time>2011-10-30T08:28:34.000Z</time>
      </trkpt>
      <trkpt lat="50.71484" lon="2.96253">
        <ele>16</ele>
        <time>2011-10-30T08:28:39.000Z</time>
      </trkpt>
      <trkpt lat="50.71485" lon="2.96251">
        <ele>16</ele>
        <time>2011-10-30T08:28:44.000Z</time>
      </trkpt>
      <trkpt lat="50.71486" lon="2.96251">
        <ele>16</ele>
        <time>2011-10-30T08:28:45.000Z</time>
      </trkpt>
      <trkpt lat="50.71493" lon="2.96254">
        <ele>16</ele>
        <time>2011-10-30T08:28:50.000Z</time>
      </trkpt>
      <trkpt lat="50.71498" lon="2.96245">
        <ele>16</ele>
        <time>2011-10-30T08:28:55.000Z</time>
      </trkpt>
      <trkpt lat="50.71497" lon="2.96241">
        <ele>16</ele>
        <time>2011-10-30T08:28:56.000Z</time>
      </trkpt>
      <trkpt lat="50.71495" lon="2.96215">
        <ele>16</ele>
        <time>2011-10-30T08:29:02.000Z</time>
      </trkpt>
      <trkpt lat="50.71494" lon="2.96195">
        <ele>16</ele>
        <time>2011-10-30T08:29:07.000Z</time>
      </trkpt>
      <trkpt lat="50.71492" lon="2.96165">
        <ele>16</ele>
        <time>2011-10-30T08:29:14.000Z</time>
      </trkpt>
      <trkpt lat="50.71492" lon="2.96143">
        <ele>16</ele>
        <time>2011-10-30T08:29:19.000Z</time>
      </trkpt>
      <trkpt lat="50.7149" lon="2.96112">
        <ele>16</ele>
        <time>2011-10-30T08:29:26.000Z</time>
      </trkpt>
      <trkpt lat="50.71488" lon="2.96085">
        <ele>16</ele>
        <time>2011-10-30T08:29:32.000Z</time>
      </trkpt>
      <trkpt lat="50.71488" lon="2.96055">
        <ele>16</ele>
        <time>2011-10-30T08:29:39.000Z</time>
      </trkpt>
      <trkpt lat="50.71491" lon="2.96037">
        <ele>16</ele>
        <time>2011-10-30T08:29:44.000Z</time>
      </trkpt>
      <trkpt lat="50.71492" lon="2.96035">
        <ele>16</ele>
        <time>2011-10-30T08:29:45.000Z</time>
      </trkpt>
      <trkpt lat="50.71501" lon="2.96034">
        <ele>15.800000190735</ele>
        <time>2011-10-30T08:29:51.000Z</time>
      </trkpt>
      <trkpt lat="50.71518" lon="2.9604">
        <ele>15.800000190735</ele>
        <time>2011-10-30T08:29:59.000Z</time>
      </trkpt>
      <trkpt lat="50.71538" lon="2.96046">
        <ele>15.60000038147</ele>
        <time>2011-10-30T08:30:06.000Z</time>
      </trkpt>
      <trkpt lat="50.71557" lon="2.96053">
        <ele>15.39999961853</ele>
        <time>2011-10-30T08:30:12.000Z</time>
      </trkpt>
      <trkpt lat="50.71577" lon="2.9606">
        <ele>15.199999809265</ele>
        <time>2011-10-30T08:30:18.000Z</time>
      </trkpt>
      <trkpt lat="50.71599" lon="2.96069">
        <ele>15</ele>
        <time>2011-10-30T08:30:24.000Z</time>
      </trkpt>
      <trkpt lat="50.71617" lon="2.96078">
        <ele>15</ele>
        <time>2011-10-30T08:30:29.000Z</time>
      </trkpt>
      <trkpt lat="50.71635" lon="2.96088">
        <ele>15</ele>
        <time>2011-10-30T08:30:34.000Z</time>
      </trkpt>
      <trkpt lat="50.71652" lon="2.96098">
        <ele>15</ele>
        <time>2011-10-30T08:30:39.000Z</time>
      </trkpt>
      <trkpt lat="50.71669" lon="2.96108">
        <ele>15.199999809265</ele>
        <time>2011-10-30T08:30:44.000Z</time>
      </trkpt>
      <trkpt lat="50.71686" lon="2.96117">
        <ele>15.60000038147</ele>
        <time>2011-10-30T08:30:49.000Z</time>
      </trkpt>
      <trkpt lat="50.71704" lon="2.96127">
        <ele>15.800000190735</ele>
        <time>2011-10-30T08:30:55.000Z</time>
      </trkpt>
      <trkpt lat="50.71724" lon="2.96137">
        <ele>16.200000762939</ele>
        <time>2011-10-30T08:31:01.000Z</time>
      </trkpt>
      <trkpt lat="50.71741" lon="2.96146">
        <ele>16.60000038147</ele>
        <time>2011-10-30T08:31:06.000Z</time>
      </trkpt>
      <trkpt lat="50.7176" lon="2.96157">
        <ele>16.799999237061</ele>
        <time>2011-10-30T08:31:12.000Z</time>
      </trkpt>
      <trkpt lat="50.71778" lon="2.96165">
        <ele>16.799999237061</ele>
        <time>2011-10-30T08:31:17.000Z</time>
      </trkpt>
      <trkpt lat="50.71811" lon="2.96183">
        <ele>17</ele>
        <time>2011-10-30T08:31:27.000Z</time>
      </trkpt>
      <trkpt lat="50.71822" lon="2.96188">
        <ele>17</ele>
        <time>2011-10-30T08:31:30.000Z</time>
      </trkpt>
      <trkpt lat="50.71841" lon="2.96197">
        <ele>16.799999237061</ele>
        <time>2011-10-30T08:31:36.000Z</time>
      </trkpt>
      <trkpt lat="50.71843" lon="2.96196">
        <ele>16.799999237061</ele>
        <time>2011-10-30T08:31:37.000Z</time>
      </trkpt>
      <trkpt lat="50.7185" lon="2.96185">
        <ele>16.799999237061</ele>
        <time>2011-10-30T08:31:41.000Z</time>
      </trkpt>
      <trkpt lat="50.71855" lon="2.9616">
        <ele>17</ele>
        <time>2011-10-30T08:31:46.000Z</time>
      </trkpt>
      <trkpt lat="50.71859" lon="2.96132">
        <ele>17</ele>
        <time>2011-10-30T08:31:51.000Z</time>
      </trkpt>
      <trkpt lat="50.71864" lon="2.96104">
        <ele>17.200000762939</ele>
        <time>2011-10-30T08:31:56.000Z</time>
      </trkpt>
      <trkpt lat="50.71868" lon="2.96075">
        <ele>17.200000762939</ele>
        <time>2011-10-30T08:32:01.000Z</time>
      </trkpt>
      <trkpt lat="50.71873" lon="2.96047">
        <ele>17.200000762939</ele>
        <time>2011-10-30T08:32:06.000Z</time>
      </trkpt>
      <trkpt lat="50.71877" lon="2.96016">
        <ele>17</ele>
        <time>2011-10-30T08:32:11.000Z</time>
      </trkpt>
      <trkpt lat="50.71883" lon="2.95985">
        <ele>17</ele>
        <time>2011-10-30T08:32:16.000Z</time>
      </trkpt>
      <trkpt lat="50.71888" lon="2.95956">
        <ele>17.39999961853</ele>
        <time>2011-10-30T08:32:21.000Z</time>
      </trkpt>
      <trkpt lat="50.71892" lon="2.95925">
        <ele>17.799999237061</ele>
        <time>2011-10-30T08:32:26.000Z</time>
      </trkpt>
      <trkpt lat="50.71898" lon="2.95893">
        <ele>17.60000038147</ele>
        <time>2011-10-30T08:32:31.000Z</time>
      </trkpt>
      <trkpt lat="50.71902" lon="2.95862">
        <ele>17.200000762939</ele>
        <time>2011-10-30T08:32:36.000Z</time>
      </trkpt>
      <trkpt lat="50.71907" lon="2.95831">
        <ele>16.799999237061</ele>
        <time>2011-10-30T08:32:41.000Z</time>
      </trkpt>
      <trkpt lat="50.71912" lon="2.95799">
        <ele>16.39999961853</ele>
        <time>2011-10-30T08:32:46.000Z</time>
      </trkpt>
      <trkpt lat="50.71917" lon="2.95766">
        <ele>16</ele>
        <time>2011-10-30T08:32:51.000Z</time>
      </trkpt>
      <trkpt lat="50.71922" lon="2.95734">
        <ele>16.200000762939</ele>
        <time>2011-10-30T08:32:56.000Z</time>
      </trkpt>
      <trkpt lat="50.71927" lon="2.95702">
        <ele>16.60000038147</ele>
        <time>2011-10-30T08:33:01.000Z</time>
      </trkpt>
      <trkpt lat="50.71931" lon="2.95677">
        <ele>16.60000038147</ele>
        <time>2011-10-30T08:33:05.000Z</time>
      </trkpt>
      <trkpt lat="50.71936" lon="2.95648">
        <ele>16.60000038147</ele>
        <time>2011-10-30T08:33:10.000Z</time>
      </trkpt>
      <trkpt lat="50.71945" lon="2.95639">
        <ele>16.39999961853</ele>
        <time>2011-10-30T08:33:14.000Z</time>
      </trkpt>
      <trkpt lat="50.71952" lon="2.95648">
        <ele>16.39999961853</ele>
        <time>2011-10-30T08:33:17.000Z</time>
      </trkpt>
      <trkpt lat="50.71953" lon="2.95651">
        <ele>16.39999961853</ele>
        <time>2011-10-30T08:33:18.000Z</time>
      </trkpt>
      <trkpt lat="50.71959" lon="2.95655">
        <ele>16.39999961853</ele>
        <time>2011-10-30T08:33:20.000Z</time>
      </trkpt>
      <trkpt lat="50.71966" lon="2.95654">
        <ele>16.200000762939</ele>
        <time>2011-10-30T08:33:23.000Z</time>
      </trkpt>
      <trkpt lat="50.71989" lon="2.95674">
        <ele>16.200000762939</ele>
        <time>2011-10-30T08:33:32.000Z</time>
      </trkpt>
      <trkpt lat="50.72008" lon="2.95688">
        <ele>16.39999961853</ele>
        <time>2011-10-30T08:33:38.000Z</time>
      </trkpt>
      <trkpt lat="50.72027" lon="2.95698">
        <ele>16.60000038147</ele>
        <time>2011-10-30T08:33:44.000Z</time>
      </trkpt>
      <trkpt lat="50.72044" lon="2.95693">
        <ele>16.39999961853</ele>
        <time>2011-10-30T08:33:49.000Z</time>
      </trkpt>
      <trkpt lat="50.7206" lon="2.95677">
        <ele>16</ele>
        <time>2011-10-30T08:33:54.000Z</time>
      </trkpt>
      <trkpt lat="50.72079" lon="2.95657">
        <ele>15.800000190735</ele>
        <time>2011-10-30T08:33:59.000Z</time>
      </trkpt>
      <trkpt lat="50.72099" lon="2.95644">
        <ele>16</ele>
        <time>2011-10-30T08:34:03.000Z</time>
      </trkpt>
      <trkpt lat="50.72113" lon="2.95639">
        <ele>16</ele>
        <time>2011-10-30T08:34:06.000Z</time>
      </trkpt>
      <trkpt lat="50.72133" lon="2.95626">
        <ele>16.200000762939</ele>
        <time>2011-10-30T08:34:12.000Z</time>
      </trkpt>
      <trkpt lat="50.72152" lon="2.95611">
        <ele>16.39999961853</ele>
        <time>2011-10-30T08:34:18.000Z</time>
      </trkpt>
      <trkpt lat="50.7217" lon="2.95595">
        <ele>16.60000038147</ele>
        <time>2011-10-30T08:34:24.000Z</time>
      </trkpt>
      <trkpt lat="50.72186" lon="2.95581">
        <ele>15.800000190735</ele>
        <time>2011-10-30T08:34:29.000Z</time>
      </trkpt>
      <trkpt lat="50.72199" lon="2.95569">
        <ele>15</ele>
        <time>2011-10-30T08:34:33.000Z</time>
      </trkpt>
      <trkpt lat="50.7221" lon="2.95544">
        <ele>14.60000038147</ele>
        <time>2011-10-30T08:34:38.000Z</time>
      </trkpt>
      <trkpt lat="50.72215" lon="2.95521">
        <ele>14.60000038147</ele>
        <time>2011-10-30T08:34:42.000Z</time>
      </trkpt>
      <trkpt lat="50.72221" lon="2.95492">
        <ele>14.60000038147</ele>
        <time>2011-10-30T08:34:47.000Z</time>
      </trkpt>
      <trkpt lat="50.72229" lon="2.95462">
        <ele>14.60000038147</ele>
        <time>2011-10-30T08:34:52.000Z</time>
      </trkpt>
      <trkpt lat="50.72232" lon="2.9545">
        <ele>14.60000038147</ele>
        <time>2011-10-30T08:34:54.000Z</time>
      </trkpt>
      <trkpt lat="50.72242" lon="2.95418">
        <ele>14.800000190735</ele>
        <time>2011-10-30T08:35:00.000Z</time>
      </trkpt>
      <trkpt lat="50.72251" lon="2.95391">
        <ele>14.60000038147</ele>
        <time>2011-10-30T08:35:05.000Z</time>
      </trkpt>
      <trkpt lat="50.72261" lon="2.95363">
        <ele>13.800000190735</ele>
        <time>2011-10-30T08:35:10.000Z</time>
      </trkpt>
      <trkpt lat="50.7227" lon="2.9534">
        <ele>13.199999809265</ele>
        <time>2011-10-30T08:35:14.000Z</time>
      </trkpt>
      <trkpt lat="50.7227" lon="2.95312">
        <ele>13</ele>
        <time>2011-10-30T08:35:19.000Z</time>
      </trkpt>
      <trkpt lat="50.72268" lon="2.95308">
        <ele>13</ele>
        <time>2011-10-30T08:35:20.000Z</time>
      </trkpt>
      <trkpt lat="50.72255" lon="2.95277">
        <ele>13</ele>
        <time>2011-10-30T08:35:27.000Z</time>
      </trkpt>
      <trkpt lat="50.72253" lon="2.95273">
        <ele>13</ele>
        <time>2011-10-30T08:35:28.000Z</time>
      </trkpt>
      <trkpt lat="50.72244" lon="2.95251">
        <ele>13</ele>
        <time>2011-10-30T08:35:33.000Z</time>
      </trkpt>
      <trkpt lat="50.72244" lon="2.95245">
        <ele>13</ele>
        <time>2011-10-30T08:35:34.000Z</time>
      </trkpt>
      <trkpt lat="50.72251" lon="2.95232">
        <ele>12.800000190735</ele>
        <time>2011-10-30T08:35:37.000Z</time>
      </trkpt>
      <trkpt lat="50.72258" lon="2.95228">
        <ele>12.800000190735</ele>
        <time>2011-10-30T08:35:39.000Z</time>
      </trkpt>
      <trkpt lat="50.72266" lon="2.95223">
        <ele>12.60000038147</ele>
        <time>2011-10-30T08:35:41.000Z</time>
      </trkpt>
      <trkpt lat="50.72278" lon="2.95215">
        <ele>12.39999961853</ele>
        <time>2011-10-30T08:35:46.000Z</time>
      </trkpt>
      <trkpt lat="50.72281" lon="2.95213">
        <ele>12.39999961853</ele>
        <time>2011-10-30T08:35:48.000Z</time>
      </trkpt>
      <trkpt lat="50.72282" lon="2.95207">
        <ele>12.39999961853</ele>
        <time>2011-10-30T08:35:51.000Z</time>
      </trkpt>
      <trkpt lat="50.72286" lon="2.95206">
        <ele>12.199999809265</ele>
        <time>2011-10-30T08:35:55.000Z</time>
      </trkpt>
      <trkpt lat="50.72286" lon="2.95207">
        <ele>12.199999809265</ele>
        <time>2011-10-30T08:35:56.000Z</time>
      </trkpt>
      <trkpt lat="50.72282" lon="2.95212">
        <ele>12.39999961853</ele>
        <time>2011-10-30T08:36:02.000Z</time>
      </trkpt>
      <trkpt lat="50.72281" lon="2.9522">
        <ele>12.199999809265</ele>
        <time>2011-10-30T08:36:05.000Z</time>
      </trkpt>
      <trkpt lat="50.72283" lon="2.95235">
        <ele>12.199999809265</ele>
        <time>2011-10-30T08:36:11.000Z</time>
      </trkpt>
      <trkpt lat="50.7228" lon="2.95232">
        <ele>12.199999809265</ele>
        <time>2011-10-30T08:36:13.000Z</time>
      </trkpt>
      <trkpt lat="50.72279" lon="2.95202">
        <ele>12.39999961853</ele>
        <time>2011-10-30T08:36:20.000Z</time>
      </trkpt>
      <trkpt lat="50.72275" lon="2.95172">
        <ele>12.60000038147</ele>
        <time>2011-10-30T08:36:27.000Z</time>
      </trkpt>
      <trkpt lat="50.72271" lon="2.9514">
        <ele>13.199999809265</ele>
        <time>2011-10-30T08:36:34.000Z</time>
      </trkpt>
      <trkpt lat="50.72274" lon="2.95123">
        <ele>13.60000038147</ele>
        <time>2011-10-30T08:36:38.000Z</time>
      </trkpt>
      <trkpt lat="50.72287" lon="2.95108">
        <ele>13.60000038147</ele>
        <time>2011-10-30T08:36:43.000Z</time>
      </trkpt>
      <trkpt lat="50.72304" lon="2.95094">
        <ele>13.39999961853</ele>
        <time>2011-10-30T08:36:49.000Z</time>
      </trkpt>
      <trkpt lat="50.72315" lon="2.95086">
        <ele>13.199999809265</ele>
        <time>2011-10-30T08:36:54.000Z</time>
      </trkpt>
      <trkpt lat="50.72326" lon="2.95084">
        <ele>13</ele>
        <time>2011-10-30T08:36:58.000Z</time>
      </trkpt>
      <trkpt lat="50.72345" lon="2.95072">
        <ele>13.199999809265</ele>
        <time>2011-10-30T08:37:04.000Z</time>
      </trkpt>
      <trkpt lat="50.72359" lon="2.95057">
        <ele>13.60000038147</ele>
        <time>2011-10-30T08:37:09.000Z</time>
      </trkpt>
      <trkpt lat="50.72376" lon="2.95037">
        <ele>14</ele>
        <time>2011-10-30T08:37:15.000Z</time>
      </trkpt>
      <trkpt lat="50.72396" lon="2.95023">
        <ele>14</ele>
        <time>2011-10-30T08:37:21.000Z</time>
      </trkpt>
      <trkpt lat="50.72416" lon="2.9501">
        <ele>14</ele>
        <time>2011-10-30T08:37:27.000Z</time>
      </trkpt>
      <trkpt lat="50.72434" lon="2.94996">
        <ele>13.60000038147</ele>
        <time>2011-10-30T08:37:33.000Z</time>
      </trkpt>
      <trkpt lat="50.72436" lon="2.94994">
        <ele>13.39999961853</ele>
        <time>2011-10-30T08:37:34.000Z</time>
      </trkpt>
      <trkpt lat="50.72445" lon="2.95002">
        <ele>13.199999809265</ele>
        <time>2011-10-30T08:37:38.000Z</time>
      </trkpt>
      <trkpt lat="50.72453" lon="2.95025">
        <ele>13.199999809265</ele>
        <time>2011-10-30T08:37:45.000Z</time>
      </trkpt>
      <trkpt lat="50.72454" lon="2.95028">
        <ele>13.199999809265</ele>
        <time>2011-10-30T08:37:46.000Z</time>
      </trkpt>
      <trkpt lat="50.72449" lon="2.95035">
        <ele>13.199999809265</ele>
        <time>2011-10-30T08:37:50.000Z</time>
      </trkpt>
      <trkpt lat="50.72444" lon="2.95035">
        <ele>13.39999961853</ele>
        <time>2011-10-30T08:37:52.000Z</time>
      </trkpt>
      <trkpt lat="50.72428" lon="2.95049">
        <ele>13.800000190735</ele>
        <time>2011-10-30T08:37:58.000Z</time>
      </trkpt>
      <trkpt lat="50.72418" lon="2.9507">
        <ele>13.800000190735</ele>
        <time>2011-10-30T08:38:02.000Z</time>
      </trkpt>
      <trkpt lat="50.72407" lon="2.95085">
        <ele>13.800000190735</ele>
        <time>2011-10-30T08:38:05.000Z</time>
      </trkpt>
      <trkpt lat="50.72405" lon="2.95095">
        <ele>13.60000038147</ele>
        <time>2011-10-30T08:38:09.000Z</time>
      </trkpt>
      <trkpt lat="50.72407" lon="2.95094">
        <ele>13.60000038147</ele>
        <time>2011-10-30T08:38:10.000Z</time>
      </trkpt>
      <trkpt lat="50.72423" lon="2.95074">
        <ele>13.800000190735</ele>
        <time>2011-10-30T08:38:17.000Z</time>
      </trkpt>
      <trkpt lat="50.72435" lon="2.95053">
        <ele>13.60000038147</ele>
        <time>2011-10-30T08:38:23.000Z</time>
      </trkpt>
      <trkpt lat="50.72437" lon="2.95051">
        <ele>13.60000038147</ele>
        <time>2011-10-30T08:38:24.000Z</time>
      </trkpt>
      <trkpt lat="50.72446" lon="2.95058">
        <ele>13.39999961853</ele>
        <time>2011-10-30T08:38:28.000Z</time>
      </trkpt>
      <trkpt lat="50.72462" lon="2.95084">
        <ele>13.39999961853</ele>
        <time>2011-10-30T08:38:34.000Z</time>
      </trkpt>
      <trkpt lat="50.72473" lon="2.951">
        <ele>13.199999809265</ele>
        <time>2011-10-30T08:38:38.000Z</time>
      </trkpt>
      <trkpt lat="50.72471" lon="2.95117">
        <ele>13.39999961853</ele>
        <time>2011-10-30T08:38:42.000Z</time>
      </trkpt>
      <trkpt lat="50.72469" lon="2.95135">
        <ele>13.39999961853</ele>
        <time>2011-10-30T08:38:46.000Z</time>
      </trkpt>
      <trkpt lat="50.72471" lon="2.9514">
        <ele>13.39999961853</ele>
        <time>2011-10-30T08:38:47.000Z</time>
      </trkpt>
      <trkpt lat="50.72478" lon="2.95152">
        <ele>13.60000038147</ele>
        <time>2011-10-30T08:38:50.000Z</time>
      </trkpt>
      <trkpt lat="50.72486" lon="2.95141">
        <ele>13.60000038147</ele>
        <time>2011-10-30T08:38:54.000Z</time>
      </trkpt>
      <trkpt lat="50.72496" lon="2.95114">
        <ele>13.199999809265</ele>
        <time>2011-10-30T08:38:59.000Z</time>
      </trkpt>
      <trkpt lat="50.72509" lon="2.95098">
        <ele>13.199999809265</ele>
        <time>2011-10-30T08:39:04.000Z</time>
      </trkpt>
      <trkpt lat="50.72528" lon="2.95085">
        <ele>13.199999809265</ele>
        <time>2011-10-30T08:39:09.000Z</time>
      </trkpt>
      <trkpt lat="50.72544" lon="2.9508">
        <ele>13.39999961853</ele>
        <time>2011-10-30T08:39:13.000Z</time>
      </trkpt>
      <trkpt lat="50.72556" lon="2.95084">
        <ele>13.60000038147</ele>
        <time>2011-10-30T08:39:16.000Z</time>
      </trkpt>
      <trkpt lat="50.72575" lon="2.95095">
        <ele>14</ele>
        <time>2011-10-30T08:39:25.000Z</time>
      </trkpt>
      <trkpt lat="50.7257" lon="2.95086">
        <ele>13.800000190735</ele>
        <time>2011-10-30T08:39:29.000Z</time>
      </trkpt>
      <trkpt lat="50.72569" lon="2.95086">
        <ele>13.800000190735</ele>
        <time>2011-10-30T08:39:30.000Z</time>
      </trkpt>
      <trkpt lat="50.72555" lon="2.95081">
        <ele>13.60000038147</ele>
        <time>2011-10-30T08:39:36.000Z</time>
      </trkpt>
      <trkpt lat="50.72537" lon="2.95078">
        <ele>13.199999809265</ele>
        <time>2011-10-30T08:39:41.000Z</time>
      </trkpt>
      <trkpt lat="50.72519" lon="2.95086">
        <ele>13.199999809265</ele>
        <time>2011-10-30T08:39:46.000Z</time>
      </trkpt>
      <trkpt lat="50.72502" lon="2.95097">
        <ele>13</ele>
        <time>2011-10-30T08:39:53.000Z</time>
      </trkpt>
      <trkpt lat="50.72501" lon="2.95099">
        <ele>13</ele>
        <time>2011-10-30T08:39:54.000Z</time>
      </trkpt>
      <trkpt lat="50.72496" lon="2.95105">
        <ele>13.199999809265</ele>
        <time>2011-10-30T08:39:57.000Z</time>
      </trkpt>
      <trkpt lat="50.72495" lon="2.95105">
        <ele>13.199999809265</ele>
        <time>2011-10-30T08:40:03.000Z</time>
      </trkpt>
      <trkpt lat="50.72495" lon="2.95097">
        <ele>13</ele>
        <time>2011-10-30T08:40:07.000Z</time>
      </trkpt>
      <trkpt lat="50.72508" lon="2.95082">
        <ele>13</ele>
        <time>2011-10-30T08:40:13.000Z</time>
      </trkpt>
      <trkpt lat="50.7251" lon="2.95081">
        <ele>13</ele>
        <time>2011-10-30T08:40:14.000Z</time>
      </trkpt>
      <trkpt lat="50.72514" lon="2.95073">
        <ele>13</ele>
        <time>2011-10-30T08:40:18.000Z</time>
      </trkpt>
      <trkpt lat="50.72523" lon="2.95055">
        <ele>12.800000190735</ele>
        <time>2011-10-30T08:40:23.000Z</time>
      </trkpt>
      <trkpt lat="50.72541" lon="2.95042">
        <ele>13</ele>
        <time>2011-10-30T08:40:29.000Z</time>
      </trkpt>
      <trkpt lat="50.72556" lon="2.95024">
        <ele>12.800000190735</ele>
        <time>2011-10-30T08:40:34.000Z</time>
      </trkpt>
      <trkpt lat="50.72573" lon="2.95009">
        <ele>12.800000190735</ele>
        <time>2011-10-30T08:40:39.000Z</time>
      </trkpt>
      <trkpt lat="50.72591" lon="2.94996">
        <ele>13</ele>
        <time>2011-10-30T08:40:44.000Z</time>
      </trkpt>
      <trkpt lat="50.72604" lon="2.94978">
        <ele>13.199999809265</ele>
        <time>2011-10-30T08:40:49.000Z</time>
      </trkpt>
      <trkpt lat="50.72619" lon="2.94958">
        <ele>13.39999961853</ele>
        <time>2011-10-30T08:40:55.000Z</time>
      </trkpt>
      <trkpt lat="50.72633" lon="2.9494">
        <ele>13.199999809265</ele>
        <time>2011-10-30T08:41:01.000Z</time>
      </trkpt>
      <trkpt lat="50.72649" lon="2.94924">
        <ele>13</ele>
        <time>2011-10-30T08:41:07.000Z</time>
      </trkpt>
      <trkpt lat="50.72668" lon="2.94907">
        <ele>13</ele>
        <time>2011-10-30T08:41:13.000Z</time>
      </trkpt>
      <trkpt lat="50.72685" lon="2.94893">
        <ele>13</ele>
        <time>2011-10-30T08:41:18.000Z</time>
      </trkpt>
      <trkpt lat="50.72702" lon="2.94878">
        <ele>13</ele>
        <time>2011-10-30T08:41:23.000Z</time>
      </trkpt>
      <trkpt lat="50.72715" lon="2.94866">
        <ele>12.800000190735</ele>
        <time>2011-10-30T08:41:27.000Z</time>
      </trkpt>
      <trkpt lat="50.72722" lon="2.94873">
        <ele>12.800000190735</ele>
        <time>2011-10-30T08:41:31.000Z</time>
      </trkpt>
      <trkpt lat="50.72721" lon="2.94882">
        <ele>12.800000190735</ele>
        <time>2011-10-30T08:41:33.000Z</time>
      </trkpt>
      <trkpt lat="50.7271" lon="2.94916">
        <ele>12.800000190735</ele>
        <time>2011-10-30T08:41:40.000Z</time>
      </trkpt>
      <trkpt lat="50.72703" lon="2.94946">
        <ele>13.60000038147</ele>
        <time>2011-10-30T08:41:46.000Z</time>
      </trkpt>
      <trkpt lat="50.72696" lon="2.94978">
        <ele>14.39999961853</ele>
        <time>2011-10-30T08:41:52.000Z</time>
      </trkpt>
      <trkpt lat="50.72685" lon="2.95002">
        <ele>14.800000190735</ele>
        <time>2011-10-30T08:41:57.000Z</time>
      </trkpt>
      <trkpt lat="50.72669" lon="2.95014">
        <ele>14.800000190735</ele>
        <time>2011-10-30T08:42:02.000Z</time>
      </trkpt>
      <trkpt lat="50.72651" lon="2.95016">
        <ele>14.39999961853</ele>
        <time>2011-10-30T08:42:06.000Z</time>
      </trkpt>
      <trkpt lat="50.72647" lon="2.95015">
        <ele>14.39999961853</ele>
        <time>2011-10-30T08:42:07.000Z</time>
      </trkpt>
      <trkpt lat="50.72624" lon="2.94999">
        <ele>13.800000190735</ele>
        <time>2011-10-30T08:42:13.000Z</time>
      </trkpt>
      <trkpt lat="50.72619" lon="2.94997">
        <ele>13.800000190735</ele>
        <time>2011-10-30T08:42:14.000Z</time>
      </trkpt>
      <trkpt lat="50.7261" lon="2.94995">
        <ele>13.60000038147</ele>
        <time>2011-10-30T08:42:16.000Z</time>
      </trkpt>
      <trkpt lat="50.72594" lon="2.94998">
        <ele>13.199999809265</ele>
        <time>2011-10-30T08:42:20.000Z</time>
      </trkpt>
      <trkpt lat="50.72573" lon="2.95014">
        <ele>13</ele>
        <time>2011-10-30T08:42:25.000Z</time>
      </trkpt>
      <trkpt lat="50.72565" lon="2.9502">
        <ele>13</ele>
        <time>2011-10-30T08:42:27.000Z</time>
      </trkpt>
      <trkpt lat="50.72555" lon="2.95032">
        <ele>13</ele>
        <time>2011-10-30T08:42:30.000Z</time>
      </trkpt>
      <trkpt lat="50.72548" lon="2.95041">
        <ele>13</ele>
        <time>2011-10-30T08:42:32.000Z</time>
      </trkpt>
      <trkpt lat="50.72534" lon="2.95052">
        <ele>13</ele>
        <time>2011-10-30T08:42:36.000Z</time>
      </trkpt>
      <trkpt lat="50.7252" lon="2.95067">
        <ele>13</ele>
        <time>2011-10-30T08:42:41.000Z</time>
      </trkpt>
      <trkpt lat="50.72519" lon="2.95079">
        <ele>13</ele>
        <time>2011-10-30T08:42:45.000Z</time>
      </trkpt>
      <trkpt lat="50.72521" lon="2.95085">
        <ele>13.199999809265</ele>
        <time>2011-10-30T08:42:48.000Z</time>
      </trkpt>
      <trkpt lat="50.72523" lon="2.95087">
        <ele>13.199999809265</ele>
        <time>2011-10-30T08:42:50.000Z</time>
      </trkpt>
      <trkpt lat="50.7253" lon="2.95083">
        <ele>13.199999809265</ele>
        <time>2011-10-30T08:42:55.000Z</time>
      </trkpt>
      <trkpt lat="50.72541" lon="2.95078">
        <ele>13.39999961853</ele>
        <time>2011-10-30T08:42:59.000Z</time>
      </trkpt>
      <trkpt lat="50.72548" lon="2.95078">
        <ele>13.39999961853</ele>
        <time>2011-10-30T08:43:01.000Z</time>
      </trkpt>
      <trkpt lat="50.72569" lon="2.95086">
        <ele>13.800000190735</ele>
        <time>2011-10-30T08:43:08.000Z</time>
      </trkpt>
      <trkpt lat="50.72585" lon="2.95093">
        <ele>14.199999809265</ele>
        <time>2011-10-30T08:43:13.000Z</time>
      </trkpt>
      <trkpt lat="50.72621" lon="2.95098">
        <ele>14.199999809265</ele>
        <time>2011-10-30T08:43:23.000Z</time>
      </trkpt>
      <trkpt lat="50.72637" lon="2.95095">
        <ele>14</ele>
        <time>2011-10-30T08:43:28.000Z</time>
      </trkpt>
      <trkpt lat="50.72658" lon="2.95093">
        <ele>14</ele>
        <time>2011-10-30T08:43:33.000Z</time>
      </trkpt>
      <trkpt lat="50.72672" lon="2.95094">
        <ele>14</ele>
        <time>2011-10-30T08:43:36.000Z</time>
      </trkpt>
      <trkpt lat="50.7269" lon="2.95113">
        <ele>14.39999961853</ele>
        <time>2011-10-30T08:43:41.000Z</time>
      </trkpt>
      <trkpt lat="50.72692" lon="2.95117">
        <ele>14.39999961853</ele>
        <time>2011-10-30T08:43:42.000Z</time>
      </trkpt>
      <trkpt lat="50.72695" lon="2.95122">
        <ele>14.60000038147</ele>
        <time>2011-10-30T08:43:43.000Z</time>
      </trkpt>
      <trkpt lat="50.72708" lon="2.95127">
        <ele>14.60000038147</ele>
        <time>2011-10-30T08:43:47.000Z</time>
      </trkpt>
      <trkpt lat="50.72711" lon="2.95124">
        <ele>14.60000038147</ele>
        <time>2011-10-30T08:43:48.000Z</time>
      </trkpt>
      <trkpt lat="50.7273" lon="2.95106">
        <ele>14.800000190735</ele>
        <time>2011-10-30T08:43:53.000Z</time>
      </trkpt>
      <trkpt lat="50.72746" lon="2.9509">
        <ele>14.800000190735</ele>
        <time>2011-10-30T08:43:58.000Z</time>
      </trkpt>
      <trkpt lat="50.72752" lon="2.95084">
        <ele>15</ele>
        <time>2011-10-30T08:44:02.000Z</time>
      </trkpt>
      <trkpt lat="50.72753" lon="2.95081">
        <ele>15</ele>
        <time>2011-10-30T08:44:03.000Z</time>
      </trkpt>
      <trkpt lat="50.7275" lon="2.95064">
        <ele>14.800000190735</ele>
        <time>2011-10-30T08:44:07.000Z</time>
      </trkpt>
      <trkpt lat="50.72745" lon="2.95053">
        <ele>14.800000190735</ele>
        <time>2011-10-30T08:44:09.000Z</time>
      </trkpt>
      <trkpt lat="50.72732" lon="2.9502">
        <ele>14.800000190735</ele>
        <time>2011-10-30T08:44:14.000Z</time>
      </trkpt>
      <trkpt lat="50.72731" lon="2.95013">
        <ele>14.800000190735</ele>
        <time>2011-10-30T08:44:15.000Z</time>
      </trkpt>
      <trkpt lat="50.72733" lon="2.9499">
        <ele>14.60000038147</ele>
        <time>2011-10-30T08:44:18.000Z</time>
      </trkpt>
      <trkpt lat="50.72742" lon="2.94954">
        <ele>13.800000190735</ele>
        <time>2011-10-30T08:44:23.000Z</time>
      </trkpt>
      <trkpt lat="50.72746" lon="2.94939">
        <ele>13.39999961853</ele>
        <time>2011-10-30T08:44:25.000Z</time>
      </trkpt>
      <trkpt lat="50.7275" lon="2.94926">
        <ele>13.199999809265</ele>
        <time>2011-10-30T08:44:27.000Z</time>
      </trkpt>
      <trkpt lat="50.72759" lon="2.94889">
        <ele>12.800000190735</ele>
        <time>2011-10-30T08:44:32.000Z</time>
      </trkpt>
      <trkpt lat="50.72766" lon="2.94867">
        <ele>12.60000038147</ele>
        <time>2011-10-30T08:44:35.000Z</time>
      </trkpt>
      <trkpt lat="50.72778" lon="2.94842">
        <ele>12.60000038147</ele>
        <time>2011-10-30T08:44:39.000Z</time>
      </trkpt>
      <trkpt lat="50.72793" lon="2.94822">
        <ele>12.800000190735</ele>
        <time>2011-10-30T08:44:43.000Z</time>
      </trkpt>
      <trkpt lat="50.72796" lon="2.94817">
        <ele>12.800000190735</ele>
        <time>2011-10-30T08:44:44.000Z</time>
      </trkpt>
      <trkpt lat="50.72799" lon="2.94811">
        <ele>12.800000190735</ele>
        <time>2011-10-30T08:44:45.000Z</time>
      </trkpt>
      <trkpt lat="50.7281" lon="2.94788">
        <ele>12.60000038147</ele>
        <time>2011-10-30T08:44:49.000Z</time>
      </trkpt>
      <trkpt lat="50.72818" lon="2.94771">
        <ele>12.39999961853</ele>
        <time>2011-10-30T08:44:52.000Z</time>
      </trkpt>
      <trkpt lat="50.72838" lon="2.94751">
        <ele>12</ele>
        <time>2011-10-30T08:44:57.000Z</time>
      </trkpt>
      <trkpt lat="50.72856" lon="2.94736">
        <ele>12.199999809265</ele>
        <time>2011-10-30T08:45:01.000Z</time>
      </trkpt>
      <trkpt lat="50.72874" lon="2.9472">
        <ele>12.199999809265</ele>
        <time>2011-10-30T08:45:05.000Z</time>
      </trkpt>
      <trkpt lat="50.72892" lon="2.94705">
        <ele>12.199999809265</ele>
        <time>2011-10-30T08:45:09.000Z</time>
      </trkpt>
      <trkpt lat="50.72909" lon="2.94691">
        <ele>12.199999809265</ele>
        <time>2011-10-30T08:45:13.000Z</time>
      </trkpt>
      <trkpt lat="50.72926" lon="2.94677">
        <ele>12.199999809265</ele>
        <time>2011-10-30T08:45:17.000Z</time>
      </trkpt>
      <trkpt lat="50.72941" lon="2.94663">
        <ele>12.199999809265</ele>
        <time>2011-10-30T08:45:21.000Z</time>
      </trkpt>
      <trkpt lat="50.7296" lon="2.94647">
        <ele>12.39999961853</ele>
        <time>2011-10-30T08:45:26.000Z</time>
      </trkpt>
      <trkpt lat="50.72977" lon="2.94634">
        <ele>12.39999961853</ele>
        <time>2011-10-30T08:45:30.000Z</time>
      </trkpt>
      <trkpt lat="50.72996" lon="2.94617">
        <ele>12.39999961853</ele>
        <time>2011-10-30T08:45:35.000Z</time>
      </trkpt>
      <trkpt lat="50.73015" lon="2.946">
        <ele>12.60000038147</ele>
        <time>2011-10-30T08:45:40.000Z</time>
      </trkpt>
      <trkpt lat="50.73031" lon="2.94587">
        <ele>13</ele>
        <time>2011-10-30T08:45:44.000Z</time>
      </trkpt>
      <trkpt lat="50.7305" lon="2.94573">
        <ele>13.800000190735</ele>
        <time>2011-10-30T08:45:49.000Z</time>
      </trkpt>
      <trkpt lat="50.73054" lon="2.9457">
        <ele>14</ele>
        <time>2011-10-30T08:45:50.000Z</time>
      </trkpt>
      <trkpt lat="50.73062" lon="2.94567">
        <ele>14.199999809265</ele>
        <time>2011-10-30T08:45:52.000Z</time>
      </trkpt>
      <trkpt lat="50.73083" lon="2.9455">
        <ele>14.800000190735</ele>
        <time>2011-10-30T08:45:58.000Z</time>
      </trkpt>
      <trkpt lat="50.73103" lon="2.94542">
        <ele>14.199999809265</ele>
        <time>2011-10-30T08:46:03.000Z</time>
      </trkpt>
      <trkpt lat="50.73111" lon="2.9454">
        <ele>13.800000190735</ele>
        <time>2011-10-30T08:46:05.000Z</time>
      </trkpt>
      <trkpt lat="50.73134" lon="2.94545">
        <ele>13.199999809265</ele>
        <time>2011-10-30T08:46:11.000Z</time>
      </trkpt>
      <trkpt lat="50.73138" lon="2.94547">
        <ele>13</ele>
        <time>2011-10-30T08:46:12.000Z</time>
      </trkpt>
      <trkpt lat="50.73158" lon="2.94555">
        <ele>12.800000190735</ele>
        <time>2011-10-30T08:46:17.000Z</time>
      </trkpt>
      <trkpt lat="50.73179" lon="2.94563">
        <ele>13</ele>
        <time>2011-10-30T08:46:22.000Z</time>
      </trkpt>
      <trkpt lat="50.73211" lon="2.94566">
        <ele>13.800000190735</ele>
        <time>2011-10-30T08:46:29.000Z</time>
      </trkpt>
      <trkpt lat="50.73232" lon="2.94558">
        <ele>13.800000190735</ele>
        <time>2011-10-30T08:46:34.000Z</time>
      </trkpt>
      <trkpt lat="50.73239" lon="2.94551">
        <ele>13.60000038147</ele>
        <time>2011-10-30T08:46:36.000Z</time>
      </trkpt>
      <trkpt lat="50.73256" lon="2.94529">
        <ele>13</ele>
        <time>2011-10-30T08:46:41.000Z</time>
      </trkpt>
      <trkpt lat="50.73261" lon="2.94522">
        <ele>12.800000190735</ele>
        <time>2011-10-30T08:46:42.000Z</time>
      </trkpt>
      <trkpt lat="50.73276" lon="2.945">
        <ele>12.60000038147</ele>
        <time>2011-10-30T08:46:45.000Z</time>
      </trkpt>
      <trkpt lat="50.73282" lon="2.94493">
        <ele>12.39999961853</ele>
        <time>2011-10-30T08:46:46.000Z</time>
      </trkpt>
      <trkpt lat="50.733" lon="2.94478">
        <ele>12.39999961853</ele>
        <time>2011-10-30T08:46:49.000Z</time>
      </trkpt>
      <trkpt lat="50.73316" lon="2.94465">
        <ele>12.60000038147</ele>
        <time>2011-10-30T08:46:52.000Z</time>
      </trkpt>
      <trkpt lat="50.73338" lon="2.94448">
        <ele>12.60000038147</ele>
        <time>2011-10-30T08:46:56.000Z</time>
      </trkpt>
      <trkpt lat="50.73359" lon="2.94433">
        <ele>12.39999961853</ele>
        <time>2011-10-30T08:47:00.000Z</time>
      </trkpt>
      <trkpt lat="50.73379" lon="2.94418">
        <ele>12</ele>
        <time>2011-10-30T08:47:04.000Z</time>
      </trkpt>
      <trkpt lat="50.73383" lon="2.94415">
        <ele>11.800000190735</ele>
        <time>2011-10-30T08:47:05.000Z</time>
      </trkpt>
      <trkpt lat="50.73401" lon="2.94411">
        <ele>11.800000190735</ele>
        <time>2011-10-30T08:47:09.000Z</time>
      </trkpt>
      <trkpt lat="50.73405" lon="2.9441">
        <ele>11.800000190735</ele>
        <time>2011-10-30T08:47:10.000Z</time>
      </trkpt>
      <trkpt lat="50.73409" lon="2.94409">
        <ele>11.800000190735</ele>
        <time>2011-10-30T08:47:11.000Z</time>
      </trkpt>
      <trkpt lat="50.7342" lon="2.94404">
        <ele>11.800000190735</ele>
        <time>2011-10-30T08:47:14.000Z</time>
      </trkpt>
      <trkpt lat="50.7343" lon="2.94402">
        <ele>12.199999809265</ele>
        <time>2011-10-30T08:47:17.000Z</time>
      </trkpt>
      <trkpt lat="50.73451" lon="2.94397">
        <ele>13</ele>
        <time>2011-10-30T08:47:21.000Z</time>
      </trkpt>
      <trkpt lat="50.73465" lon="2.94388">
        <ele>13.39999961853</ele>
        <time>2011-10-30T08:47:24.000Z</time>
      </trkpt>
      <trkpt lat="50.73486" lon="2.9437">
        <ele>13.800000190735</ele>
        <time>2011-10-30T08:47:29.000Z</time>
      </trkpt>
      <trkpt lat="50.73491" lon="2.94368">
        <ele>14</ele>
        <time>2011-10-30T08:47:30.000Z</time>
      </trkpt>
      <trkpt lat="50.73507" lon="2.94371">
        <ele>14.199999809265</ele>
        <time>2011-10-30T08:47:34.000Z</time>
      </trkpt>
      <trkpt lat="50.7351" lon="2.94381">
        <ele>14.199999809265</ele>
        <time>2011-10-30T08:47:36.000Z</time>
      </trkpt>
      <trkpt lat="50.73519" lon="2.94414">
        <ele>14.60000038147</ele>
        <time>2011-10-30T08:47:43.000Z</time>
      </trkpt>
      <trkpt lat="50.73525" lon="2.9444">
        <ele>15.199999809265</ele>
        <time>2011-10-30T08:47:48.000Z</time>
      </trkpt>
      <trkpt lat="50.73533" lon="2.94467">
        <ele>16</ele>
        <time>2011-10-30T08:47:54.000Z</time>
      </trkpt>
      <trkpt lat="50.7354" lon="2.94484">
        <ele>16.39999961853</ele>
        <time>2011-10-30T08:47:59.000Z</time>
      </trkpt>
      <trkpt lat="50.73557" lon="2.9448">
        <ele>16.200000762939</ele>
        <time>2011-10-30T08:48:05.000Z</time>
      </trkpt>
      <trkpt lat="50.73575" lon="2.94471">
        <ele>15.800000190735</ele>
        <time>2011-10-30T08:48:10.000Z</time>
      </trkpt>
      <trkpt lat="50.73597" lon="2.94466">
        <ele>15.39999961853</ele>
        <time>2011-10-30T08:48:15.000Z</time>
      </trkpt>
      <trkpt lat="50.73617" lon="2.9446">
        <ele>15</ele>
        <time>2011-10-30T08:48:20.000Z</time>
      </trkpt>
      <trkpt lat="50.73636" lon="2.94451">
        <ele>14.60000038147</ele>
        <time>2011-10-30T08:48:24.000Z</time>
      </trkpt>
      <trkpt lat="50.73649" lon="2.94444">
        <ele>14.39999961853</ele>
        <time>2011-10-30T08:48:27.000Z</time>
      </trkpt>
      <trkpt lat="50.73662" lon="2.94438">
        <ele>14.199999809265</ele>
        <time>2011-10-30T08:48:30.000Z</time>
      </trkpt>
      <trkpt lat="50.73684" lon="2.94426">
        <ele>14.199999809265</ele>
        <time>2011-10-30T08:48:35.000Z</time>
      </trkpt>
      <trkpt lat="50.73701" lon="2.94414">
        <ele>14.199999809265</ele>
        <time>2011-10-30T08:48:39.000Z</time>
      </trkpt>
      <trkpt lat="50.73718" lon="2.94403">
        <ele>14.199999809265</ele>
        <time>2011-10-30T08:48:43.000Z</time>
      </trkpt>
      <trkpt lat="50.73727" lon="2.94398">
        <ele>14.199999809265</ele>
        <time>2011-10-30T08:48:45.000Z</time>
      </trkpt>
      <trkpt lat="50.73742" lon="2.94401">
        <ele>14.39999961853</ele>
        <time>2011-10-30T08:48:49.000Z</time>
      </trkpt>
      <trkpt lat="50.73743" lon="2.94412">
        <ele>14.800000190735</ele>
        <time>2011-10-30T08:48:52.000Z</time>
      </trkpt>
      <trkpt lat="50.73743" lon="2.94414">
        <ele>14.800000190735</ele>
        <time>2011-10-30T08:48:53.000Z</time>
      </trkpt>
      <trkpt lat="50.73752" lon="2.94436">
        <ele>15.199999809265</ele>
        <time>2011-10-30T08:49:00.000Z</time>
      </trkpt>
      <trkpt lat="50.7376" lon="2.94462">
        <ele>15.39999961853</ele>
        <time>2011-10-30T08:49:05.000Z</time>
      </trkpt>
      <trkpt lat="50.73769" lon="2.94491">
        <ele>15.800000190735</ele>
        <time>2011-10-30T08:49:10.000Z</time>
      </trkpt>
      <trkpt lat="50.73778" lon="2.9452">
        <ele>16.200000762939</ele>
        <time>2011-10-30T08:49:15.000Z</time>
      </trkpt>
      <trkpt lat="50.73786" lon="2.94547">
        <ele>16.799999237061</ele>
        <time>2011-10-30T08:49:20.000Z</time>
      </trkpt>
      <trkpt lat="50.73794" lon="2.94579">
        <ele>17.39999961853</ele>
        <time>2011-10-30T08:49:26.000Z</time>
      </trkpt>
      <trkpt lat="50.73801" lon="2.9461">
        <ele>17.799999237061</ele>
        <time>2011-10-30T08:49:32.000Z</time>
      </trkpt>
      <trkpt lat="50.7381" lon="2.94636">
        <ele>18</ele>
        <time>2011-10-30T08:49:37.000Z</time>
      </trkpt>
      <trkpt lat="50.73817" lon="2.94666">
        <ele>18.60000038147</ele>
        <time>2011-10-30T08:49:43.000Z</time>
      </trkpt>
      <trkpt lat="50.73823" lon="2.94693">
        <ele>18.60000038147</ele>
        <time>2011-10-30T08:49:48.000Z</time>
      </trkpt>
      <trkpt lat="50.73829" lon="2.94723">
        <ele>18.799999237061</ele>
        <time>2011-10-30T08:49:54.000Z</time>
      </trkpt>
      <trkpt lat="50.73835" lon="2.94751">
        <ele>18.799999237061</ele>
        <time>2011-10-30T08:50:00.000Z</time>
      </trkpt>
      <trkpt lat="50.73845" lon="2.94779">
        <ele>17.799999237061</ele>
        <time>2011-10-30T08:50:06.000Z</time>
      </trkpt>
      <trkpt lat="50.73858" lon="2.94809">
        <ele>16.39999961853</ele>
        <time>2011-10-30T08:50:11.000Z</time>
      </trkpt>
      <trkpt lat="50.73869" lon="2.94836">
        <ele>15.199999809265</ele>
        <time>2011-10-30T08:50:14.000Z</time>
      </trkpt>
      <trkpt lat="50.73881" lon="2.94869">
        <ele>14.60000038147</ele>
        <time>2011-10-30T08:50:17.000Z</time>
      </trkpt>
      <trkpt lat="50.73891" lon="2.94899">
        <ele>14.39999961853</ele>
        <time>2011-10-30T08:50:20.000Z</time>
      </trkpt>
      <trkpt lat="50.73901" lon="2.94924">
        <ele>14.39999961853</ele>
        <time>2011-10-30T08:50:23.000Z</time>
      </trkpt>
      <trkpt lat="50.73912" lon="2.94956">
        <ele>14.39999961853</ele>
        <time>2011-10-30T08:50:27.000Z</time>
      </trkpt>
      <trkpt lat="50.73924" lon="2.94986">
        <ele>14.800000190735</ele>
        <time>2011-10-30T08:50:31.000Z</time>
      </trkpt>
      <trkpt lat="50.73935" lon="2.95017">
        <ele>15</ele>
        <time>2011-10-30T08:50:35.000Z</time>
      </trkpt>
      <trkpt lat="50.73946" lon="2.95046">
        <ele>15</ele>
        <time>2011-10-30T08:50:39.000Z</time>
      </trkpt>
      <trkpt lat="50.73956" lon="2.95074">
        <ele>15</ele>
        <time>2011-10-30T08:50:43.000Z</time>
      </trkpt>
      <trkpt lat="50.73966" lon="2.951">
        <ele>15</ele>
        <time>2011-10-30T08:50:47.000Z</time>
      </trkpt>
      <trkpt lat="50.73977" lon="2.95124">
        <ele>15</ele>
        <time>2011-10-30T08:50:51.000Z</time>
      </trkpt>
      <trkpt lat="50.7398" lon="2.95128">
        <ele>15</ele>
        <time>2011-10-30T08:50:52.000Z</time>
      </trkpt>
      <trkpt lat="50.73992" lon="2.95131">
        <ele>15</ele>
        <time>2011-10-30T08:50:56.000Z</time>
      </trkpt>
      <trkpt lat="50.73995" lon="2.95129">
        <ele>15</ele>
        <time>2011-10-30T08:50:57.000Z</time>
      </trkpt>
      <trkpt lat="50.7401" lon="2.95111">
        <ele>14.800000190735</ele>
        <time>2011-10-30T08:51:02.000Z</time>
      </trkpt>
      <trkpt lat="50.74026" lon="2.95088">
        <ele>14.60000038147</ele>
        <time>2011-10-30T08:51:07.000Z</time>
      </trkpt>
      <trkpt lat="50.74038" lon="2.95068">
        <ele>14.60000038147</ele>
        <time>2011-10-30T08:51:11.000Z</time>
      </trkpt>
      <trkpt lat="50.74052" lon="2.95058">
        <ele>14.39999961853</ele>
        <time>2011-10-30T08:51:15.000Z</time>
      </trkpt>
      <trkpt lat="50.7406" lon="2.95068">
        <ele>14.39999961853</ele>
        <time>2011-10-30T08:51:18.000Z</time>
      </trkpt>
      <trkpt lat="50.74073" lon="2.95095">
        <ele>14.199999809265</ele>
        <time>2011-10-30T08:51:24.000Z</time>
      </trkpt>
      <trkpt lat="50.74086" lon="2.9512">
        <ele>14.39999961853</ele>
        <time>2011-10-30T08:51:29.000Z</time>
      </trkpt>
      <trkpt lat="50.74099" lon="2.95147">
        <ele>14.800000190735</ele>
        <time>2011-10-30T08:51:34.000Z</time>
      </trkpt>
      <trkpt lat="50.74107" lon="2.95163">
        <ele>14.800000190735</ele>
        <time>2011-10-30T08:51:37.000Z</time>
      </trkpt>
      <trkpt lat="50.74112" lon="2.95174">
        <ele>15</ele>
        <time>2011-10-30T08:51:39.000Z</time>
      </trkpt>
      <trkpt lat="50.74123" lon="2.95197">
        <ele>15.199999809265</ele>
        <time>2011-10-30T08:51:43.000Z</time>
      </trkpt>
      <trkpt lat="50.74134" lon="2.9522">
        <ele>15.60000038147</ele>
        <time>2011-10-30T08:51:47.000Z</time>
      </trkpt>
      <trkpt lat="50.74137" lon="2.95226">
        <ele>15.60000038147</ele>
        <time>2011-10-30T08:51:48.000Z</time>
      </trkpt>
      <trkpt lat="50.7415" lon="2.95254">
        <ele>16</ele>
        <time>2011-10-30T08:51:53.000Z</time>
      </trkpt>
      <trkpt lat="50.74161" lon="2.95277">
        <ele>16.200000762939</ele>
        <time>2011-10-30T08:51:57.000Z</time>
      </trkpt>
      <trkpt lat="50.74172" lon="2.95301">
        <ele>16.39999961853</ele>
        <time>2011-10-30T08:52:01.000Z</time>
      </trkpt>
      <trkpt lat="50.74183" lon="2.95323">
        <ele>16.60000038147</ele>
        <time>2011-10-30T08:52:05.000Z</time>
      </trkpt>
      <trkpt lat="50.74194" lon="2.95349">
        <ele>16.39999961853</ele>
        <time>2011-10-30T08:52:10.000Z</time>
      </trkpt>
      <trkpt lat="50.74196" lon="2.95354">
        <ele>16.200000762939</ele>
        <time>2011-10-30T08:52:11.000Z</time>
      </trkpt>
      <trkpt lat="50.74207" lon="2.95379">
        <ele>15.800000190735</ele>
        <time>2011-10-30T08:52:16.000Z</time>
      </trkpt>
      <trkpt lat="50.74237" lon="2.95421">
        <ele>15.800000190735</ele>
        <time>2011-10-30T08:52:26.000Z</time>
      </trkpt>
      <trkpt lat="50.74242" lon="2.95426">
        <ele>15.800000190735</ele>
        <time>2011-10-30T08:52:27.000Z</time>
      </trkpt>
      <trkpt lat="50.74252" lon="2.95438">
        <ele>16</ele>
        <time>2011-10-30T08:52:30.000Z</time>
      </trkpt>
      <trkpt lat="50.74263" lon="2.95467">
        <ele>16</ele>
        <time>2011-10-30T08:52:36.000Z</time>
      </trkpt>
      <trkpt lat="50.74259" lon="2.95481">
        <ele>16</ele>
        <time>2011-10-30T08:52:39.000Z</time>
      </trkpt>
      <trkpt lat="50.74257" lon="2.95485">
        <ele>16</ele>
        <time>2011-10-30T08:52:40.000Z</time>
      </trkpt>
      <trkpt lat="50.74242" lon="2.95505">
        <ele>16</ele>
        <time>2011-10-30T08:52:47.000Z</time>
      </trkpt>
      <trkpt lat="50.74236" lon="2.95516">
        <ele>16</ele>
        <time>2011-10-30T08:52:51.000Z</time>
      </trkpt>
      <trkpt lat="50.74236" lon="2.95517">
        <ele>16</ele>
        <time>2011-10-30T08:52:57.000Z</time>
      </trkpt>
      <trkpt lat="50.74236" lon="2.95516">
        <ele>16</ele>
        <time>2011-10-30T08:53:15.000Z</time>
      </trkpt>
      <trkpt lat="50.74236" lon="2.95517">
        <ele>16</ele>
        <time>2011-10-30T08:53:26.000Z</time>
      </trkpt>
      <trkpt lat="50.74236" lon="2.95522">
        <ele>16</ele>
        <time>2011-10-30T08:53:36.000Z</time>
      </trkpt>
      <trkpt lat="50.74251" lon="2.95526">
        <ele>16</ele>
        <time>2011-10-30T08:53:40.000Z</time>
      </trkpt>
      <trkpt lat="50.74256" lon="2.95526">
        <ele>16</ele>
        <time>2011-10-30T08:53:41.000Z</time>
      </trkpt>
      <trkpt lat="50.74282" lon="2.95526">
        <ele>16</ele>
        <time>2011-10-30T08:53:47.000Z</time>
      </trkpt>
      <trkpt lat="50.74285" lon="2.95526">
        <ele>16</ele>
        <time>2011-10-30T08:53:48.000Z</time>
      </trkpt>
      <trkpt lat="50.74306" lon="2.95533">
        <ele>16</ele>
        <time>2011-10-30T08:53:55.000Z</time>
      </trkpt>
      <trkpt lat="50.74324" lon="2.95538">
        <ele>16</ele>
        <time>2011-10-30T08:54:00.000Z</time>
      </trkpt>
      <trkpt lat="50.74342" lon="2.95532">
        <ele>15.60000038147</ele>
        <time>2011-10-30T08:54:05.000Z</time>
      </trkpt>
      <trkpt lat="50.74358" lon="2.95517">
        <ele>15.39999961853</ele>
        <time>2011-10-30T08:54:10.000Z</time>
      </trkpt>
      <trkpt lat="50.74375" lon="2.95499">
        <ele>15</ele>
        <time>2011-10-30T08:54:16.000Z</time>
      </trkpt>
      <trkpt lat="50.74392" lon="2.95479">
        <ele>14.800000190735</ele>
        <time>2011-10-30T08:54:22.000Z</time>
      </trkpt>
      <trkpt lat="50.74407" lon="2.95462">
        <ele>15</ele>
        <time>2011-10-30T08:54:27.000Z</time>
      </trkpt>
      <trkpt lat="50.74422" lon="2.95445">
        <ele>15.199999809265</ele>
        <time>2011-10-30T08:54:32.000Z</time>
      </trkpt>
      <trkpt lat="50.74437" lon="2.95428">
        <ele>15.39999961853</ele>
        <time>2011-10-30T08:54:37.000Z</time>
      </trkpt>
      <trkpt lat="50.74453" lon="2.95409">
        <ele>15.39999961853</ele>
        <time>2011-10-30T08:54:42.000Z</time>
      </trkpt>
      <trkpt lat="50.74467" lon="2.95389">
        <ele>14.800000190735</ele>
        <time>2011-10-30T08:54:47.000Z</time>
      </trkpt>
      <trkpt lat="50.74485" lon="2.95377">
        <ele>14.60000038147</ele>
        <time>2011-10-30T08:54:52.000Z</time>
      </trkpt>
      <trkpt lat="50.74506" lon="2.95367">
        <ele>14.199999809265</ele>
        <time>2011-10-30T08:54:57.000Z</time>
      </trkpt>
      <trkpt lat="50.74526" lon="2.9536">
        <ele>14.199999809265</ele>
        <time>2011-10-30T08:55:02.000Z</time>
      </trkpt>
      <trkpt lat="50.74547" lon="2.95355">
        <ele>14</ele>
        <time>2011-10-30T08:55:07.000Z</time>
      </trkpt>
      <trkpt lat="50.74569" lon="2.95347">
        <ele>14</ele>
        <time>2011-10-30T08:55:12.000Z</time>
      </trkpt>
      <trkpt lat="50.74588" lon="2.9534">
        <ele>13.800000190735</ele>
        <time>2011-10-30T08:55:16.000Z</time>
      </trkpt>
      <trkpt lat="50.74607" lon="2.95333">
        <ele>14</ele>
        <time>2011-10-30T08:55:20.000Z</time>
      </trkpt>
      <trkpt lat="50.74628" lon="2.95324">
        <ele>14.199999809265</ele>
        <time>2011-10-30T08:55:24.000Z</time>
      </trkpt>
      <trkpt lat="50.74655" lon="2.95314">
        <ele>14.39999961853</ele>
        <time>2011-10-30T08:55:29.000Z</time>
      </trkpt>
      <trkpt lat="50.74678" lon="2.95306">
        <ele>14.39999961853</ele>
        <time>2011-10-30T08:55:33.000Z</time>
      </trkpt>
      <trkpt lat="50.747" lon="2.95298">
        <ele>14.39999961853</ele>
        <time>2011-10-30T08:55:37.000Z</time>
      </trkpt>
      <trkpt lat="50.74723" lon="2.95292">
        <ele>14.199999809265</ele>
        <time>2011-10-30T08:55:41.000Z</time>
      </trkpt>
      <trkpt lat="50.74746" lon="2.95284">
        <ele>14</ele>
        <time>2011-10-30T08:55:45.000Z</time>
      </trkpt>
      <trkpt lat="50.74769" lon="2.95276">
        <ele>13.60000038147</ele>
        <time>2011-10-30T08:55:49.000Z</time>
      </trkpt>
      <trkpt lat="50.74791" lon="2.95269">
        <ele>13.39999961853</ele>
        <time>2011-10-30T08:55:53.000Z</time>
      </trkpt>
      <trkpt lat="50.74797" lon="2.95267">
        <ele>13.39999961853</ele>
        <time>2011-10-30T08:55:54.000Z</time>
      </trkpt>
      <trkpt lat="50.74813" lon="2.95264">
        <ele>13.199999809265</ele>
        <time>2011-10-30T08:55:57.000Z</time>
      </trkpt>
      <trkpt lat="50.74835" lon="2.95264">
        <ele>12.800000190735</ele>
        <time>2011-10-30T08:56:01.000Z</time>
      </trkpt>
      <trkpt lat="50.74857" lon="2.95266">
        <ele>12.60000038147</ele>
        <time>2011-10-30T08:56:06.000Z</time>
      </trkpt>
      <trkpt lat="50.74873" lon="2.95267">
        <ele>12.60000038147</ele>
        <time>2011-10-30T08:56:12.000Z</time>
      </trkpt>
      <trkpt lat="50.74889" lon="2.95266">
        <ele>12.39999961853</ele>
        <time>2011-10-30T08:56:18.000Z</time>
      </trkpt>
      <trkpt lat="50.74907" lon="2.95263">
        <ele>12.199999809265</ele>
        <time>2011-10-30T08:56:24.000Z</time>
      </trkpt>
      <trkpt lat="50.74925" lon="2.95257">
        <ele>12</ele>
        <time>2011-10-30T08:56:30.000Z</time>
      </trkpt>
      <trkpt lat="50.74942" lon="2.95248">
        <ele>12.199999809265</ele>
        <time>2011-10-30T08:56:36.000Z</time>
      </trkpt>
      <trkpt lat="50.74961" lon="2.95236">
        <ele>12.39999961853</ele>
        <time>2011-10-30T08:56:43.000Z</time>
      </trkpt>
      <trkpt lat="50.74978" lon="2.95225">
        <ele>12.39999961853</ele>
        <time>2011-10-30T08:56:49.000Z</time>
      </trkpt>
      <trkpt lat="50.74997" lon="2.95214">
        <ele>12.39999961853</ele>
        <time>2011-10-30T08:56:56.000Z</time>
      </trkpt>
      <trkpt lat="50.75012" lon="2.95205">
        <ele>12.39999961853</ele>
        <time>2011-10-30T08:57:01.000Z</time>
      </trkpt>
      <trkpt lat="50.75031" lon="2.95194">
        <ele>12.39999961853</ele>
        <time>2011-10-30T08:57:06.000Z</time>
      </trkpt>
      <trkpt lat="50.75052" lon="2.95181">
        <ele>12.60000038147</ele>
        <time>2011-10-30T08:57:11.000Z</time>
      </trkpt>
      <trkpt lat="50.75071" lon="2.95167">
        <ele>12.800000190735</ele>
        <time>2011-10-30T08:57:15.000Z</time>
      </trkpt>
      <trkpt lat="50.75087" lon="2.95152">
        <ele>13</ele>
        <time>2011-10-30T08:57:18.000Z</time>
      </trkpt>
      <trkpt lat="50.75103" lon="2.95133">
        <ele>13</ele>
        <time>2011-10-30T08:57:21.000Z</time>
      </trkpt>
      <trkpt lat="50.75117" lon="2.95113">
        <ele>13.199999809265</ele>
        <time>2011-10-30T08:57:24.000Z</time>
      </trkpt>
      <trkpt lat="50.75134" lon="2.95089">
        <ele>13.800000190735</ele>
        <time>2011-10-30T08:57:28.000Z</time>
      </trkpt>
      <trkpt lat="50.75149" lon="2.95067">
        <ele>14.199999809265</ele>
        <time>2011-10-30T08:57:32.000Z</time>
      </trkpt>
      <trkpt lat="50.75163" lon="2.95047">
        <ele>14.800000190735</ele>
        <time>2011-10-30T08:57:36.000Z</time>
      </trkpt>
      <trkpt lat="50.75177" lon="2.95024">
        <ele>16</ele>
        <time>2011-10-30T08:57:41.000Z</time>
      </trkpt>
      <trkpt lat="50.7518" lon="2.9502">
        <ele>16.200000762939</ele>
        <time>2011-10-30T08:57:42.000Z</time>
      </trkpt>
      <trkpt lat="50.75191" lon="2.94999">
        <ele>17</ele>
        <time>2011-10-30T08:57:47.000Z</time>
      </trkpt>
      <trkpt lat="50.75186" lon="2.94986">
        <ele>17</ele>
        <time>2011-10-30T08:57:50.000Z</time>
      </trkpt>
      <trkpt lat="50.75183" lon="2.94982">
        <ele>17</ele>
        <time>2011-10-30T08:57:51.000Z</time>
      </trkpt>
      <trkpt lat="50.75167" lon="2.94961">
        <ele>16.799999237061</ele>
        <time>2011-10-30T08:57:56.000Z</time>
      </trkpt>
      <trkpt lat="50.7515" lon="2.94937">
        <ele>16.39999961853</ele>
        <time>2011-10-30T08:58:01.000Z</time>
      </trkpt>
      <trkpt lat="50.75142" lon="2.94927">
        <ele>16</ele>
        <time>2011-10-30T08:58:03.000Z</time>
      </trkpt>
      <trkpt lat="50.75123" lon="2.94921">
        <ele>14.800000190735</ele>
        <time>2011-10-30T08:58:07.000Z</time>
      </trkpt>
      <trkpt lat="50.75119" lon="2.94921">
        <ele>14.39999961853</ele>
        <time>2011-10-30T08:58:08.000Z</time>
      </trkpt>
      <trkpt lat="50.75109" lon="2.94919">
        <ele>13.800000190735</ele>
        <time>2011-10-30T08:58:10.000Z</time>
      </trkpt>
      <trkpt lat="50.751" lon="2.94917">
        <ele>13.199999809265</ele>
        <time>2011-10-30T08:58:12.000Z</time>
      </trkpt>
      <trkpt lat="50.75084" lon="2.94908">
        <ele>12.199999809265</ele>
        <time>2011-10-30T08:58:16.000Z</time>
      </trkpt>
      <trkpt lat="50.75063" lon="2.94885">
        <ele>13.199999809265</ele>
        <time>2011-10-30T08:58:22.000Z</time>
      </trkpt>
      <trkpt lat="50.75045" lon="2.94867">
        <ele>13.60000038147</ele>
        <time>2011-10-30T08:58:27.000Z</time>
      </trkpt>
      <trkpt lat="50.75029" lon="2.9485">
        <ele>13.60000038147</ele>
        <time>2011-10-30T08:58:31.000Z</time>
      </trkpt>
      <trkpt lat="50.75014" lon="2.94835">
        <ele>13.199999809265</ele>
        <time>2011-10-30T08:58:35.000Z</time>
      </trkpt>
      <trkpt lat="50.74995" lon="2.94817">
        <ele>12.800000190735</ele>
        <time>2011-10-30T08:58:40.000Z</time>
      </trkpt>
      <trkpt lat="50.74976" lon="2.94798">
        <ele>12</ele>
        <time>2011-10-30T08:58:45.000Z</time>
      </trkpt>
      <trkpt lat="50.7496" lon="2.94782">
        <ele>11.39999961853</ele>
        <time>2011-10-30T08:58:49.000Z</time>
      </trkpt>
      <trkpt lat="50.74947" lon="2.94768">
        <ele>11</ele>
        <time>2011-10-30T08:58:52.000Z</time>
      </trkpt>
      <trkpt lat="50.74932" lon="2.94739">
        <ele>11.199999809265</ele>
        <time>2011-10-30T08:58:57.000Z</time>
      </trkpt>
      <trkpt lat="50.74923" lon="2.94712">
        <ele>12.800000190735</ele>
        <time>2011-10-30T08:59:01.000Z</time>
      </trkpt>
      <trkpt lat="50.74914" lon="2.94686">
        <ele>14.39999961853</ele>
        <time>2011-10-30T08:59:05.000Z</time>
      </trkpt>
      <trkpt lat="50.74905" lon="2.9466">
        <ele>15.39999961853</ele>
        <time>2011-10-30T08:59:09.000Z</time>
      </trkpt>
      <trkpt lat="50.74895" lon="2.94635">
        <ele>15.199999809265</ele>
        <time>2011-10-30T08:59:13.000Z</time>
      </trkpt>
      <trkpt lat="50.74885" lon="2.94607">
        <ele>15.199999809265</ele>
        <time>2011-10-30T08:59:18.000Z</time>
      </trkpt>
      <trkpt lat="50.74875" lon="2.9458">
        <ele>15</ele>
        <time>2011-10-30T08:59:23.000Z</time>
      </trkpt>
      <trkpt lat="50.74873" lon="2.94575">
        <ele>14.800000190735</ele>
        <time>2011-10-30T08:59:24.000Z</time>
      </trkpt>
      <trkpt lat="50.74866" lon="2.94558">
        <ele>14.39999961853</ele>
        <time>2011-10-30T08:59:27.000Z</time>
      </trkpt>
      <trkpt lat="50.74862" lon="2.94547">
        <ele>14.39999961853</ele>
        <time>2011-10-30T08:59:29.000Z</time>
      </trkpt>
      <trkpt lat="50.74849" lon="2.94519">
        <ele>14.199999809265</ele>
        <time>2011-10-30T08:59:34.000Z</time>
      </trkpt>
      <trkpt lat="50.74838" lon="2.94496">
        <ele>14.199999809265</ele>
        <time>2011-10-30T08:59:38.000Z</time>
      </trkpt>
      <trkpt lat="50.74827" lon="2.94474">
        <ele>14.199999809265</ele>
        <time>2011-10-30T08:59:42.000Z</time>
      </trkpt>
      <trkpt lat="50.74813" lon="2.94447">
        <ele>14.199999809265</ele>
        <time>2011-10-30T08:59:47.000Z</time>
      </trkpt>
      <trkpt lat="50.74798" lon="2.94421">
        <ele>13.800000190735</ele>
        <time>2011-10-30T08:59:52.000Z</time>
      </trkpt>
      <trkpt lat="50.74784" lon="2.94395">
        <ele>13.39999961853</ele>
        <time>2011-10-30T08:59:57.000Z</time>
      </trkpt>
      <trkpt lat="50.7477" lon="2.9437">
        <ele>13.199999809265</ele>
        <time>2011-10-30T09:00:02.000Z</time>
      </trkpt>
      <trkpt lat="50.74756" lon="2.94345">
        <ele>13</ele>
        <time>2011-10-30T09:00:07.000Z</time>
      </trkpt>
      <trkpt lat="50.74741" lon="2.94321">
        <ele>13</ele>
        <time>2011-10-30T09:00:12.000Z</time>
      </trkpt>
      <trkpt lat="50.74725" lon="2.94297">
        <ele>13</ele>
        <time>2011-10-30T09:00:17.000Z</time>
      </trkpt>
      <trkpt lat="50.74709" lon="2.94273">
        <ele>12.800000190735</ele>
        <time>2011-10-30T09:00:22.000Z</time>
      </trkpt>
      <trkpt lat="50.74693" lon="2.9425">
        <ele>12.60000038147</ele>
        <time>2011-10-30T09:00:27.000Z</time>
      </trkpt>
      <trkpt lat="50.74683" lon="2.94236">
        <ele>13</ele>
        <time>2011-10-30T09:00:30.000Z</time>
      </trkpt>
      <trkpt lat="50.74679" lon="2.94228">
        <ele>13.199999809265</ele>
        <time>2011-10-30T09:00:33.000Z</time>
      </trkpt>
      <trkpt lat="50.74676" lon="2.94226">
        <ele>13.199999809265</ele>
        <time>2011-10-30T09:00:35.000Z</time>
      </trkpt>
      <trkpt lat="50.7468" lon="2.94234">
        <ele>13</ele>
        <time>2011-10-30T09:00:40.000Z</time>
      </trkpt>
      <trkpt lat="50.74684" lon="2.9424">
        <ele>12.800000190735</ele>
        <time>2011-10-30T09:00:43.000Z</time>
      </trkpt>
      <trkpt lat="50.74695" lon="2.94231">
        <ele>13.39999961853</ele>
        <time>2011-10-30T09:00:49.000Z</time>
      </trkpt>
      <trkpt lat="50.74703" lon="2.94219">
        <ele>14.199999809265</ele>
        <time>2011-10-30T09:00:54.000Z</time>
      </trkpt>
      <trkpt lat="50.74705" lon="2.94199">
        <ele>15.199999809265</ele>
        <time>2011-10-30T09:00:59.000Z</time>
      </trkpt>
      <trkpt lat="50.74705" lon="2.94168">
        <ele>16.799999237061</ele>
        <time>2011-10-30T09:01:06.000Z</time>
      </trkpt>
      <trkpt lat="50.74705" lon="2.94138">
        <ele>17.60000038147</ele>
        <time>2011-10-30T09:01:13.000Z</time>
      </trkpt>
      <trkpt lat="50.74713" lon="2.94122">
        <ele>18</ele>
        <time>2011-10-30T09:01:17.000Z</time>
      </trkpt>
      <trkpt lat="50.74726" lon="2.94102">
        <ele>18.799999237061</ele>
        <time>2011-10-30T09:01:23.000Z</time>
      </trkpt>
      <trkpt lat="50.74739" lon="2.9408">
        <ele>19.60000038147</ele>
        <time>2011-10-30T09:01:30.000Z</time>
      </trkpt>
      <trkpt lat="50.74754" lon="2.94058">
        <ele>19.60000038147</ele>
        <time>2011-10-30T09:01:37.000Z</time>
      </trkpt>
      <trkpt lat="50.74769" lon="2.94036">
        <ele>19.60000038147</ele>
        <time>2011-10-30T09:01:43.000Z</time>
      </trkpt>
      <trkpt lat="50.74784" lon="2.94013">
        <ele>19.799999237061</ele>
        <time>2011-10-30T09:01:49.000Z</time>
      </trkpt>
      <trkpt lat="50.74799" lon="2.93991">
        <ele>20</ele>
        <time>2011-10-30T09:01:55.000Z</time>
      </trkpt>
      <trkpt lat="50.74815" lon="2.93968">
        <ele>19.799999237061</ele>
        <time>2011-10-30T09:02:01.000Z</time>
      </trkpt>
      <trkpt lat="50.74825" lon="2.93965">
        <ele>20</ele>
        <time>2011-10-30T09:02:05.000Z</time>
      </trkpt>
      <trkpt lat="50.74842" lon="2.9398">
        <ele>20.39999961853</ele>
        <time>2011-10-30T09:02:11.000Z</time>
      </trkpt>
      <trkpt lat="50.74859" lon="2.93997">
        <ele>20.799999237061</ele>
        <time>2011-10-30T09:02:16.000Z</time>
      </trkpt>
      <trkpt lat="50.74876" lon="2.94016">
        <ele>21</ele>
        <time>2011-10-30T09:02:21.000Z</time>
      </trkpt>
      <trkpt lat="50.74892" lon="2.94031">
        <ele>21.200000762939</ele>
        <time>2011-10-30T09:02:25.000Z</time>
      </trkpt>
      <trkpt lat="50.74905" lon="2.94048">
        <ele>21.39999961853</ele>
        <time>2011-10-30T09:02:29.000Z</time>
      </trkpt>
      <trkpt lat="50.74913" lon="2.94062">
        <ele>21.60000038147</ele>
        <time>2011-10-30T09:02:32.000Z</time>
      </trkpt>
      <trkpt lat="50.74929" lon="2.94088">
        <ele>21.799999237061</ele>
        <time>2011-10-30T09:02:38.000Z</time>
      </trkpt>
      <trkpt lat="50.74931" lon="2.94092">
        <ele>21.60000038147</ele>
        <time>2011-10-30T09:02:39.000Z</time>
      </trkpt>
      <trkpt lat="50.74944" lon="2.94089">
        <ele>21.60000038147</ele>
        <time>2011-10-30T09:02:43.000Z</time>
      </trkpt>
      <trkpt lat="50.74947" lon="2.94085">
        <ele>21.60000038147</ele>
        <time>2011-10-30T09:02:44.000Z</time>
      </trkpt>
      <trkpt lat="50.74966" lon="2.94056">
        <ele>21.200000762939</ele>
        <time>2011-10-30T09:02:50.000Z</time>
      </trkpt>
      <trkpt lat="50.74979" lon="2.94037">
        <ele>21</ele>
        <time>2011-10-30T09:02:54.000Z</time>
      </trkpt>
      <trkpt lat="50.74993" lon="2.94019">
        <ele>21</ele>
        <time>2011-10-30T09:02:58.000Z</time>
      </trkpt>
      <trkpt lat="50.75007" lon="2.94">
        <ele>20.799999237061</ele>
        <time>2011-10-30T09:03:02.000Z</time>
      </trkpt>
      <trkpt lat="50.7502" lon="2.93981">
        <ele>20.60000038147</ele>
        <time>2011-10-30T09:03:06.000Z</time>
      </trkpt>
      <trkpt lat="50.75034" lon="2.93961">
        <ele>20.39999961853</ele>
        <time>2011-10-30T09:03:10.000Z</time>
      </trkpt>
      <trkpt lat="50.7505" lon="2.93936">
        <ele>19.799999237061</ele>
        <time>2011-10-30T09:03:15.000Z</time>
      </trkpt>
      <trkpt lat="50.75072" lon="2.93872">
        <ele>19.60000038147</ele>
        <time>2011-10-30T09:03:26.000Z</time>
      </trkpt>
      <trkpt lat="50.75076" lon="2.93843">
        <ele>19.799999237061</ele>
        <time>2011-10-30T09:03:32.000Z</time>
      </trkpt>
      <trkpt lat="50.75077" lon="2.9384">
        <ele>19.799999237061</ele>
        <time>2011-10-30T09:03:33.000Z</time>
      </trkpt>
      <trkpt lat="50.75083" lon="2.9384">
        <ele>19.799999237061</ele>
        <time>2011-10-30T09:03:36.000Z</time>
      </trkpt>
      <trkpt lat="50.75085" lon="2.93844">
        <ele>19.799999237061</ele>
        <time>2011-10-30T09:03:37.000Z</time>
      </trkpt>
      <trkpt lat="50.75097" lon="2.93856">
        <ele>19.60000038147</ele>
        <time>2011-10-30T09:03:41.000Z</time>
      </trkpt>
      <trkpt lat="50.75112" lon="2.93876">
        <ele>19.200000762939</ele>
        <time>2011-10-30T09:03:46.000Z</time>
      </trkpt>
      <trkpt lat="50.75129" lon="2.93897">
        <ele>19</ele>
        <time>2011-10-30T09:03:51.000Z</time>
      </trkpt>
      <trkpt lat="50.75146" lon="2.93919">
        <ele>19</ele>
        <time>2011-10-30T09:03:56.000Z</time>
      </trkpt>
      <trkpt lat="50.75163" lon="2.93941">
        <ele>19</ele>
        <time>2011-10-30T09:04:01.000Z</time>
      </trkpt>
      <trkpt lat="50.75177" lon="2.93959">
        <ele>18.60000038147</ele>
        <time>2011-10-30T09:04:05.000Z</time>
      </trkpt>
      <trkpt lat="50.7519" lon="2.93979">
        <ele>18.39999961853</ele>
        <time>2011-10-30T09:04:09.000Z</time>
      </trkpt>
      <trkpt lat="50.75203" lon="2.94">
        <ele>18</ele>
        <time>2011-10-30T09:04:13.000Z</time>
      </trkpt>
      <trkpt lat="50.75216" lon="2.94021">
        <ele>17.200000762939</ele>
        <time>2011-10-30T09:04:17.000Z</time>
      </trkpt>
      <trkpt lat="50.75229" lon="2.94044">
        <ele>16.39999961853</ele>
        <time>2011-10-30T09:04:21.000Z</time>
      </trkpt>
      <trkpt lat="50.75242" lon="2.94068">
        <ele>15.39999961853</ele>
        <time>2011-10-30T09:04:25.000Z</time>
      </trkpt>
      <trkpt lat="50.75255" lon="2.94093">
        <ele>14.60000038147</ele>
        <time>2011-10-30T09:04:29.000Z</time>
      </trkpt>
      <trkpt lat="50.75267" lon="2.94116">
        <ele>14.199999809265</ele>
        <time>2011-10-30T09:04:33.000Z</time>
      </trkpt>
      <trkpt lat="50.75278" lon="2.9414">
        <ele>14</ele>
        <time>2011-10-30T09:04:37.000Z</time>
      </trkpt>
      <trkpt lat="50.75289" lon="2.94165">
        <ele>14</ele>
        <time>2011-10-30T09:04:41.000Z</time>
      </trkpt>
      <trkpt lat="50.75301" lon="2.94191">
        <ele>14.39999961853</ele>
        <time>2011-10-30T09:04:45.000Z</time>
      </trkpt>
      <trkpt lat="50.75313" lon="2.94217">
        <ele>15</ele>
        <time>2011-10-30T09:04:49.000Z</time>
      </trkpt>
      <trkpt lat="50.75324" lon="2.94244">
        <ele>15.60000038147</ele>
        <time>2011-10-30T09:04:53.000Z</time>
      </trkpt>
      <trkpt lat="50.75335" lon="2.9427">
        <ele>16</ele>
        <time>2011-10-30T09:04:57.000Z</time>
      </trkpt>
      <trkpt lat="50.75345" lon="2.94297">
        <ele>16.39999961853</ele>
        <time>2011-10-30T09:05:01.000Z</time>
      </trkpt>
      <trkpt lat="50.75355" lon="2.94323">
        <ele>17</ele>
        <time>2011-10-30T09:05:05.000Z</time>
      </trkpt>
      <trkpt lat="50.75364" lon="2.94349">
        <ele>17.39999961853</ele>
        <time>2011-10-30T09:05:09.000Z</time>
      </trkpt>
      <trkpt lat="50.75373" lon="2.94376">
        <ele>17.799999237061</ele>
        <time>2011-10-30T09:05:13.000Z</time>
      </trkpt>
      <trkpt lat="50.75381" lon="2.94402">
        <ele>18</ele>
        <time>2011-10-30T09:05:17.000Z</time>
      </trkpt>
      <trkpt lat="50.75383" lon="2.9441">
        <ele>18.200000762939</ele>
        <time>2011-10-30T09:05:18.000Z</time>
      </trkpt>
      <trkpt lat="50.75394" lon="2.9443">
        <ele>18.39999961853</ele>
        <time>2011-10-30T09:05:23.000Z</time>
      </trkpt>
      <trkpt lat="50.75396" lon="2.9443">
        <ele>18.39999961853</ele>
        <time>2011-10-30T09:05:24.000Z</time>
      </trkpt>
      <trkpt lat="50.75397" lon="2.94425">
        <ele>18.39999961853</ele>
        <time>2011-10-30T09:05:25.000Z</time>
      </trkpt>
      <trkpt lat="50.75404" lon="2.94406">
        <ele>18.60000038147</ele>
        <time>2011-10-30T09:05:29.000Z</time>
      </trkpt>
      <trkpt lat="50.75416" lon="2.94372">
        <ele>19.39999961853</ele>
        <time>2011-10-30T09:05:35.000Z</time>
      </trkpt>
      <trkpt lat="50.75427" lon="2.94344">
        <ele>20</ele>
        <time>2011-10-30T09:05:40.000Z</time>
      </trkpt>
      <trkpt lat="50.75434" lon="2.94327">
        <ele>20</ele>
        <time>2011-10-30T09:05:43.000Z</time>
      </trkpt>
      <trkpt lat="50.75447" lon="2.94297">
        <ele>20.200000762939</ele>
        <time>2011-10-30T09:05:49.000Z</time>
      </trkpt>
      <trkpt lat="50.75457" lon="2.94279">
        <ele>20</ele>
        <time>2011-10-30T09:05:53.000Z</time>
      </trkpt>
      <trkpt lat="50.7547" lon="2.94261">
        <ele>20</ele>
        <time>2011-10-30T09:05:57.000Z</time>
      </trkpt>
      <trkpt lat="50.75484" lon="2.94236">
        <ele>19.799999237061</ele>
        <time>2011-10-30T09:06:02.000Z</time>
      </trkpt>
      <trkpt lat="50.75498" lon="2.94211">
        <ele>19.799999237061</ele>
        <time>2011-10-30T09:06:07.000Z</time>
      </trkpt>
      <trkpt lat="50.75511" lon="2.94184">
        <ele>19.799999237061</ele>
        <time>2011-10-30T09:06:12.000Z</time>
      </trkpt>
      <trkpt lat="50.75522" lon="2.94156">
        <ele>19.39999961853</ele>
        <time>2011-10-30T09:06:17.000Z</time>
      </trkpt>
      <trkpt lat="50.75532" lon="2.94131">
        <ele>19</ele>
        <time>2011-10-30T09:06:21.000Z</time>
      </trkpt>
      <trkpt lat="50.75544" lon="2.94102">
        <ele>18.200000762939</ele>
        <time>2011-10-30T09:06:26.000Z</time>
      </trkpt>
      <trkpt lat="50.7555" lon="2.94062">
        <ele>17.799999237061</ele>
        <time>2011-10-30T09:06:33.000Z</time>
      </trkpt>
      <trkpt lat="50.75544" lon="2.94054">
        <ele>18</ele>
        <time>2011-10-30T09:06:35.000Z</time>
      </trkpt>
      <trkpt lat="50.75521" lon="2.94033">
        <ele>18.60000038147</ele>
        <time>2011-10-30T09:06:41.000Z</time>
      </trkpt>
      <trkpt lat="50.75501" lon="2.94018">
        <ele>18.799999237061</ele>
        <time>2011-10-30T09:06:45.000Z</time>
      </trkpt>
      <trkpt lat="50.75484" lon="2.94005">
        <ele>18.39999961853</ele>
        <time>2011-10-30T09:06:48.000Z</time>
      </trkpt>
      <trkpt lat="50.75466" lon="2.93991">
        <ele>18.200000762939</ele>
        <time>2011-10-30T09:06:51.000Z</time>
      </trkpt>
      <trkpt lat="50.75455" lon="2.93982">
        <ele>18.200000762939</ele>
        <time>2011-10-30T09:06:53.000Z</time>
      </trkpt>
      <trkpt lat="50.75446" lon="2.93962">
        <ele>18.39999961853</ele>
        <time>2011-10-30T09:06:56.000Z</time>
      </trkpt>
      <trkpt lat="50.75447" lon="2.93955">
        <ele>18.60000038147</ele>
        <time>2011-10-30T09:06:57.000Z</time>
      </trkpt>
      <trkpt lat="50.75475" lon="2.93917">
        <ele>19.200000762939</ele>
        <time>2011-10-30T09:07:08.000Z</time>
      </trkpt>
      <trkpt lat="50.75478" lon="2.93919">
        <ele>19.200000762939</ele>
        <time>2011-10-30T09:07:09.000Z</time>
      </trkpt>
      <trkpt lat="50.75496" lon="2.93934">
        <ele>19</ele>
        <time>2011-10-30T09:07:14.000Z</time>
      </trkpt>
      <trkpt lat="50.75508" lon="2.93947">
        <ele>18.799999237061</ele>
        <time>2011-10-30T09:07:18.000Z</time>
      </trkpt>
      <trkpt lat="50.75527" lon="2.93967">
        <ele>18.799999237061</ele>
        <time>2011-10-30T09:07:25.000Z</time>
      </trkpt>
      <trkpt lat="50.75544" lon="2.93984">
        <ele>18.39999961853</ele>
        <time>2011-10-30T09:07:31.000Z</time>
      </trkpt>
      <trkpt lat="50.75559" lon="2.93998">
        <ele>18.200000762939</ele>
        <time>2011-10-30T09:07:37.000Z</time>
      </trkpt>
      <trkpt lat="50.75568" lon="2.94004">
        <ele>18</ele>
        <time>2011-10-30T09:07:40.000Z</time>
      </trkpt>
      <trkpt lat="50.75577" lon="2.93994">
        <ele>18</ele>
        <time>2011-10-30T09:07:44.000Z</time>
      </trkpt>
      <trkpt lat="50.75579" lon="2.93989">
        <ele>18</ele>
        <time>2011-10-30T09:07:45.000Z</time>
      </trkpt>
      <trkpt lat="50.75588" lon="2.93963">
        <ele>18.200000762939</ele>
        <time>2011-10-30T09:07:50.000Z</time>
      </trkpt>
      <trkpt lat="50.75599" lon="2.93934">
        <ele>18.39999961853</ele>
        <time>2011-10-30T09:07:55.000Z</time>
      </trkpt>
      <trkpt lat="50.7561" lon="2.93903">
        <ele>18.200000762939</ele>
        <time>2011-10-30T09:08:00.000Z</time>
      </trkpt>
      <trkpt lat="50.75618" lon="2.93878">
        <ele>17.799999237061</ele>
        <time>2011-10-30T09:08:04.000Z</time>
      </trkpt>
      <trkpt lat="50.75626" lon="2.93851">
        <ele>17.39999961853</ele>
        <time>2011-10-30T09:08:08.000Z</time>
      </trkpt>
      <trkpt lat="50.75634" lon="2.93822">
        <ele>17.200000762939</ele>
        <time>2011-10-30T09:08:12.000Z</time>
      </trkpt>
      <trkpt lat="50.75641" lon="2.93794">
        <ele>16.799999237061</ele>
        <time>2011-10-30T09:08:16.000Z</time>
      </trkpt>
      <trkpt lat="50.75651" lon="2.93757">
        <ele>16.200000762939</ele>
        <time>2011-10-30T09:08:21.000Z</time>
      </trkpt>
      <trkpt lat="50.75659" lon="2.93726">
        <ele>15.60000038147</ele>
        <time>2011-10-30T09:08:25.000Z</time>
      </trkpt>
      <trkpt lat="50.75667" lon="2.93696">
        <ele>15.199999809265</ele>
        <time>2011-10-30T09:08:29.000Z</time>
      </trkpt>
      <trkpt lat="50.75675" lon="2.93665">
        <ele>15</ele>
        <time>2011-10-30T09:08:33.000Z</time>
      </trkpt>
      <trkpt lat="50.75684" lon="2.93636">
        <ele>15.39999961853</ele>
        <time>2011-10-30T09:08:37.000Z</time>
      </trkpt>
      <trkpt lat="50.75695" lon="2.93609">
        <ele>16</ele>
        <time>2011-10-30T09:08:41.000Z</time>
      </trkpt>
      <trkpt lat="50.75706" lon="2.93583">
        <ele>16.39999961853</ele>
        <time>2011-10-30T09:08:45.000Z</time>
      </trkpt>
      <trkpt lat="50.75717" lon="2.93558">
        <ele>16.60000038147</ele>
        <time>2011-10-30T09:08:49.000Z</time>
      </trkpt>
      <trkpt lat="50.75728" lon="2.93535">
        <ele>16.60000038147</ele>
        <time>2011-10-30T09:08:53.000Z</time>
      </trkpt>
      <trkpt lat="50.75738" lon="2.93515">
        <ele>16.799999237061</ele>
        <time>2011-10-30T09:08:57.000Z</time>
      </trkpt>
      <trkpt lat="50.75738" lon="2.93497">
        <ele>16.799999237061</ele>
        <time>2011-10-30T09:09:01.000Z</time>
      </trkpt>
      <trkpt lat="50.75732" lon="2.93484">
        <ele>16.60000038147</ele>
        <time>2011-10-30T09:09:04.000Z</time>
      </trkpt>
      <trkpt lat="50.75723" lon="2.93452">
        <ele>16.39999961853</ele>
        <time>2011-10-30T09:09:10.000Z</time>
      </trkpt>
      <trkpt lat="50.75722" lon="2.93447">
        <ele>16.39999961853</ele>
        <time>2011-10-30T09:09:11.000Z</time>
      </trkpt>
      <trkpt lat="50.75729" lon="2.93424">
        <ele>16.39999961853</ele>
        <time>2011-10-30T09:09:16.000Z</time>
      </trkpt>
      <trkpt lat="50.75731" lon="2.9342">
        <ele>16.39999961853</ele>
        <time>2011-10-30T09:09:17.000Z</time>
      </trkpt>
      <trkpt lat="50.75742" lon="2.93396">
        <ele>16.799999237061</ele>
        <time>2011-10-30T09:09:22.000Z</time>
      </trkpt>
      <trkpt lat="50.75744" lon="2.93364">
        <ele>16.799999237061</ele>
        <time>2011-10-30T09:09:27.000Z</time>
      </trkpt>
      <trkpt lat="50.75743" lon="2.93344">
        <ele>16.799999237061</ele>
        <time>2011-10-30T09:09:30.000Z</time>
      </trkpt>
      <trkpt lat="50.7574" lon="2.93308">
        <ele>16.39999961853</ele>
        <time>2011-10-30T09:09:36.000Z</time>
      </trkpt>
      <trkpt lat="50.75734" lon="2.93279">
        <ele>16</ele>
        <time>2011-10-30T09:09:41.000Z</time>
      </trkpt>
      <trkpt lat="50.75723" lon="2.93257">
        <ele>15.60000038147</ele>
        <time>2011-10-30T09:09:46.000Z</time>
      </trkpt>
      <trkpt lat="50.75708" lon="2.93241">
        <ele>15.60000038147</ele>
        <time>2011-10-30T09:09:51.000Z</time>
      </trkpt>
      <trkpt lat="50.75679" lon="2.93216">
        <ele>15.199999809265</ele>
        <time>2011-10-30T09:10:00.000Z</time>
      </trkpt>
      <trkpt lat="50.75661" lon="2.93207">
        <ele>15.199999809265</ele>
        <time>2011-10-30T09:10:05.000Z</time>
      </trkpt>
      <trkpt lat="50.75642" lon="2.932">
        <ele>16</ele>
        <time>2011-10-30T09:10:10.000Z</time>
      </trkpt>
      <trkpt lat="50.75624" lon="2.93194">
        <ele>16.60000038147</ele>
        <time>2011-10-30T09:10:15.000Z</time>
      </trkpt>
      <trkpt lat="50.75604" lon="2.93188">
        <ele>17.39999961853</ele>
        <time>2011-10-30T09:10:20.000Z</time>
      </trkpt>
      <trkpt lat="50.75588" lon="2.93185">
        <ele>18</ele>
        <time>2011-10-30T09:10:24.000Z</time>
      </trkpt>
      <trkpt lat="50.75573" lon="2.9318">
        <ele>18.39999961853</ele>
        <time>2011-10-30T09:10:28.000Z</time>
      </trkpt>
      <trkpt lat="50.75554" lon="2.93171">
        <ele>19</ele>
        <time>2011-10-30T09:10:33.000Z</time>
      </trkpt>
      <trkpt lat="50.75541" lon="2.93153">
        <ele>19.200000762939</ele>
        <time>2011-10-30T09:10:39.000Z</time>
      </trkpt>
      <trkpt lat="50.75535" lon="2.93145">
        <ele>19.39999961853</ele>
        <time>2011-10-30T09:10:42.000Z</time>
      </trkpt>
      <trkpt lat="50.75528" lon="2.93135">
        <ele>19.39999961853</ele>
        <time>2011-10-30T09:10:46.000Z</time>
      </trkpt>
      <trkpt lat="50.75517" lon="2.93119">
        <ele>19.799999237061</ele>
        <time>2011-10-30T09:10:52.000Z</time>
      </trkpt>
      <trkpt lat="50.75506" lon="2.93102">
        <ele>20</ele>
        <time>2011-10-30T09:10:57.000Z</time>
      </trkpt>
      <trkpt lat="50.75492" lon="2.93081">
        <ele>20</ele>
        <time>2011-10-30T09:11:03.000Z</time>
      </trkpt>
      <trkpt lat="50.75479" lon="2.93059">
        <ele>19.799999237061</ele>
        <time>2011-10-30T09:11:09.000Z</time>
      </trkpt>
      <trkpt lat="50.75465" lon="2.93037">
        <ele>19.60000038147</ele>
        <time>2011-10-30T09:11:15.000Z</time>
      </trkpt>
      <trkpt lat="50.75451" lon="2.93016">
        <ele>19.200000762939</ele>
        <time>2011-10-30T09:11:21.000Z</time>
      </trkpt>
      <trkpt lat="50.75427" lon="2.92995">
        <ele>19</ele>
        <time>2011-10-30T09:11:34.000Z</time>
      </trkpt>
      <trkpt lat="50.75415" lon="2.93003">
        <ele>19</ele>
        <time>2011-10-30T09:11:40.000Z</time>
      </trkpt>
      <trkpt lat="50.75403" lon="2.93026">
        <ele>19.60000038147</ele>
        <time>2011-10-30T09:11:47.000Z</time>
      </trkpt>
      <trkpt lat="50.7539" lon="2.93049">
        <ele>20</ele>
        <time>2011-10-30T09:11:55.000Z</time>
      </trkpt>
      <trkpt lat="50.75378" lon="2.9307">
        <ele>20.200000762939</ele>
        <time>2011-10-30T09:12:02.000Z</time>
      </trkpt>
      <trkpt lat="50.75368" lon="2.93092">
        <ele>20.39999961853</ele>
        <time>2011-10-30T09:12:09.000Z</time>
      </trkpt>
      <trkpt lat="50.75357" lon="2.93115">
        <ele>20.60000038147</ele>
        <time>2011-10-30T09:12:16.000Z</time>
      </trkpt>
      <trkpt lat="50.75345" lon="2.93137">
        <ele>20.799999237061</ele>
        <time>2011-10-30T09:12:23.000Z</time>
      </trkpt>
      <trkpt lat="50.75332" lon="2.93162">
        <ele>20.799999237061</ele>
        <time>2011-10-30T09:12:30.000Z</time>
      </trkpt>
      <trkpt lat="50.7532" lon="2.93185">
        <ele>21</ele>
        <time>2011-10-30T09:12:36.000Z</time>
      </trkpt>
      <trkpt lat="50.75307" lon="2.93208">
        <ele>21</ele>
        <time>2011-10-30T09:12:42.000Z</time>
      </trkpt>
      <trkpt lat="50.75293" lon="2.93233">
        <ele>21.200000762939</ele>
        <time>2011-10-30T09:12:48.000Z</time>
      </trkpt>
      <trkpt lat="50.75278" lon="2.93258">
        <ele>21.200000762939</ele>
        <time>2011-10-30T09:12:54.000Z</time>
      </trkpt>
      <trkpt lat="50.75265" lon="2.93281">
        <ele>20.799999237061</ele>
        <time>2011-10-30T09:12:59.000Z</time>
      </trkpt>
      <trkpt lat="50.75253" lon="2.93303">
        <ele>20.39999961853</ele>
        <time>2011-10-30T09:13:04.000Z</time>
      </trkpt>
      <trkpt lat="50.75239" lon="2.93329">
        <ele>20</ele>
        <time>2011-10-30T09:13:10.000Z</time>
      </trkpt>
      <trkpt lat="50.75227" lon="2.93352">
        <ele>19.60000038147</ele>
        <time>2011-10-30T09:13:15.000Z</time>
      </trkpt>
      <trkpt lat="50.75215" lon="2.93374">
        <ele>19.200000762939</ele>
        <time>2011-10-30T09:13:20.000Z</time>
      </trkpt>
      <trkpt lat="50.75202" lon="2.93399">
        <ele>18.799999237061</ele>
        <time>2011-10-30T09:13:25.000Z</time>
      </trkpt>
      <trkpt lat="50.75189" lon="2.93424">
        <ele>18.60000038147</ele>
        <time>2011-10-30T09:13:30.000Z</time>
      </trkpt>
      <trkpt lat="50.75177" lon="2.93447">
        <ele>19</ele>
        <time>2011-10-30T09:13:35.000Z</time>
      </trkpt>
      <trkpt lat="50.75166" lon="2.93469">
        <ele>19.60000038147</ele>
        <time>2011-10-30T09:13:40.000Z</time>
      </trkpt>
      <trkpt lat="50.75155" lon="2.93493">
        <ele>19.60000038147</ele>
        <time>2011-10-30T09:13:45.000Z</time>
      </trkpt>
      <trkpt lat="50.75143" lon="2.93518">
        <ele>19.60000038147</ele>
        <time>2011-10-30T09:13:50.000Z</time>
      </trkpt>
      <trkpt lat="50.75129" lon="2.93539">
        <ele>19.200000762939</ele>
        <time>2011-10-30T09:13:55.000Z</time>
      </trkpt>
      <trkpt lat="50.75124" lon="2.93543">
        <ele>19.200000762939</ele>
        <time>2011-10-30T09:13:57.000Z</time>
      </trkpt>
      <trkpt lat="50.7512" lon="2.93559">
        <ele>18.799999237061</ele>
        <time>2011-10-30T09:14:01.000Z</time>
      </trkpt>
      <trkpt lat="50.75115" lon="2.93594">
        <ele>18.39999961853</ele>
        <time>2011-10-30T09:14:07.000Z</time>
      </trkpt>
      <trkpt lat="50.7511" lon="2.9361">
        <ele>18.200000762939</ele>
        <time>2011-10-30T09:14:10.000Z</time>
      </trkpt>
      <trkpt lat="50.75095" lon="2.93609">
        <ele>17.60000038147</ele>
        <time>2011-10-30T09:14:15.000Z</time>
      </trkpt>
      <trkpt lat="50.75092" lon="2.93607">
        <ele>17.60000038147</ele>
        <time>2011-10-30T09:14:16.000Z</time>
      </trkpt>
      <trkpt lat="50.75073" lon="2.93593">
        <ele>17</ele>
        <time>2011-10-30T09:14:22.000Z</time>
      </trkpt>
      <trkpt lat="50.75057" lon="2.9358">
        <ele>17</ele>
        <time>2011-10-30T09:14:27.000Z</time>
      </trkpt>
      <trkpt lat="50.75038" lon="2.93567">
        <ele>17</ele>
        <time>2011-10-30T09:14:32.000Z</time>
      </trkpt>
      <trkpt lat="50.75019" lon="2.93552">
        <ele>16.799999237061</ele>
        <time>2011-10-30T09:14:37.000Z</time>
      </trkpt>
      <trkpt lat="50.75" lon="2.93537">
        <ele>16.39999961853</ele>
        <time>2011-10-30T09:14:42.000Z</time>
      </trkpt>
      <trkpt lat="50.74981" lon="2.93523">
        <ele>16.39999961853</ele>
        <time>2011-10-30T09:14:47.000Z</time>
      </trkpt>
      <trkpt lat="50.74962" lon="2.93509">
        <ele>16.39999961853</ele>
        <time>2011-10-30T09:14:52.000Z</time>
      </trkpt>
      <trkpt lat="50.74943" lon="2.93494">
        <ele>16.39999961853</ele>
        <time>2011-10-30T09:14:57.000Z</time>
      </trkpt>
      <trkpt lat="50.74924" lon="2.93481">
        <ele>16.39999961853</ele>
        <time>2011-10-30T09:15:02.000Z</time>
      </trkpt>
      <trkpt lat="50.74906" lon="2.93469">
        <ele>16.39999961853</ele>
        <time>2011-10-30T09:15:07.000Z</time>
      </trkpt>
      <trkpt lat="50.74889" lon="2.93453">
        <ele>16.60000038147</ele>
        <time>2011-10-30T09:15:13.000Z</time>
      </trkpt>
      <trkpt lat="50.74883" lon="2.93437">
        <ele>16.60000038147</ele>
        <time>2011-10-30T09:15:17.000Z</time>
      </trkpt>
      <trkpt lat="50.74871" lon="2.93412">
        <ele>16.60000038147</ele>
        <time>2011-10-30T09:15:22.000Z</time>
      </trkpt>
      <trkpt lat="50.7486" lon="2.93386">
        <ele>17.200000762939</ele>
        <time>2011-10-30T09:15:27.000Z</time>
      </trkpt>
      <trkpt lat="50.74851" lon="2.93357">
        <ele>17.799999237061</ele>
        <time>2011-10-30T09:15:32.000Z</time>
      </trkpt>
      <trkpt lat="50.74841" lon="2.93329">
        <ele>18.39999961853</ele>
        <time>2011-10-30T09:15:37.000Z</time>
      </trkpt>
      <trkpt lat="50.74833" lon="2.93303">
        <ele>18.60000038147</ele>
        <time>2011-10-30T09:15:42.000Z</time>
      </trkpt>
      <trkpt lat="50.74822" lon="2.93279">
        <ele>18</ele>
        <time>2011-10-30T09:15:47.000Z</time>
      </trkpt>
      <trkpt lat="50.74807" lon="2.9326">
        <ele>17.39999961853</ele>
        <time>2011-10-30T09:15:52.000Z</time>
      </trkpt>
      <trkpt lat="50.7479" lon="2.93247">
        <ele>16.799999237061</ele>
        <time>2011-10-30T09:15:57.000Z</time>
      </trkpt>
      <trkpt lat="50.74773" lon="2.93236">
        <ele>16.799999237061</ele>
        <time>2011-10-30T09:16:02.000Z</time>
      </trkpt>
      <trkpt lat="50.74756" lon="2.93224">
        <ele>16.60000038147</ele>
        <time>2011-10-30T09:16:07.000Z</time>
      </trkpt>
      <trkpt lat="50.74739" lon="2.93205">
        <ele>17.200000762939</ele>
        <time>2011-10-30T09:16:13.000Z</time>
      </trkpt>
      <trkpt lat="50.74726" lon="2.93182">
        <ele>17.60000038147</ele>
        <time>2011-10-30T09:16:19.000Z</time>
      </trkpt>
      <trkpt lat="50.74715" lon="2.93155">
        <ele>18</ele>
        <time>2011-10-30T09:16:25.000Z</time>
      </trkpt>
      <trkpt lat="50.74706" lon="2.93126">
        <ele>18.200000762939</ele>
        <time>2011-10-30T09:16:31.000Z</time>
      </trkpt>
      <trkpt lat="50.74699" lon="2.93096">
        <ele>18.39999961853</ele>
        <time>2011-10-30T09:16:37.000Z</time>
      </trkpt>
      <trkpt lat="50.74701" lon="2.93064">
        <ele>18.799999237061</ele>
        <time>2011-10-30T09:16:43.000Z</time>
      </trkpt>
      <trkpt lat="50.74709" lon="2.93035">
        <ele>19.200000762939</ele>
        <time>2011-10-30T09:16:49.000Z</time>
      </trkpt>
      <trkpt lat="50.74715" lon="2.93007">
        <ele>19.799999237061</ele>
        <time>2011-10-30T09:16:55.000Z</time>
      </trkpt>
      <trkpt lat="50.74719" lon="2.92977">
        <ele>20</ele>
        <time>2011-10-30T09:17:01.000Z</time>
      </trkpt>
      <trkpt lat="50.74716" lon="2.92948">
        <ele>20.200000762939</ele>
        <time>2011-10-30T09:17:07.000Z</time>
      </trkpt>
      <trkpt lat="50.74704" lon="2.9293">
        <ele>20.200000762939</ele>
        <time>2011-10-30T09:17:12.000Z</time>
      </trkpt>
      <trkpt lat="50.74685" lon="2.92918">
        <ele>20.200000762939</ele>
        <time>2011-10-30T09:17:18.000Z</time>
      </trkpt>
      <trkpt lat="50.74668" lon="2.92908">
        <ele>20</ele>
        <time>2011-10-30T09:17:23.000Z</time>
      </trkpt>
      <trkpt lat="50.7465" lon="2.92899">
        <ele>20</ele>
        <time>2011-10-30T09:17:28.000Z</time>
      </trkpt>
      <trkpt lat="50.74632" lon="2.92889">
        <ele>20</ele>
        <time>2011-10-30T09:17:33.000Z</time>
      </trkpt>
      <trkpt lat="50.74616" lon="2.92874">
        <ele>19.799999237061</ele>
        <time>2011-10-30T09:17:38.000Z</time>
      </trkpt>
      <trkpt lat="50.74602" lon="2.92858">
        <ele>19.60000038147</ele>
        <time>2011-10-30T09:17:44.000Z</time>
      </trkpt>
      <trkpt lat="50.74597" lon="2.92847">
        <ele>19.39999961853</ele>
        <time>2011-10-30T09:17:49.000Z</time>
      </trkpt>
      <trkpt lat="50.74604" lon="2.92835">
        <ele>19.39999961853</ele>
        <time>2011-10-30T09:17:53.000Z</time>
      </trkpt>
      <trkpt lat="50.74621" lon="2.92811">
        <ele>20</ele>
        <time>2011-10-30T09:18:00.000Z</time>
      </trkpt>
      <trkpt lat="50.74637" lon="2.9279">
        <ele>20.60000038147</ele>
        <time>2011-10-30T09:18:06.000Z</time>
      </trkpt>
      <trkpt lat="50.74652" lon="2.92772">
        <ele>21.200000762939</ele>
        <time>2011-10-30T09:18:11.000Z</time>
      </trkpt>
      <trkpt lat="50.74667" lon="2.92753">
        <ele>21.799999237061</ele>
        <time>2011-10-30T09:18:16.000Z</time>
      </trkpt>
      <trkpt lat="50.74683" lon="2.92732">
        <ele>22.60000038147</ele>
        <time>2011-10-30T09:18:22.000Z</time>
      </trkpt>
      <trkpt lat="50.74696" lon="2.92715">
        <ele>23.200000762939</ele>
        <time>2011-10-30T09:18:27.000Z</time>
      </trkpt>
      <trkpt lat="50.74713" lon="2.92693">
        <ele>24</ele>
        <time>2011-10-30T09:18:33.000Z</time>
      </trkpt>
      <trkpt lat="50.74729" lon="2.92672">
        <ele>24.799999237061</ele>
        <time>2011-10-30T09:18:39.000Z</time>
      </trkpt>
      <trkpt lat="50.74744" lon="2.92652">
        <ele>25.60000038147</ele>
        <time>2011-10-30T09:18:45.000Z</time>
      </trkpt>
      <trkpt lat="50.74761" lon="2.92631">
        <ele>25.799999237061</ele>
        <time>2011-10-30T09:18:51.000Z</time>
      </trkpt>
      <trkpt lat="50.74776" lon="2.92609">
        <ele>25.39999961853</ele>
        <time>2011-10-30T09:18:57.000Z</time>
      </trkpt>
      <trkpt lat="50.74788" lon="2.92594">
        <ele>25</ele>
        <time>2011-10-30T09:19:02.000Z</time>
      </trkpt>
      <trkpt lat="50.74804" lon="2.92574">
        <ele>24.39999961853</ele>
        <time>2011-10-30T09:19:08.000Z</time>
      </trkpt>
      <trkpt lat="50.74819" lon="2.92555">
        <ele>24</ele>
        <time>2011-10-30T09:19:13.000Z</time>
      </trkpt>
      <trkpt lat="50.74834" lon="2.92535">
        <ele>23.39999961853</ele>
        <time>2011-10-30T09:19:18.000Z</time>
      </trkpt>
      <trkpt lat="50.7485" lon="2.92514">
        <ele>23</ele>
        <time>2011-10-30T09:19:23.000Z</time>
      </trkpt>
      <trkpt lat="50.74864" lon="2.92495">
        <ele>23</ele>
        <time>2011-10-30T09:19:28.000Z</time>
      </trkpt>
      <trkpt lat="50.74867" lon="2.92491">
        <ele>23</ele>
        <time>2011-10-30T09:19:29.000Z</time>
      </trkpt>
      <trkpt lat="50.74869" lon="2.92471">
        <ele>23</ele>
        <time>2011-10-30T09:19:33.000Z</time>
      </trkpt>
      <trkpt lat="50.7487" lon="2.9244">
        <ele>23.39999961853</ele>
        <time>2011-10-30T09:19:38.000Z</time>
      </trkpt>
      <trkpt lat="50.74873" lon="2.92408">
        <ele>23.39999961853</ele>
        <time>2011-10-30T09:19:43.000Z</time>
      </trkpt>
      <trkpt lat="50.74875" lon="2.92384">
        <ele>23.39999961853</ele>
        <time>2011-10-30T09:19:47.000Z</time>
      </trkpt>
      <trkpt lat="50.74871" lon="2.92349">
        <ele>23.39999961853</ele>
        <time>2011-10-30T09:19:53.000Z</time>
      </trkpt>
      <trkpt lat="50.74864" lon="2.9232">
        <ele>23.39999961853</ele>
        <time>2011-10-30T09:19:58.000Z</time>
      </trkpt>
      <trkpt lat="50.74858" lon="2.92291">
        <ele>23.39999961853</ele>
        <time>2011-10-30T09:20:03.000Z</time>
      </trkpt>
      <trkpt lat="50.74852" lon="2.92263">
        <ele>23.200000762939</ele>
        <time>2011-10-30T09:20:08.000Z</time>
      </trkpt>
      <trkpt lat="50.74845" lon="2.92236">
        <ele>22.799999237061</ele>
        <time>2011-10-30T09:20:13.000Z</time>
      </trkpt>
      <trkpt lat="50.74838" lon="2.92205">
        <ele>21.799999237061</ele>
        <time>2011-10-30T09:20:19.000Z</time>
      </trkpt>
      <trkpt lat="50.74832" lon="2.92176">
        <ele>21.200000762939</ele>
        <time>2011-10-30T09:20:24.000Z</time>
      </trkpt>
      <trkpt lat="50.74826" lon="2.92147">
        <ele>21.200000762939</ele>
        <time>2011-10-30T09:20:29.000Z</time>
      </trkpt>
      <trkpt lat="50.74821" lon="2.9212">
        <ele>21.60000038147</ele>
        <time>2011-10-30T09:20:34.000Z</time>
      </trkpt>
      <trkpt lat="50.74816" lon="2.92092">
        <ele>21.799999237061</ele>
        <time>2011-10-30T09:20:39.000Z</time>
      </trkpt>
      <trkpt lat="50.74812" lon="2.92063">
        <ele>22</ele>
        <time>2011-10-30T09:20:44.000Z</time>
      </trkpt>
      <trkpt lat="50.74811" lon="2.92033">
        <ele>22</ele>
        <time>2011-10-30T09:20:49.000Z</time>
      </trkpt>
      <trkpt lat="50.74809" lon="2.92005">
        <ele>22.200000762939</ele>
        <time>2011-10-30T09:20:54.000Z</time>
      </trkpt>
      <trkpt lat="50.74806" lon="2.91975">
        <ele>22</ele>
        <time>2011-10-30T09:20:59.000Z</time>
      </trkpt>
      <trkpt lat="50.74803" lon="2.91947">
        <ele>21.799999237061</ele>
        <time>2011-10-30T09:21:04.000Z</time>
      </trkpt>
      <trkpt lat="50.74801" lon="2.91919">
        <ele>21.60000038147</ele>
        <time>2011-10-30T09:21:09.000Z</time>
      </trkpt>
      <trkpt lat="50.74798" lon="2.91889">
        <ele>21.39999961853</ele>
        <time>2011-10-30T09:21:14.000Z</time>
      </trkpt>
      <trkpt lat="50.74796" lon="2.91861">
        <ele>21.200000762939</ele>
        <time>2011-10-30T09:21:19.000Z</time>
      </trkpt>
      <trkpt lat="50.74795" lon="2.91832">
        <ele>21</ele>
        <time>2011-10-30T09:21:24.000Z</time>
      </trkpt>
      <trkpt lat="50.74792" lon="2.91799">
        <ele>21.60000038147</ele>
        <time>2011-10-30T09:21:30.000Z</time>
      </trkpt>
      <trkpt lat="50.74787" lon="2.91766">
        <ele>22</ele>
        <time>2011-10-30T09:21:36.000Z</time>
      </trkpt>
      <trkpt lat="50.7478" lon="2.91737">
        <ele>22.60000038147</ele>
        <time>2011-10-30T09:21:42.000Z</time>
      </trkpt>
      <trkpt lat="50.74773" lon="2.91707">
        <ele>23.200000762939</ele>
        <time>2011-10-30T09:21:48.000Z</time>
      </trkpt>
      <trkpt lat="50.74767" lon="2.91678">
        <ele>23.799999237061</ele>
        <time>2011-10-30T09:21:54.000Z</time>
      </trkpt>
      <trkpt lat="50.74761" lon="2.91655">
        <ele>24.200000762939</ele>
        <time>2011-10-30T09:22:00.000Z</time>
      </trkpt>
      <trkpt lat="50.74754" lon="2.91626">
        <ele>24.39999961853</ele>
        <time>2011-10-30T09:22:07.000Z</time>
      </trkpt>
      <trkpt lat="50.74743" lon="2.91599">
        <ele>24.799999237061</ele>
        <time>2011-10-30T09:22:13.000Z</time>
      </trkpt>
      <trkpt lat="50.74731" lon="2.91574">
        <ele>24.799999237061</ele>
        <time>2011-10-30T09:22:19.000Z</time>
      </trkpt>
      <trkpt lat="50.74719" lon="2.91552">
        <ele>25</ele>
        <time>2011-10-30T09:22:25.000Z</time>
      </trkpt>
      <trkpt lat="50.74708" lon="2.9153">
        <ele>25.200000762939</ele>
        <time>2011-10-30T09:22:31.000Z</time>
      </trkpt>
      <trkpt lat="50.74696" lon="2.91505">
        <ele>25.799999237061</ele>
        <time>2011-10-30T09:22:38.000Z</time>
      </trkpt>
      <trkpt lat="50.74688" lon="2.91488">
        <ele>26.200000762939</ele>
        <time>2011-10-30T09:22:44.000Z</time>
      </trkpt>
      <trkpt lat="50.74684" lon="2.9148">
        <ele>26.60000038147</ele>
        <time>2011-10-30T09:22:50.000Z</time>
      </trkpt>
      <trkpt lat="50.74674" lon="2.91454">
        <ele>27.200000762939</ele>
        <time>2011-10-30T09:22:56.000Z</time>
      </trkpt>
      <trkpt lat="50.74668" lon="2.91427">
        <ele>27.799999237061</ele>
        <time>2011-10-30T09:23:01.000Z</time>
      </trkpt>
      <trkpt lat="50.74661" lon="2.91396">
        <ele>27.799999237061</ele>
        <time>2011-10-30T09:23:07.000Z</time>
      </trkpt>
      <trkpt lat="50.74653" lon="2.9137">
        <ele>27.39999961853</ele>
        <time>2011-10-30T09:23:12.000Z</time>
      </trkpt>
      <trkpt lat="50.74644" lon="2.9134">
        <ele>26.799999237061</ele>
        <time>2011-10-30T09:23:18.000Z</time>
      </trkpt>
      <trkpt lat="50.74636" lon="2.91314">
        <ele>26.200000762939</ele>
        <time>2011-10-30T09:23:24.000Z</time>
      </trkpt>
      <trkpt lat="50.74627" lon="2.91286">
        <ele>25.39999961853</ele>
        <time>2011-10-30T09:23:30.000Z</time>
      </trkpt>
      <trkpt lat="50.74619" lon="2.91258">
        <ele>24.799999237061</ele>
        <time>2011-10-30T09:23:36.000Z</time>
      </trkpt>
      <trkpt lat="50.74612" lon="2.9123">
        <ele>24.60000038147</ele>
        <time>2011-10-30T09:23:42.000Z</time>
      </trkpt>
      <trkpt lat="50.74604" lon="2.91204">
        <ele>24.60000038147</ele>
        <time>2011-10-30T09:23:48.000Z</time>
      </trkpt>
      <trkpt lat="50.74597" lon="2.91174">
        <ele>24.799999237061</ele>
        <time>2011-10-30T09:23:54.000Z</time>
      </trkpt>
      <trkpt lat="50.74595" lon="2.91163">
        <ele>25</ele>
        <time>2011-10-30T09:23:56.000Z</time>
      </trkpt>
      <trkpt lat="50.74591" lon="2.91142">
        <ele>25</ele>
        <time>2011-10-30T09:24:00.000Z</time>
      </trkpt>
      <trkpt lat="50.74585" lon="2.91113">
        <ele>25</ele>
        <time>2011-10-30T09:24:06.000Z</time>
      </trkpt>
      <trkpt lat="50.74576" lon="2.91085">
        <ele>25</ele>
        <time>2011-10-30T09:24:12.000Z</time>
      </trkpt>
      <trkpt lat="50.74566" lon="2.91058">
        <ele>25</ele>
        <time>2011-10-30T09:24:18.000Z</time>
      </trkpt>
      <trkpt lat="50.74557" lon="2.9103">
        <ele>25</ele>
        <time>2011-10-30T09:24:24.000Z</time>
      </trkpt>
      <trkpt lat="50.74548" lon="2.91002">
        <ele>25.200000762939</ele>
        <time>2011-10-30T09:24:30.000Z</time>
      </trkpt>
      <trkpt lat="50.74541" lon="2.90971">
        <ele>25.799999237061</ele>
        <time>2011-10-30T09:24:36.000Z</time>
      </trkpt>
      <trkpt lat="50.74535" lon="2.90943">
        <ele>26.39999961853</ele>
        <time>2011-10-30T09:24:41.000Z</time>
      </trkpt>
      <trkpt lat="50.74529" lon="2.90917">
        <ele>26.799999237061</ele>
        <time>2011-10-30T09:24:47.000Z</time>
      </trkpt>
      <trkpt lat="50.74524" lon="2.90897">
        <ele>27</ele>
        <time>2011-10-30T09:24:52.000Z</time>
      </trkpt>
      <trkpt lat="50.74516" lon="2.90871">
        <ele>27</ele>
        <time>2011-10-30T09:24:58.000Z</time>
      </trkpt>
      <trkpt lat="50.74509" lon="2.9084">
        <ele>26.799999237061</ele>
        <time>2011-10-30T09:25:04.000Z</time>
      </trkpt>
      <trkpt lat="50.74502" lon="2.90811">
        <ele>26.60000038147</ele>
        <time>2011-10-30T09:25:09.000Z</time>
      </trkpt>
      <trkpt lat="50.74496" lon="2.90779">
        <ele>26.200000762939</ele>
        <time>2011-10-30T09:25:15.000Z</time>
      </trkpt>
      <trkpt lat="50.74492" lon="2.90746">
        <ele>26</ele>
        <time>2011-10-30T09:25:21.000Z</time>
      </trkpt>
      <trkpt lat="50.74489" lon="2.90717">
        <ele>26.39999961853</ele>
        <time>2011-10-30T09:25:26.000Z</time>
      </trkpt>
      <trkpt lat="50.74486" lon="2.90688">
        <ele>27</ele>
        <time>2011-10-30T09:25:31.000Z</time>
      </trkpt>
      <trkpt lat="50.74482" lon="2.90657">
        <ele>27.39999961853</ele>
        <time>2011-10-30T09:25:37.000Z</time>
      </trkpt>
      <trkpt lat="50.74479" lon="2.90629">
        <ele>27.60000038147</ele>
        <time>2011-10-30T09:25:42.000Z</time>
      </trkpt>
      <trkpt lat="50.74475" lon="2.906">
        <ele>27.799999237061</ele>
        <time>2011-10-30T09:25:47.000Z</time>
      </trkpt>
      <trkpt lat="50.74472" lon="2.90572">
        <ele>28</ele>
        <time>2011-10-30T09:25:52.000Z</time>
      </trkpt>
      <trkpt lat="50.74468" lon="2.90543">
        <ele>28</ele>
        <time>2011-10-30T09:25:57.000Z</time>
      </trkpt>
      <trkpt lat="50.74464" lon="2.90514">
        <ele>28</ele>
        <time>2011-10-30T09:26:03.000Z</time>
      </trkpt>
      <trkpt lat="50.7446" lon="2.90486">
        <ele>27.799999237061</ele>
        <time>2011-10-30T09:26:09.000Z</time>
      </trkpt>
      <trkpt lat="50.74456" lon="2.90454">
        <ele>27.60000038147</ele>
        <time>2011-10-30T09:26:16.000Z</time>
      </trkpt>
      <trkpt lat="50.74451" lon="2.90422">
        <ele>27.39999961853</ele>
        <time>2011-10-30T09:26:23.000Z</time>
      </trkpt>
      <trkpt lat="50.74448" lon="2.90391">
        <ele>27.200000762939</ele>
        <time>2011-10-30T09:26:29.000Z</time>
      </trkpt>
      <trkpt lat="50.74444" lon="2.90359">
        <ele>27.200000762939</ele>
        <time>2011-10-30T09:26:35.000Z</time>
      </trkpt>
      <trkpt lat="50.74441" lon="2.90329">
        <ele>27.200000762939</ele>
        <time>2011-10-30T09:26:42.000Z</time>
      </trkpt>
      <trkpt lat="50.7444" lon="2.90308">
        <ele>27.39999961853</ele>
        <time>2011-10-30T09:26:47.000Z</time>
      </trkpt>
      <trkpt lat="50.74439" lon="2.90306">
        <ele>27.39999961853</ele>
        <time>2011-10-30T09:26:48.000Z</time>
      </trkpt>
      <trkpt lat="50.74438" lon="2.90301">
        <ele>27.39999961853</ele>
        <time>2011-10-30T09:26:51.000Z</time>
      </trkpt>
      <trkpt lat="50.74438" lon="2.90282">
        <ele>27.60000038147</ele>
        <time>2011-10-30T09:26:57.000Z</time>
      </trkpt>
      <trkpt lat="50.74439" lon="2.90254">
        <ele>27.799999237061</ele>
        <time>2011-10-30T09:27:02.000Z</time>
      </trkpt>
      <trkpt lat="50.74439" lon="2.90225">
        <ele>27.799999237061</ele>
        <time>2011-10-30T09:27:07.000Z</time>
      </trkpt>
      <trkpt lat="50.74439" lon="2.90194">
        <ele>27.60000038147</ele>
        <time>2011-10-30T09:27:13.000Z</time>
      </trkpt>
      <trkpt lat="50.74438" lon="2.90167">
        <ele>27.39999961853</ele>
        <time>2011-10-30T09:27:19.000Z</time>
      </trkpt>
      <trkpt lat="50.74437" lon="2.90139">
        <ele>26.60000038147</ele>
        <time>2011-10-30T09:27:24.000Z</time>
      </trkpt>
      <trkpt lat="50.74434" lon="2.90109">
        <ele>25.799999237061</ele>
        <time>2011-10-30T09:27:29.000Z</time>
      </trkpt>
      <trkpt lat="50.74431" lon="2.90078">
        <ele>25</ele>
        <time>2011-10-30T09:27:34.000Z</time>
      </trkpt>
      <trkpt lat="50.7443" lon="2.90059">
        <ele>24.799999237061</ele>
        <time>2011-10-30T09:27:37.000Z</time>
      </trkpt>
      <trkpt lat="50.74426" lon="2.90024">
        <ele>24.39999961853</ele>
        <time>2011-10-30T09:27:43.000Z</time>
      </trkpt>
      <trkpt lat="50.74424" lon="2.90019">
        <ele>24.200000762939</ele>
        <time>2011-10-30T09:27:44.000Z</time>
      </trkpt>
      <trkpt lat="50.74411" lon="2.90008">
        <ele>24</ele>
        <time>2011-10-30T09:27:48.000Z</time>
      </trkpt>
      <trkpt lat="50.74394" lon="2.89991">
        <ele>23.60000038147</ele>
        <time>2011-10-30T09:27:52.000Z</time>
      </trkpt>
      <trkpt lat="50.74376" lon="2.89974">
        <ele>23.39999961853</ele>
        <time>2011-10-30T09:27:56.000Z</time>
      </trkpt>
      <trkpt lat="50.74358" lon="2.89956">
        <ele>23</ele>
        <time>2011-10-30T09:28:00.000Z</time>
      </trkpt>
      <trkpt lat="50.74345" lon="2.89942">
        <ele>22.60000038147</ele>
        <time>2011-10-30T09:28:03.000Z</time>
      </trkpt>
      <trkpt lat="50.74319" lon="2.89923">
        <ele>21.39999961853</ele>
        <time>2011-10-30T09:28:08.000Z</time>
      </trkpt>
      <trkpt lat="50.74299" lon="2.89908">
        <ele>20.799999237061</ele>
        <time>2011-10-30T09:28:12.000Z</time>
      </trkpt>
      <trkpt lat="50.74279" lon="2.89894">
        <ele>20.200000762939</ele>
        <time>2011-10-30T09:28:16.000Z</time>
      </trkpt>
      <trkpt lat="50.74263" lon="2.89885">
        <ele>19.60000038147</ele>
        <time>2011-10-30T09:28:19.000Z</time>
      </trkpt>
      <trkpt lat="50.74239" lon="2.89871">
        <ele>19.39999961853</ele>
        <time>2011-10-30T09:28:24.000Z</time>
      </trkpt>
      <trkpt lat="50.74219" lon="2.89862">
        <ele>19.39999961853</ele>
        <time>2011-10-30T09:28:28.000Z</time>
      </trkpt>
      <trkpt lat="50.7421" lon="2.89857">
        <ele>19.39999961853</ele>
        <time>2011-10-30T09:28:30.000Z</time>
      </trkpt>
      <trkpt lat="50.742" lon="2.89837">
        <ele>19.39999961853</ele>
        <time>2011-10-30T09:28:34.000Z</time>
      </trkpt>
      <trkpt lat="50.74199" lon="2.8983">
        <ele>19.200000762939</ele>
        <time>2011-10-30T09:28:35.000Z</time>
      </trkpt>
      <trkpt lat="50.74197" lon="2.89792">
        <ele>19.200000762939</ele>
        <time>2011-10-30T09:28:40.000Z</time>
      </trkpt>
      <trkpt lat="50.74195" lon="2.89761">
        <ele>19.200000762939</ele>
        <time>2011-10-30T09:28:44.000Z</time>
      </trkpt>
      <trkpt lat="50.74192" lon="2.89731">
        <ele>19.200000762939</ele>
        <time>2011-10-30T09:28:48.000Z</time>
      </trkpt>
      <trkpt lat="50.74191" lon="2.89703">
        <ele>19.200000762939</ele>
        <time>2011-10-30T09:28:52.000Z</time>
      </trkpt>
      <trkpt lat="50.74189" lon="2.89668">
        <ele>19.200000762939</ele>
        <time>2011-10-30T09:28:57.000Z</time>
      </trkpt>
      <trkpt lat="50.74187" lon="2.89633">
        <ele>19.39999961853</ele>
        <time>2011-10-30T09:29:02.000Z</time>
      </trkpt>
      <trkpt lat="50.74185" lon="2.89598">
        <ele>19.799999237061</ele>
        <time>2011-10-30T09:29:07.000Z</time>
      </trkpt>
      <trkpt lat="50.74184" lon="2.89591">
        <ele>19.799999237061</ele>
        <time>2011-10-30T09:29:08.000Z</time>
      </trkpt>
      <trkpt lat="50.74176" lon="2.89558">
        <ele>19.39999961853</ele>
        <time>2011-10-30T09:29:13.000Z</time>
      </trkpt>
      <trkpt lat="50.74167" lon="2.89532">
        <ele>18.60000038147</ele>
        <time>2011-10-30T09:29:17.000Z</time>
      </trkpt>
      <trkpt lat="50.74157" lon="2.89501">
        <ele>18</ele>
        <time>2011-10-30T09:29:22.000Z</time>
      </trkpt>
      <trkpt lat="50.74148" lon="2.89476">
        <ele>18.200000762939</ele>
        <time>2011-10-30T09:29:26.000Z</time>
      </trkpt>
      <trkpt lat="50.74138" lon="2.89445">
        <ele>18.39999961853</ele>
        <time>2011-10-30T09:29:31.000Z</time>
      </trkpt>
      <trkpt lat="50.74128" lon="2.89414">
        <ele>18.799999237061</ele>
        <time>2011-10-30T09:29:36.000Z</time>
      </trkpt>
      <trkpt lat="50.74118" lon="2.89383">
        <ele>19.799999237061</ele>
        <time>2011-10-30T09:29:41.000Z</time>
      </trkpt>
      <trkpt lat="50.74109" lon="2.89353">
        <ele>20.60000038147</ele>
        <time>2011-10-30T09:29:46.000Z</time>
      </trkpt>
      <trkpt lat="50.741" lon="2.89321">
        <ele>21.200000762939</ele>
        <time>2011-10-30T09:29:51.000Z</time>
      </trkpt>
      <trkpt lat="50.74093" lon="2.89294">
        <ele>21.200000762939</ele>
        <time>2011-10-30T09:29:55.000Z</time>
      </trkpt>
      <trkpt lat="50.74084" lon="2.89264">
        <ele>21</ele>
        <time>2011-10-30T09:30:00.000Z</time>
      </trkpt>
      <trkpt lat="50.74077" lon="2.89241">
        <ele>21.60000038147</ele>
        <time>2011-10-30T09:30:04.000Z</time>
      </trkpt>
      <trkpt lat="50.74067" lon="2.89202">
        <ele>22.799999237061</ele>
        <time>2011-10-30T09:30:10.000Z</time>
      </trkpt>
      <trkpt lat="50.7406" lon="2.8917">
        <ele>23.39999961853</ele>
        <time>2011-10-30T09:30:15.000Z</time>
      </trkpt>
      <trkpt lat="50.74054" lon="2.89138">
        <ele>23</ele>
        <time>2011-10-30T09:30:20.000Z</time>
      </trkpt>
      <trkpt lat="50.74049" lon="2.89107">
        <ele>22.39999961853</ele>
        <time>2011-10-30T09:30:25.000Z</time>
      </trkpt>
      <trkpt lat="50.74048" lon="2.89102">
        <ele>22.200000762939</ele>
        <time>2011-10-30T09:30:26.000Z</time>
      </trkpt>
      <trkpt lat="50.74043" lon="2.89072">
        <ele>21.39999961853</ele>
        <time>2011-10-30T09:30:31.000Z</time>
      </trkpt>
      <trkpt lat="50.74038" lon="2.8904">
        <ele>20.799999237061</ele>
        <time>2011-10-30T09:30:36.000Z</time>
      </trkpt>
      <trkpt lat="50.74032" lon="2.89009">
        <ele>19.60000038147</ele>
        <time>2011-10-30T09:30:41.000Z</time>
      </trkpt>
      <trkpt lat="50.74024" lon="2.88979">
        <ele>19.39999961853</ele>
        <time>2011-10-30T09:30:46.000Z</time>
      </trkpt>
      <trkpt lat="50.74018" lon="2.88948">
        <ele>19.39999961853</ele>
        <time>2011-10-30T09:30:51.000Z</time>
      </trkpt>
      <trkpt lat="50.7401" lon="2.88918">
        <ele>19.200000762939</ele>
        <time>2011-10-30T09:30:56.000Z</time>
      </trkpt>
      <trkpt lat="50.74004" lon="2.88889">
        <ele>19.39999961853</ele>
        <time>2011-10-30T09:31:01.000Z</time>
      </trkpt>
      <trkpt lat="50.73996" lon="2.88859">
        <ele>19.60000038147</ele>
        <time>2011-10-30T09:31:07.000Z</time>
      </trkpt>
      <trkpt lat="50.73994" lon="2.88852">
        <ele>19.60000038147</ele>
        <time>2011-10-30T09:31:09.000Z</time>
      </trkpt>
      <trkpt lat="50.74002" lon="2.88847">
        <ele>19.799999237061</ele>
        <time>2011-10-30T09:31:14.000Z</time>
      </trkpt>
      <trkpt lat="50.74006" lon="2.88845">
        <ele>20.200000762939</ele>
        <time>2011-10-30T09:31:16.000Z</time>
      </trkpt>
      <trkpt lat="50.74025" lon="2.88834">
        <ele>21.60000038147</ele>
        <time>2011-10-30T09:31:24.000Z</time>
      </trkpt>
      <trkpt lat="50.74042" lon="2.88825">
        <ele>23.200000762939</ele>
        <time>2011-10-30T09:31:31.000Z</time>
      </trkpt>
      <trkpt lat="50.74061" lon="2.88814">
        <ele>25</ele>
        <time>2011-10-30T09:31:39.000Z</time>
      </trkpt>
      <trkpt lat="50.74075" lon="2.88807">
        <ele>26.39999961853</ele>
        <time>2011-10-30T09:31:46.000Z</time>
      </trkpt>
      <trkpt lat="50.74084" lon="2.88802">
        <ele>27.39999961853</ele>
        <time>2011-10-30T09:31:52.000Z</time>
      </trkpt>
      <trkpt lat="50.74099" lon="2.88793">
        <ele>29.60000038147</ele>
        <time>2011-10-30T09:32:01.000Z</time>
      </trkpt>
      <trkpt lat="50.74101" lon="2.88793">
        <ele>29.799999237061</ele>
        <time>2011-10-30T09:32:02.000Z</time>
      </trkpt>
      <trkpt lat="50.74104" lon="2.88798">
        <ele>30</ele>
        <time>2011-10-30T09:32:05.000Z</time>
      </trkpt>
      <trkpt lat="50.74106" lon="2.88804">
        <ele>30</ele>
        <time>2011-10-30T09:32:07.000Z</time>
      </trkpt>
      <trkpt lat="50.74115" lon="2.88828">
        <ele>30</ele>
        <time>2011-10-30T09:32:15.000Z</time>
      </trkpt>
      <trkpt lat="50.74126" lon="2.88853">
        <ele>30</ele>
        <time>2011-10-30T09:32:23.000Z</time>
      </trkpt>
      <trkpt lat="50.74138" lon="2.88877">
        <ele>30.39999961853</ele>
        <time>2011-10-30T09:32:30.000Z</time>
      </trkpt>
      <trkpt lat="50.74152" lon="2.889">
        <ele>31</ele>
        <time>2011-10-30T09:32:37.000Z</time>
      </trkpt>
      <trkpt lat="50.74165" lon="2.8892">
        <ele>31.39999961853</ele>
        <time>2011-10-30T09:32:44.000Z</time>
      </trkpt>
      <trkpt lat="50.7418" lon="2.88942">
        <ele>31.39999961853</ele>
        <time>2011-10-30T09:32:52.000Z</time>
      </trkpt>
      <trkpt lat="50.74195" lon="2.88963">
        <ele>31.799999237061</ele>
        <time>2011-10-30T09:33:00.000Z</time>
      </trkpt>
      <trkpt lat="50.74211" lon="2.88979">
        <ele>32.400001525879</ele>
        <time>2011-10-30T09:33:07.000Z</time>
      </trkpt>
      <trkpt lat="50.74227" lon="2.8899">
        <ele>33.799999237061</ele>
        <time>2011-10-30T09:33:14.000Z</time>
      </trkpt>
      <trkpt lat="50.74245" lon="2.88996">
        <ele>35.400001525879</ele>
        <time>2011-10-30T09:33:21.000Z</time>
      </trkpt>
      <trkpt lat="50.74264" lon="2.89">
        <ele>35.799999237061</ele>
        <time>2011-10-30T09:33:28.000Z</time>
      </trkpt>
      <trkpt lat="50.74283" lon="2.89004">
        <ele>35.799999237061</ele>
        <time>2011-10-30T09:33:35.000Z</time>
      </trkpt>
      <trkpt lat="50.74296" lon="2.89">
        <ele>35.799999237061</ele>
        <time>2011-10-30T09:33:40.000Z</time>
      </trkpt>
      <trkpt lat="50.74297" lon="2.88997">
        <ele>36</ele>
        <time>2011-10-30T09:33:41.000Z</time>
      </trkpt>
      <trkpt lat="50.74298" lon="2.88974">
        <ele>36.400001525879</ele>
        <time>2011-10-30T09:33:47.000Z</time>
      </trkpt>
      <trkpt lat="50.74295" lon="2.88944">
        <ele>36.799999237061</ele>
        <time>2011-10-30T09:33:54.000Z</time>
      </trkpt>
      <trkpt lat="50.74294" lon="2.88916">
        <ele>37.400001525879</ele>
        <time>2011-10-30T09:34:01.000Z</time>
      </trkpt>
      <trkpt lat="50.74292" lon="2.88891">
        <ele>37.799999237061</ele>
        <time>2011-10-30T09:34:08.000Z</time>
      </trkpt>
      <trkpt lat="50.74292" lon="2.88869">
        <ele>38</ele>
        <time>2011-10-30T09:34:14.000Z</time>
      </trkpt>
      <trkpt lat="50.7429" lon="2.88837">
        <ele>38.400001525879</ele>
        <time>2011-10-30T09:34:22.000Z</time>
      </trkpt>
      <trkpt lat="50.74288" lon="2.88806">
        <ele>38.799999237061</ele>
        <time>2011-10-30T09:34:29.000Z</time>
      </trkpt>
      <trkpt lat="50.7429" lon="2.88779">
        <ele>39</ele>
        <time>2011-10-30T09:34:36.000Z</time>
      </trkpt>
      <trkpt lat="50.74292" lon="2.88748">
        <ele>39.400001525879</ele>
        <time>2011-10-30T09:34:43.000Z</time>
      </trkpt>
      <trkpt lat="50.74294" lon="2.88717">
        <ele>39.400001525879</ele>
        <time>2011-10-30T09:34:50.000Z</time>
      </trkpt>
      <trkpt lat="50.74296" lon="2.88687">
        <ele>39.599998474121</ele>
        <time>2011-10-30T09:34:57.000Z</time>
      </trkpt>
      <trkpt lat="50.74296" lon="2.88657">
        <ele>40</ele>
        <time>2011-10-30T09:35:04.000Z</time>
      </trkpt>
      <trkpt lat="50.7429" lon="2.88635">
        <ele>41</ele>
        <time>2011-10-30T09:35:10.000Z</time>
      </trkpt>
      <trkpt lat="50.74279" lon="2.88625">
        <ele>41.799999237061</ele>
        <time>2011-10-30T09:35:15.000Z</time>
      </trkpt>
      <trkpt lat="50.74266" lon="2.88614">
        <ele>43</ele>
        <time>2011-10-30T09:35:21.000Z</time>
      </trkpt>
      <trkpt lat="50.74254" lon="2.88593">
        <ele>44.400001525879</ele>
        <time>2011-10-30T09:35:29.000Z</time>
      </trkpt>
      <trkpt lat="50.74249" lon="2.88569">
        <ele>45.200000762939</ele>
        <time>2011-10-30T09:35:36.000Z</time>
      </trkpt>
      <trkpt lat="50.74245" lon="2.88547">
        <ele>46</ele>
        <time>2011-10-30T09:35:43.000Z</time>
      </trkpt>
      <trkpt lat="50.74241" lon="2.88527">
        <ele>46.599998474121</ele>
        <time>2011-10-30T09:35:50.000Z</time>
      </trkpt>
      <trkpt lat="50.74239" lon="2.88502">
        <ele>47.200000762939</ele>
        <time>2011-10-30T09:35:57.000Z</time>
      </trkpt>
      <trkpt lat="50.74238" lon="2.88475">
        <ele>48.200000762939</ele>
        <time>2011-10-30T09:36:05.000Z</time>
      </trkpt>
      <trkpt lat="50.74238" lon="2.88449">
        <ele>49</ele>
        <time>2011-10-30T09:36:13.000Z</time>
      </trkpt>
      <trkpt lat="50.74238" lon="2.8842">
        <ele>50</ele>
        <time>2011-10-30T09:36:21.000Z</time>
      </trkpt>
      <trkpt lat="50.74236" lon="2.88389">
        <ele>50.799999237061</ele>
        <time>2011-10-30T09:36:30.000Z</time>
      </trkpt>
      <trkpt lat="50.74237" lon="2.88365">
        <ele>51.200000762939</ele>
        <time>2011-10-30T09:36:37.000Z</time>
      </trkpt>
      <trkpt lat="50.74243" lon="2.88343">
        <ele>51.599998474121</ele>
        <time>2011-10-30T09:36:44.000Z</time>
      </trkpt>
      <trkpt lat="50.74253" lon="2.88316">
        <ele>52.200000762939</ele>
        <time>2011-10-30T09:36:53.000Z</time>
      </trkpt>
      <trkpt lat="50.74257" lon="2.88292">
        <ele>52.799999237061</ele>
        <time>2011-10-30T09:37:00.000Z</time>
      </trkpt>
      <trkpt lat="50.74259" lon="2.88264">
        <ele>53.599998474121</ele>
        <time>2011-10-30T09:37:07.000Z</time>
      </trkpt>
      <trkpt lat="50.74259" lon="2.88233">
        <ele>54</ele>
        <time>2011-10-30T09:37:14.000Z</time>
      </trkpt>
      <trkpt lat="50.74259" lon="2.88201">
        <ele>54</ele>
        <time>2011-10-30T09:37:21.000Z</time>
      </trkpt>
      <trkpt lat="50.74259" lon="2.88169">
        <ele>54</ele>
        <time>2011-10-30T09:37:28.000Z</time>
      </trkpt>
      <trkpt lat="50.74257" lon="2.88136">
        <ele>55</ele>
        <time>2011-10-30T09:37:35.000Z</time>
      </trkpt>
      <trkpt lat="50.74254" lon="2.88105">
        <ele>56.200000762939</ele>
        <time>2011-10-30T09:37:42.000Z</time>
      </trkpt>
      <trkpt lat="50.74251" lon="2.88072">
        <ele>57</ele>
        <time>2011-10-30T09:37:49.000Z</time>
      </trkpt>
      <trkpt lat="50.74249" lon="2.88041">
        <ele>56.799999237061</ele>
        <time>2011-10-30T09:37:56.000Z</time>
      </trkpt>
      <trkpt lat="50.74247" lon="2.88011">
        <ele>56.799999237061</ele>
        <time>2011-10-30T09:38:03.000Z</time>
      </trkpt>
      <trkpt lat="50.74247" lon="2.88007">
        <ele>56.799999237061</ele>
        <time>2011-10-30T09:38:04.000Z</time>
      </trkpt>
      <trkpt lat="50.74242" lon="2.88003">
        <ele>56.799999237061</ele>
        <time>2011-10-30T09:38:08.000Z</time>
      </trkpt>
      <trkpt lat="50.7424" lon="2.88005">
        <ele>56.599998474121</ele>
        <time>2011-10-30T09:38:09.000Z</time>
      </trkpt>
      <trkpt lat="50.74237" lon="2.88011">
        <ele>56.599998474121</ele>
        <time>2011-10-30T09:38:11.000Z</time>
      </trkpt>
      <trkpt lat="50.74217" lon="2.8802">
        <ele>56.200000762939</ele>
        <time>2011-10-30T09:38:18.000Z</time>
      </trkpt>
      <trkpt lat="50.74199" lon="2.88026">
        <ele>55.799999237061</ele>
        <time>2011-10-30T09:38:23.000Z</time>
      </trkpt>
      <trkpt lat="50.74182" lon="2.88031">
        <ele>55.599998474121</ele>
        <time>2011-10-30T09:38:28.000Z</time>
      </trkpt>
      <trkpt lat="50.74163" lon="2.88038">
        <ele>55.200000762939</ele>
        <time>2011-10-30T09:38:34.000Z</time>
      </trkpt>
      <trkpt lat="50.74145" lon="2.88044">
        <ele>55</ele>
        <time>2011-10-30T09:38:40.000Z</time>
      </trkpt>
      <trkpt lat="50.74132" lon="2.88043">
        <ele>54.599998474121</ele>
        <time>2011-10-30T09:38:45.000Z</time>
      </trkpt>
      <trkpt lat="50.74129" lon="2.88043">
        <ele>54.599998474121</ele>
        <time>2011-10-30T09:38:47.000Z</time>
      </trkpt>
      <trkpt lat="50.74128" lon="2.88041">
        <ele>54.400001525879</ele>
        <time>2011-10-30T09:38:50.000Z</time>
      </trkpt>
      <trkpt lat="50.74123" lon="2.88037">
        <ele>54.200000762939</ele>
        <time>2011-10-30T09:38:57.000Z</time>
      </trkpt>
      <trkpt lat="50.74125" lon="2.88039">
        <ele>54.400001525879</ele>
        <time>2011-10-30T09:39:43.000Z</time>
      </trkpt>
      <trkpt lat="50.74127" lon="2.88041">
        <ele>54.400001525879</ele>
        <time>2011-10-30T09:39:46.000Z</time>
      </trkpt>
      <trkpt lat="50.74128" lon="2.88041">
        <ele>54.400001525879</ele>
        <time>2011-10-30T09:39:56.000Z</time>
      </trkpt>
      <trkpt lat="50.7413" lon="2.8804">
        <ele>54.400001525879</ele>
        <time>2011-10-30T09:40:05.000Z</time>
      </trkpt>
      <trkpt lat="50.74129" lon="2.88049">
        <ele>54.599998474121</ele>
        <time>2011-10-30T09:41:25.000Z</time>
      </trkpt>
      <trkpt lat="50.74129" lon="2.88052">
        <ele>54.599998474121</ele>
        <time>2011-10-30T09:41:30.000Z</time>
      </trkpt>
      <trkpt lat="50.74124" lon="2.88054">
        <ele>54.599998474121</ele>
        <time>2011-10-30T09:41:35.000Z</time>
      </trkpt>
      <trkpt lat="50.74119" lon="2.88054">
        <ele>54.400001525879</ele>
        <time>2011-10-30T09:41:39.000Z</time>
      </trkpt>
      <trkpt lat="50.74118" lon="2.88042">
        <ele>54.200000762939</ele>
        <time>2011-10-30T09:41:45.000Z</time>
      </trkpt>
      <trkpt lat="50.74117" lon="2.88034">
        <ele>54.200000762939</ele>
        <time>2011-10-30T09:41:51.000Z</time>
      </trkpt>
      <trkpt lat="50.74117" lon="2.88033">
        <ele>54</ele>
        <time>2011-10-30T09:41:53.000Z</time>
      </trkpt>
      <trkpt lat="50.74111" lon="2.88024">
        <ele>53.799999237061</ele>
        <time>2011-10-30T09:41:58.000Z</time>
      </trkpt>
      <trkpt lat="50.74111" lon="2.88023">
        <ele>53.799999237061</ele>
        <time>2011-10-30T09:41:59.000Z</time>
      </trkpt>
      <trkpt lat="50.74105" lon="2.8802">
        <ele>53.599998474121</ele>
        <time>2011-10-30T09:42:42.000Z</time>
      </trkpt>
      <trkpt lat="50.74102" lon="2.8802">
        <ele>53.599998474121</ele>
        <time>2011-10-30T09:42:45.000Z</time>
      </trkpt>
      <trkpt lat="50.74094" lon="2.8802">
        <ele>53.400001525879</ele>
        <time>2011-10-30T09:42:51.000Z</time>
      </trkpt>
      <trkpt lat="50.74088" lon="2.88022">
        <ele>53.200000762939</ele>
        <time>2011-10-30T09:42:53.000Z</time>
      </trkpt>
      <trkpt lat="50.7407" lon="2.88026">
        <ele>51.599998474121</ele>
        <time>2011-10-30T09:42:58.000Z</time>
      </trkpt>
      <trkpt lat="50.74053" lon="2.88026">
        <ele>49.200000762939</ele>
        <time>2011-10-30T09:43:03.000Z</time>
      </trkpt>
      <trkpt lat="50.74035" lon="2.88028">
        <ele>47</ele>
        <time>2011-10-30T09:43:09.000Z</time>
      </trkpt>
      <trkpt lat="50.74022" lon="2.88028">
        <ele>45.200000762939</ele>
        <time>2011-10-30T09:43:13.000Z</time>
      </trkpt>
      <trkpt lat="50.74006" lon="2.88029">
        <ele>43</ele>
        <time>2011-10-30T09:43:17.000Z</time>
      </trkpt>
      <trkpt lat="50.73985" lon="2.88035">
        <ele>39.599998474121</ele>
        <time>2011-10-30T09:43:22.000Z</time>
      </trkpt>
      <trkpt lat="50.73967" lon="2.88038">
        <ele>36.599998474121</ele>
        <time>2011-10-30T09:43:28.000Z</time>
      </trkpt>
      <trkpt lat="50.73955" lon="2.8804">
        <ele>34.400001525879</ele>
        <time>2011-10-30T09:43:33.000Z</time>
      </trkpt>
      <trkpt lat="50.73938" lon="2.88043">
        <ele>31.60000038147</ele>
        <time>2011-10-30T09:43:38.000Z</time>
      </trkpt>
      <trkpt lat="50.73934" lon="2.88042">
        <ele>30.799999237061</ele>
        <time>2011-10-30T09:43:42.000Z</time>
      </trkpt>
      <trkpt lat="50.73932" lon="2.88047">
        <ele>30.60000038147</ele>
        <time>2011-10-30T09:43:48.000Z</time>
      </trkpt>
      <trkpt lat="50.73927" lon="2.8805">
        <ele>29.60000038147</ele>
        <time>2011-10-30T09:43:53.000Z</time>
      </trkpt>
      <trkpt lat="50.73925" lon="2.8805">
        <ele>29.39999961853</ele>
        <time>2011-10-30T09:43:54.000Z</time>
      </trkpt>
      <trkpt lat="50.73922" lon="2.8804">
        <ele>28.799999237061</ele>
        <time>2011-10-30T09:43:58.000Z</time>
      </trkpt>
      <trkpt lat="50.73923" lon="2.88034">
        <ele>29</ele>
        <time>2011-10-30T09:44:01.000Z</time>
      </trkpt>
      <trkpt lat="50.73922" lon="2.88006">
        <ele>28.799999237061</ele>
        <time>2011-10-30T09:44:08.000Z</time>
      </trkpt>
      <trkpt lat="50.73921" lon="2.87979">
        <ele>27.799999237061</ele>
        <time>2011-10-30T09:44:13.000Z</time>
      </trkpt>
      <trkpt lat="50.7392" lon="2.87948">
        <ele>26.60000038147</ele>
        <time>2011-10-30T09:44:19.000Z</time>
      </trkpt>
      <trkpt lat="50.73924" lon="2.8792">
        <ele>26.39999961853</ele>
        <time>2011-10-30T09:44:24.000Z</time>
      </trkpt>
      <trkpt lat="50.73933" lon="2.87893">
        <ele>27.39999961853</ele>
        <time>2011-10-30T09:44:29.000Z</time>
      </trkpt>
      <trkpt lat="50.73943" lon="2.87868">
        <ele>28.39999961853</ele>
        <time>2011-10-30T09:44:34.000Z</time>
      </trkpt>
      <trkpt lat="50.73952" lon="2.87843">
        <ele>29.200000762939</ele>
        <time>2011-10-30T09:44:39.000Z</time>
      </trkpt>
      <trkpt lat="50.73962" lon="2.87818">
        <ele>30.39999961853</ele>
        <time>2011-10-30T09:44:44.000Z</time>
      </trkpt>
      <trkpt lat="50.73972" lon="2.87792">
        <ele>31.200000762939</ele>
        <time>2011-10-30T09:44:49.000Z</time>
      </trkpt>
      <trkpt lat="50.73981" lon="2.87766">
        <ele>31.39999961853</ele>
        <time>2011-10-30T09:44:54.000Z</time>
      </trkpt>
      <trkpt lat="50.7399" lon="2.8774">
        <ele>31.200000762939</ele>
        <time>2011-10-30T09:44:59.000Z</time>
      </trkpt>
      <trkpt lat="50.74" lon="2.87715">
        <ele>30.60000038147</ele>
        <time>2011-10-30T09:45:04.000Z</time>
      </trkpt>
      <trkpt lat="50.74009" lon="2.87689">
        <ele>31</ele>
        <time>2011-10-30T09:45:09.000Z</time>
      </trkpt>
      <trkpt lat="50.74019" lon="2.87664">
        <ele>31.39999961853</ele>
        <time>2011-10-30T09:45:14.000Z</time>
      </trkpt>
      <trkpt lat="50.74028" lon="2.87637">
        <ele>32.200000762939</ele>
        <time>2011-10-30T09:45:19.000Z</time>
      </trkpt>
      <trkpt lat="50.74037" lon="2.87615">
        <ele>32.799999237061</ele>
        <time>2011-10-30T09:45:24.000Z</time>
      </trkpt>
      <trkpt lat="50.74046" lon="2.8759">
        <ele>32.799999237061</ele>
        <time>2011-10-30T09:45:29.000Z</time>
      </trkpt>
      <trkpt lat="50.74056" lon="2.87562">
        <ele>32.799999237061</ele>
        <time>2011-10-30T09:45:35.000Z</time>
      </trkpt>
      <trkpt lat="50.74066" lon="2.87535">
        <ele>32.599998474121</ele>
        <time>2011-10-30T09:45:41.000Z</time>
      </trkpt>
      <trkpt lat="50.74076" lon="2.87508">
        <ele>32</ele>
        <time>2011-10-30T09:45:47.000Z</time>
      </trkpt>
      <trkpt lat="50.74085" lon="2.87481">
        <ele>31.200000762939</ele>
        <time>2011-10-30T09:45:53.000Z</time>
      </trkpt>
      <trkpt lat="50.74095" lon="2.87457">
        <ele>31.39999961853</ele>
        <time>2011-10-30T09:45:59.000Z</time>
      </trkpt>
      <trkpt lat="50.74101" lon="2.87439">
        <ele>31.39999961853</ele>
        <time>2011-10-30T09:46:04.000Z</time>
      </trkpt>
      <trkpt lat="50.74104" lon="2.87427">
        <ele>31.39999961853</ele>
        <time>2011-10-30T09:46:09.000Z</time>
      </trkpt>
      <trkpt lat="50.74102" lon="2.87423">
        <ele>30.799999237061</ele>
        <time>2011-10-30T09:46:19.000Z</time>
      </trkpt>
      <trkpt lat="50.74102" lon="2.87425">
        <ele>31</ele>
        <time>2011-10-30T09:46:24.000Z</time>
      </trkpt>
      <trkpt lat="50.74102" lon="2.87427">
        <ele>31</ele>
        <time>2011-10-30T09:46:30.000Z</time>
      </trkpt>
      <trkpt lat="50.74099" lon="2.87427">
        <ele>30.60000038147</ele>
        <time>2011-10-30T09:46:36.000Z</time>
      </trkpt>
      <trkpt lat="50.74096" lon="2.8743">
        <ele>30.39999961853</ele>
        <time>2011-10-30T09:46:45.000Z</time>
      </trkpt>
      <trkpt lat="50.74098" lon="2.87427">
        <ele>30.39999961853</ele>
        <time>2011-10-30T09:48:25.000Z</time>
      </trkpt>
      <trkpt lat="50.74096" lon="2.87435">
        <ele>30.60000038147</ele>
        <time>2011-10-30T09:50:33.000Z</time>
      </trkpt>
      <trkpt lat="50.74099" lon="2.87434">
        <ele>31</ele>
        <time>2011-10-30T09:51:27.000Z</time>
      </trkpt>
      <trkpt lat="50.74104" lon="2.87431">
        <ele>31.39999961853</ele>
        <time>2011-10-30T09:51:32.000Z</time>
      </trkpt>
      <trkpt lat="50.74105" lon="2.87426">
        <ele>31.39999961853</ele>
        <time>2011-10-30T09:51:37.000Z</time>
      </trkpt>
      <trkpt lat="50.74104" lon="2.8743">
        <ele>31.60000038147</ele>
        <time>2011-10-30T09:51:42.000Z</time>
      </trkpt>
      <trkpt lat="50.74103" lon="2.87431">
        <ele>31.39999961853</ele>
        <time>2011-10-30T09:51:43.000Z</time>
      </trkpt>
      <trkpt lat="50.74101" lon="2.87431">
        <ele>31.200000762939</ele>
        <time>2011-10-30T09:51:49.000Z</time>
      </trkpt>
      <trkpt lat="50.74103" lon="2.87426">
        <ele>31</ele>
        <time>2011-10-30T09:52:06.000Z</time>
      </trkpt>
      <trkpt lat="50.74106" lon="2.87424">
        <ele>31.39999961853</ele>
        <time>2011-10-30T09:52:12.000Z</time>
      </trkpt>
      <trkpt lat="50.74106" lon="2.87423">
        <ele>31.39999961853</ele>
        <time>2011-10-30T09:52:21.000Z</time>
      </trkpt>
      <trkpt lat="50.74106" lon="2.87429">
        <ele>31.799999237061</ele>
        <time>2011-10-30T09:53:31.000Z</time>
      </trkpt>
      <trkpt lat="50.74105" lon="2.8743">
        <ele>31.60000038147</ele>
        <time>2011-10-30T09:53:49.000Z</time>
      </trkpt>
      <trkpt lat="50.74106" lon="2.87432">
        <ele>31.799999237061</ele>
        <time>2011-10-30T09:53:55.000Z</time>
      </trkpt>
      <trkpt lat="50.74106" lon="2.87434">
        <ele>32</ele>
        <time>2011-10-30T09:54:00.000Z</time>
      </trkpt>
      <trkpt lat="50.74102" lon="2.87436">
        <ele>31.60000038147</ele>
        <time>2011-10-30T09:55:17.000Z</time>
      </trkpt>
      <trkpt lat="50.741" lon="2.87435">
        <ele>31.200000762939</ele>
        <time>2011-10-30T09:55:23.000Z</time>
      </trkpt>
      <trkpt lat="50.74096" lon="2.87432">
        <ele>30.39999961853</ele>
        <time>2011-10-30T09:55:30.000Z</time>
      </trkpt>
      <trkpt lat="50.74089" lon="2.87429">
        <ele>29.200000762939</ele>
        <time>2011-10-30T09:55:34.000Z</time>
      </trkpt>
      <trkpt lat="50.74072" lon="2.87425">
        <ele>28.39999961853</ele>
        <time>2011-10-30T09:55:39.000Z</time>
      </trkpt>
      <trkpt lat="50.74052" lon="2.87424">
        <ele>28.200000762939</ele>
        <time>2011-10-30T09:55:44.000Z</time>
      </trkpt>
      <trkpt lat="50.74036" lon="2.87424">
        <ele>28.200000762939</ele>
        <time>2011-10-30T09:55:49.000Z</time>
      </trkpt>
      <trkpt lat="50.74016" lon="2.87421">
        <ele>28</ele>
        <time>2011-10-30T09:55:54.000Z</time>
      </trkpt>
      <trkpt lat="50.73996" lon="2.87418">
        <ele>28.200000762939</ele>
        <time>2011-10-30T09:55:58.000Z</time>
      </trkpt>
      <trkpt lat="50.73975" lon="2.87418">
        <ele>28.799999237061</ele>
        <time>2011-10-30T09:56:02.000Z</time>
      </trkpt>
      <trkpt lat="50.73966" lon="2.87419">
        <ele>29.200000762939</ele>
        <time>2011-10-30T09:56:04.000Z</time>
      </trkpt>
      <trkpt lat="50.73942" lon="2.87421">
        <ele>30</ele>
        <time>2011-10-30T09:56:09.000Z</time>
      </trkpt>
      <trkpt lat="50.73937" lon="2.87422">
        <ele>30.200000762939</ele>
        <time>2011-10-30T09:56:10.000Z</time>
      </trkpt>
      <trkpt lat="50.73917" lon="2.87428">
        <ele>30.799999237061</ele>
        <time>2011-10-30T09:56:14.000Z</time>
      </trkpt>
      <trkpt lat="50.73898" lon="2.87435">
        <ele>31.200000762939</ele>
        <time>2011-10-30T09:56:18.000Z</time>
      </trkpt>
      <trkpt lat="50.73894" lon="2.87437">
        <ele>31.200000762939</ele>
        <time>2011-10-30T09:56:19.000Z</time>
      </trkpt>
      <trkpt lat="50.73875" lon="2.87447">
        <ele>31.39999961853</ele>
        <time>2011-10-30T09:56:23.000Z</time>
      </trkpt>
      <trkpt lat="50.73856" lon="2.87457">
        <ele>31.60000038147</ele>
        <time>2011-10-30T09:56:27.000Z</time>
      </trkpt>
      <trkpt lat="50.73837" lon="2.87469">
        <ele>31.799999237061</ele>
        <time>2011-10-30T09:56:31.000Z</time>
      </trkpt>
      <trkpt lat="50.73819" lon="2.87479">
        <ele>31.39999961853</ele>
        <time>2011-10-30T09:56:35.000Z</time>
      </trkpt>
      <trkpt lat="50.73801" lon="2.87487">
        <ele>30.799999237061</ele>
        <time>2011-10-30T09:56:39.000Z</time>
      </trkpt>
      <trkpt lat="50.73782" lon="2.87496">
        <ele>30.200000762939</ele>
        <time>2011-10-30T09:56:43.000Z</time>
      </trkpt>
      <trkpt lat="50.73778" lon="2.87498">
        <ele>30</ele>
        <time>2011-10-30T09:56:44.000Z</time>
      </trkpt>
      <trkpt lat="50.7376" lon="2.87509">
        <ele>29</ele>
        <time>2011-10-30T09:56:48.000Z</time>
      </trkpt>
      <trkpt lat="50.73742" lon="2.87519">
        <ele>28</ele>
        <time>2011-10-30T09:56:52.000Z</time>
      </trkpt>
      <trkpt lat="50.73724" lon="2.87527">
        <ele>26.60000038147</ele>
        <time>2011-10-30T09:56:56.000Z</time>
      </trkpt>
      <trkpt lat="50.73706" lon="2.87536">
        <ele>25.200000762939</ele>
        <time>2011-10-30T09:57:00.000Z</time>
      </trkpt>
      <trkpt lat="50.73691" lon="2.87544">
        <ele>24</ele>
        <time>2011-10-30T09:57:03.000Z</time>
      </trkpt>
      <trkpt lat="50.73668" lon="2.87555">
        <ele>22</ele>
        <time>2011-10-30T09:57:08.000Z</time>
      </trkpt>
      <trkpt lat="50.73652" lon="2.87562">
        <ele>21.200000762939</ele>
        <time>2011-10-30T09:57:12.000Z</time>
      </trkpt>
      <trkpt lat="50.73635" lon="2.87567">
        <ele>20.39999961853</ele>
        <time>2011-10-30T09:57:16.000Z</time>
      </trkpt>
      <trkpt lat="50.73611" lon="2.87575">
        <ele>19.60000038147</ele>
        <time>2011-10-30T09:57:21.000Z</time>
      </trkpt>
      <trkpt lat="50.73593" lon="2.87578">
        <ele>19</ele>
        <time>2011-10-30T09:57:25.000Z</time>
      </trkpt>
      <trkpt lat="50.73574" lon="2.87576">
        <ele>18.60000038147</ele>
        <time>2011-10-30T09:57:30.000Z</time>
      </trkpt>
      <trkpt lat="50.73571" lon="2.87576">
        <ele>18.60000038147</ele>
        <time>2011-10-30T09:57:31.000Z</time>
      </trkpt>
      <trkpt lat="50.73566" lon="2.87576">
        <ele>18.60000038147</ele>
        <time>2011-10-30T09:57:33.000Z</time>
      </trkpt>
      <trkpt lat="50.73564" lon="2.87593">
        <ele>18.60000038147</ele>
        <time>2011-10-30T09:57:38.000Z</time>
      </trkpt>
      <trkpt lat="50.73563" lon="2.87626">
        <ele>18.799999237061</ele>
        <time>2011-10-30T09:57:44.000Z</time>
      </trkpt>
      <trkpt lat="50.73564" lon="2.87656">
        <ele>18.799999237061</ele>
        <time>2011-10-30T09:57:49.000Z</time>
      </trkpt>
      <trkpt lat="50.73565" lon="2.87686">
        <ele>19</ele>
        <time>2011-10-30T09:57:54.000Z</time>
      </trkpt>
      <trkpt lat="50.73565" lon="2.87719">
        <ele>19</ele>
        <time>2011-10-30T09:57:59.000Z</time>
      </trkpt>
      <trkpt lat="50.73564" lon="2.87751">
        <ele>18.799999237061</ele>
        <time>2011-10-30T09:58:04.000Z</time>
      </trkpt>
      <trkpt lat="50.73563" lon="2.8778">
        <ele>18.60000038147</ele>
        <time>2011-10-30T09:58:08.000Z</time>
      </trkpt>
      <trkpt lat="50.7356" lon="2.87815">
        <ele>18.200000762939</ele>
        <time>2011-10-30T09:58:13.000Z</time>
      </trkpt>
      <trkpt lat="50.73558" lon="2.87845">
        <ele>17.60000038147</ele>
        <time>2011-10-30T09:58:17.000Z</time>
      </trkpt>
      <trkpt lat="50.73553" lon="2.87882">
        <ele>17</ele>
        <time>2011-10-30T09:58:22.000Z</time>
      </trkpt>
      <trkpt lat="50.73549" lon="2.87913">
        <ele>16.39999961853</ele>
        <time>2011-10-30T09:58:26.000Z</time>
      </trkpt>
      <trkpt lat="50.73545" lon="2.87945">
        <ele>16.60000038147</ele>
        <time>2011-10-30T09:58:30.000Z</time>
      </trkpt>
      <trkpt lat="50.73541" lon="2.87975">
        <ele>17.200000762939</ele>
        <time>2011-10-30T09:58:34.000Z</time>
      </trkpt>
      <trkpt lat="50.73539" lon="2.88006">
        <ele>17.60000038147</ele>
        <time>2011-10-30T09:58:38.000Z</time>
      </trkpt>
      <trkpt lat="50.73537" lon="2.88038">
        <ele>18.200000762939</ele>
        <time>2011-10-30T09:58:42.000Z</time>
      </trkpt>
      <trkpt lat="50.73535" lon="2.88068">
        <ele>18.60000038147</ele>
        <time>2011-10-30T09:58:46.000Z</time>
      </trkpt>
      <trkpt lat="50.73535" lon="2.88076">
        <ele>18.799999237061</ele>
        <time>2011-10-30T09:58:47.000Z</time>
      </trkpt>
      <trkpt lat="50.73537" lon="2.88116">
        <ele>19.39999961853</ele>
        <time>2011-10-30T09:58:53.000Z</time>
      </trkpt>
      <trkpt lat="50.73537" lon="2.88122">
        <ele>19.60000038147</ele>
        <time>2011-10-30T09:58:54.000Z</time>
      </trkpt>
      <trkpt lat="50.73532" lon="2.88135">
        <ele>19.60000038147</ele>
        <time>2011-10-30T09:58:57.000Z</time>
      </trkpt>
      <trkpt lat="50.73529" lon="2.88134">
        <ele>19.60000038147</ele>
        <time>2011-10-30T09:58:58.000Z</time>
      </trkpt>
      <trkpt lat="50.73525" lon="2.88133">
        <ele>19.39999961853</ele>
        <time>2011-10-30T09:58:59.000Z</time>
      </trkpt>
      <trkpt lat="50.73503" lon="2.88122">
        <ele>19</ele>
        <time>2011-10-30T09:59:04.000Z</time>
      </trkpt>
      <trkpt lat="50.73484" lon="2.88114">
        <ele>18.799999237061</ele>
        <time>2011-10-30T09:59:08.000Z</time>
      </trkpt>
      <trkpt lat="50.73465" lon="2.88106">
        <ele>18.39999961853</ele>
        <time>2011-10-30T09:59:12.000Z</time>
      </trkpt>
      <trkpt lat="50.73446" lon="2.88097">
        <ele>18.200000762939</ele>
        <time>2011-10-30T09:59:16.000Z</time>
      </trkpt>
      <trkpt lat="50.73423" lon="2.88086">
        <ele>18</ele>
        <time>2011-10-30T09:59:20.000Z</time>
      </trkpt>
      <trkpt lat="50.73401" lon="2.88075">
        <ele>18</ele>
        <time>2011-10-30T09:59:25.000Z</time>
      </trkpt>
      <trkpt lat="50.73381" lon="2.88066">
        <ele>18.39999961853</ele>
        <time>2011-10-30T09:59:29.000Z</time>
      </trkpt>
      <trkpt lat="50.7336" lon="2.88057">
        <ele>18.60000038147</ele>
        <time>2011-10-30T09:59:33.000Z</time>
      </trkpt>
      <trkpt lat="50.7334" lon="2.88048">
        <ele>19.200000762939</ele>
        <time>2011-10-30T09:59:37.000Z</time>
      </trkpt>
      <trkpt lat="50.73319" lon="2.88039">
        <ele>19.39999961853</ele>
        <time>2011-10-30T09:59:41.000Z</time>
      </trkpt>
      <trkpt lat="50.733" lon="2.8803">
        <ele>19.39999961853</ele>
        <time>2011-10-30T09:59:45.000Z</time>
      </trkpt>
      <trkpt lat="50.73279" lon="2.8802">
        <ele>19.39999961853</ele>
        <time>2011-10-30T09:59:50.000Z</time>
      </trkpt>
      <trkpt lat="50.73259" lon="2.88011">
        <ele>19.200000762939</ele>
        <time>2011-10-30T09:59:55.000Z</time>
      </trkpt>
      <trkpt lat="50.73239" lon="2.88002">
        <ele>18.799999237061</ele>
        <time>2011-10-30T10:00:00.000Z</time>
      </trkpt>
      <trkpt lat="50.73219" lon="2.87993">
        <ele>18.39999961853</ele>
        <time>2011-10-30T10:00:06.000Z</time>
      </trkpt>
      <trkpt lat="50.73209" lon="2.87988">
        <ele>18.39999961853</ele>
        <time>2011-10-30T10:00:11.000Z</time>
      </trkpt>
      <trkpt lat="50.73197" lon="2.87983">
        <ele>18.200000762939</ele>
        <time>2011-10-30T10:00:17.000Z</time>
      </trkpt>
      <trkpt lat="50.73181" lon="2.87976">
        <ele>17.799999237061</ele>
        <time>2011-10-30T10:00:22.000Z</time>
      </trkpt>
      <trkpt lat="50.73165" lon="2.87968">
        <ele>17.60000038147</ele>
        <time>2011-10-30T10:00:27.000Z</time>
      </trkpt>
      <trkpt lat="50.73146" lon="2.87959">
        <ele>17.200000762939</ele>
        <time>2011-10-30T10:00:32.000Z</time>
      </trkpt>
      <trkpt lat="50.73125" lon="2.8795">
        <ele>17.200000762939</ele>
        <time>2011-10-30T10:00:37.000Z</time>
      </trkpt>
      <trkpt lat="50.73107" lon="2.87942">
        <ele>17</ele>
        <time>2011-10-30T10:00:41.000Z</time>
      </trkpt>
      <trkpt lat="50.73088" lon="2.87934">
        <ele>17</ele>
        <time>2011-10-30T10:00:45.000Z</time>
      </trkpt>
      <trkpt lat="50.7307" lon="2.87925">
        <ele>17</ele>
        <time>2011-10-30T10:00:49.000Z</time>
      </trkpt>
      <trkpt lat="50.73052" lon="2.87917">
        <ele>17.200000762939</ele>
        <time>2011-10-30T10:00:53.000Z</time>
      </trkpt>
      <trkpt lat="50.73032" lon="2.87909">
        <ele>17.39999961853</ele>
        <time>2011-10-30T10:00:58.000Z</time>
      </trkpt>
      <trkpt lat="50.73015" lon="2.87901">
        <ele>17.60000038147</ele>
        <time>2011-10-30T10:01:02.000Z</time>
      </trkpt>
      <trkpt lat="50.72997" lon="2.87894">
        <ele>17.60000038147</ele>
        <time>2011-10-30T10:01:06.000Z</time>
      </trkpt>
      <trkpt lat="50.72994" lon="2.87893">
        <ele>17.60000038147</ele>
        <time>2011-10-30T10:01:07.000Z</time>
      </trkpt>
      <trkpt lat="50.7299" lon="2.87891">
        <ele>17.60000038147</ele>
        <time>2011-10-30T10:01:08.000Z</time>
      </trkpt>
      <trkpt lat="50.72983" lon="2.87886">
        <ele>17.60000038147</ele>
        <time>2011-10-30T10:01:10.000Z</time>
      </trkpt>
      <trkpt lat="50.7297" lon="2.87881">
        <ele>17.799999237061</ele>
        <time>2011-10-30T10:01:16.000Z</time>
      </trkpt>
      <trkpt lat="50.72968" lon="2.87883">
        <ele>17.799999237061</ele>
        <time>2011-10-30T10:01:17.000Z</time>
      </trkpt>
      <trkpt lat="50.72972" lon="2.8789">
        <ele>17.799999237061</ele>
        <time>2011-10-30T10:01:21.000Z</time>
      </trkpt>
      <trkpt lat="50.72984" lon="2.87896">
        <ele>17.799999237061</ele>
        <time>2011-10-30T10:01:28.000Z</time>
      </trkpt>
      <trkpt lat="50.73004" lon="2.87906">
        <ele>17.799999237061</ele>
        <time>2011-10-30T10:01:34.000Z</time>
      </trkpt>
      <trkpt lat="50.73023" lon="2.87913">
        <ele>17.60000038147</ele>
        <time>2011-10-30T10:01:39.000Z</time>
      </trkpt>
      <trkpt lat="50.73044" lon="2.87922">
        <ele>17.39999961853</ele>
        <time>2011-10-30T10:01:44.000Z</time>
      </trkpt>
      <trkpt lat="50.73061" lon="2.87931">
        <ele>17.200000762939</ele>
        <time>2011-10-30T10:01:48.000Z</time>
      </trkpt>
      <trkpt lat="50.73083" lon="2.8794">
        <ele>17</ele>
        <time>2011-10-30T10:01:53.000Z</time>
      </trkpt>
      <trkpt lat="50.73104" lon="2.87949">
        <ele>17</ele>
        <time>2011-10-30T10:01:58.000Z</time>
      </trkpt>
      <trkpt lat="50.73124" lon="2.87958">
        <ele>17.200000762939</ele>
        <time>2011-10-30T10:02:03.000Z</time>
      </trkpt>
      <trkpt lat="50.73142" lon="2.87966">
        <ele>17.39999961853</ele>
        <time>2011-10-30T10:02:08.000Z</time>
      </trkpt>
      <trkpt lat="50.7316" lon="2.87973">
        <ele>17.60000038147</ele>
        <time>2011-10-30T10:02:13.000Z</time>
      </trkpt>
      <trkpt lat="50.73178" lon="2.8798">
        <ele>17.799999237061</ele>
        <time>2011-10-30T10:02:18.000Z</time>
      </trkpt>
      <trkpt lat="50.73197" lon="2.87989">
        <ele>18.200000762939</ele>
        <time>2011-10-30T10:02:24.000Z</time>
      </trkpt>
      <trkpt lat="50.73215" lon="2.87998">
        <ele>18.39999961853</ele>
        <time>2011-10-30T10:02:31.000Z</time>
      </trkpt>
      <trkpt lat="50.73218" lon="2.88001">
        <ele>18.60000038147</ele>
        <time>2011-10-30T10:02:33.000Z</time>
      </trkpt>
      <trkpt lat="50.73221" lon="2.88017">
        <ele>18.799999237061</ele>
        <time>2011-10-30T10:02:38.000Z</time>
      </trkpt>
      <trkpt lat="50.73222" lon="2.88038">
        <ele>19</ele>
        <time>2011-10-30T10:02:45.000Z</time>
      </trkpt>
      <trkpt lat="50.73221" lon="2.8805">
        <ele>19.200000762939</ele>
        <time>2011-10-30T10:02:50.000Z</time>
      </trkpt>
      <trkpt lat="50.73222" lon="2.88074">
        <ele>19.39999961853</ele>
        <time>2011-10-30T10:02:56.000Z</time>
      </trkpt>
      <trkpt lat="50.73222" lon="2.88079">
        <ele>19.60000038147</ele>
        <time>2011-10-30T10:02:57.000Z</time>
      </trkpt>
      <trkpt lat="50.73221" lon="2.88108">
        <ele>20.200000762939</ele>
        <time>2011-10-30T10:03:02.000Z</time>
      </trkpt>
      <trkpt lat="50.73221" lon="2.8814">
        <ele>21.200000762939</ele>
        <time>2011-10-30T10:03:07.000Z</time>
      </trkpt>
      <trkpt lat="50.73221" lon="2.88166">
        <ele>21.799999237061</ele>
        <time>2011-10-30T10:03:11.000Z</time>
      </trkpt>
      <trkpt lat="50.73227" lon="2.882">
        <ele>23.60000038147</ele>
        <time>2011-10-30T10:03:17.000Z</time>
      </trkpt>
      <trkpt lat="50.73228" lon="2.88237">
        <ele>25.60000038147</ele>
        <time>2011-10-30T10:03:22.000Z</time>
      </trkpt>
      <trkpt lat="50.7323" lon="2.88266">
        <ele>26.60000038147</ele>
        <time>2011-10-30T10:03:26.000Z</time>
      </trkpt>
      <trkpt lat="50.7323" lon="2.88297">
        <ele>27</ele>
        <time>2011-10-30T10:03:30.000Z</time>
      </trkpt>
      <trkpt lat="50.73231" lon="2.88333">
        <ele>27.39999961853</ele>
        <time>2011-10-30T10:03:35.000Z</time>
      </trkpt>
      <trkpt lat="50.73232" lon="2.88362">
        <ele>25.799999237061</ele>
        <time>2011-10-30T10:03:39.000Z</time>
      </trkpt>
      <trkpt lat="50.73232" lon="2.88391">
        <ele>24.200000762939</ele>
        <time>2011-10-30T10:03:43.000Z</time>
      </trkpt>
      <trkpt lat="50.73232" lon="2.88397">
        <ele>23.799999237061</ele>
        <time>2011-10-30T10:03:44.000Z</time>
      </trkpt>
      <trkpt lat="50.7324" lon="2.88404">
        <ele>24</ele>
        <time>2011-10-30T10:03:48.000Z</time>
      </trkpt>
      <trkpt lat="50.73243" lon="2.88403">
        <ele>24.200000762939</ele>
        <time>2011-10-30T10:03:49.000Z</time>
      </trkpt>
      <trkpt lat="50.73262" lon="2.88402">
        <ele>24.200000762939</ele>
        <time>2011-10-30T10:03:55.000Z</time>
      </trkpt>
      <trkpt lat="50.73283" lon="2.884">
        <ele>22.799999237061</ele>
        <time>2011-10-30T10:04:01.000Z</time>
      </trkpt>
      <trkpt lat="50.73305" lon="2.88397">
        <ele>21.39999961853</ele>
        <time>2011-10-30T10:04:06.000Z</time>
      </trkpt>
      <trkpt lat="50.73321" lon="2.88393">
        <ele>20.39999961853</ele>
        <time>2011-10-30T10:04:10.000Z</time>
      </trkpt>
      <trkpt lat="50.73339" lon="2.88391">
        <ele>19.60000038147</ele>
        <time>2011-10-30T10:04:14.000Z</time>
      </trkpt>
      <trkpt lat="50.73358" lon="2.88388">
        <ele>20</ele>
        <time>2011-10-30T10:04:18.000Z</time>
      </trkpt>
      <trkpt lat="50.73377" lon="2.88387">
        <ele>20.39999961853</ele>
        <time>2011-10-30T10:04:22.000Z</time>
      </trkpt>
      <trkpt lat="50.73395" lon="2.88387">
        <ele>20.60000038147</ele>
        <time>2011-10-30T10:04:26.000Z</time>
      </trkpt>
      <trkpt lat="50.73414" lon="2.88386">
        <ele>21</ele>
        <time>2011-10-30T10:04:30.000Z</time>
      </trkpt>
      <trkpt lat="50.73436" lon="2.88385">
        <ele>23</ele>
        <time>2011-10-30T10:04:35.000Z</time>
      </trkpt>
      <trkpt lat="50.73441" lon="2.88383">
        <ele>23.39999961853</ele>
        <time>2011-10-30T10:04:36.000Z</time>
      </trkpt>
      <trkpt lat="50.7346" lon="2.88376">
        <ele>25.200000762939</ele>
        <time>2011-10-30T10:04:40.000Z</time>
      </trkpt>
      <trkpt lat="50.73464" lon="2.88373">
        <ele>25.799999237061</ele>
        <time>2011-10-30T10:04:41.000Z</time>
      </trkpt>
      <trkpt lat="50.73476" lon="2.88367">
        <ele>26.799999237061</ele>
        <time>2011-10-30T10:04:44.000Z</time>
      </trkpt>
      <trkpt lat="50.73481" lon="2.88366">
        <ele>27.200000762939</ele>
        <time>2011-10-30T10:04:45.000Z</time>
      </trkpt>
      <trkpt lat="50.73499" lon="2.88362">
        <ele>28.799999237061</ele>
        <time>2011-10-30T10:04:49.000Z</time>
      </trkpt>
      <trkpt lat="50.73522" lon="2.8836">
        <ele>28.799999237061</ele>
        <time>2011-10-30T10:04:54.000Z</time>
      </trkpt>
      <trkpt lat="50.73541" lon="2.88359">
        <ele>28.60000038147</ele>
        <time>2011-10-30T10:04:58.000Z</time>
      </trkpt>
      <trkpt lat="50.7356" lon="2.88359">
        <ele>28.39999961853</ele>
        <time>2011-10-30T10:05:02.000Z</time>
      </trkpt>
      <trkpt lat="50.73568" lon="2.88359">
        <ele>28.39999961853</ele>
        <time>2011-10-30T10:05:04.000Z</time>
      </trkpt>
      <trkpt lat="50.73577" lon="2.88358">
        <ele>28.200000762939</ele>
        <time>2011-10-30T10:05:06.000Z</time>
      </trkpt>
      <trkpt lat="50.73594" lon="2.88349">
        <ele>27.799999237061</ele>
        <time>2011-10-30T10:05:10.000Z</time>
      </trkpt>
      <trkpt lat="50.73603" lon="2.88348">
        <ele>27.39999961853</ele>
        <time>2011-10-30T10:05:12.000Z</time>
      </trkpt>
      <trkpt lat="50.73611" lon="2.88347">
        <ele>27.200000762939</ele>
        <time>2011-10-30T10:05:14.000Z</time>
      </trkpt>
      <trkpt lat="50.73623" lon="2.8835">
        <ele>26.799999237061</ele>
        <time>2011-10-30T10:05:17.000Z</time>
      </trkpt>
      <trkpt lat="50.7364" lon="2.88354">
        <ele>26.200000762939</ele>
        <time>2011-10-30T10:05:21.000Z</time>
      </trkpt>
      <trkpt lat="50.73663" lon="2.88358">
        <ele>25.200000762939</ele>
        <time>2011-10-30T10:05:26.000Z</time>
      </trkpt>
      <trkpt lat="50.73684" lon="2.88361">
        <ele>24.60000038147</ele>
        <time>2011-10-30T10:05:30.000Z</time>
      </trkpt>
      <trkpt lat="50.73698" lon="2.88365">
        <ele>24.200000762939</ele>
        <time>2011-10-30T10:05:33.000Z</time>
      </trkpt>
      <trkpt lat="50.7372" lon="2.88376">
        <ele>23.39999961853</ele>
        <time>2011-10-30T10:05:38.000Z</time>
      </trkpt>
      <trkpt lat="50.73738" lon="2.88384">
        <ele>22.799999237061</ele>
        <time>2011-10-30T10:05:42.000Z</time>
      </trkpt>
      <trkpt lat="50.73743" lon="2.88385">
        <ele>22.799999237061</ele>
        <time>2011-10-30T10:05:43.000Z</time>
      </trkpt>
      <trkpt lat="50.73766" lon="2.8839">
        <ele>21.60000038147</ele>
        <time>2011-10-30T10:05:48.000Z</time>
      </trkpt>
      <trkpt lat="50.73785" lon="2.88391">
        <ele>20.39999961853</ele>
        <time>2011-10-30T10:05:52.000Z</time>
      </trkpt>
      <trkpt lat="50.73804" lon="2.88391">
        <ele>19.200000762939</ele>
        <time>2011-10-30T10:05:56.000Z</time>
      </trkpt>
      <trkpt lat="50.73826" lon="2.88391">
        <ele>18</ele>
        <time>2011-10-30T10:06:01.000Z</time>
      </trkpt>
      <trkpt lat="50.73847" lon="2.88391">
        <ele>18.39999961853</ele>
        <time>2011-10-30T10:06:06.000Z</time>
      </trkpt>
      <trkpt lat="50.73869" lon="2.88393">
        <ele>20</ele>
        <time>2011-10-30T10:06:11.000Z</time>
      </trkpt>
      <trkpt lat="50.7389" lon="2.88396">
        <ele>21.200000762939</ele>
        <time>2011-10-30T10:06:16.000Z</time>
      </trkpt>
      <trkpt lat="50.7391" lon="2.88401">
        <ele>22.60000038147</ele>
        <time>2011-10-30T10:06:21.000Z</time>
      </trkpt>
      <trkpt lat="50.73918" lon="2.88402">
        <ele>23.200000762939</ele>
        <time>2011-10-30T10:06:23.000Z</time>
      </trkpt>
      <trkpt lat="50.73929" lon="2.88404">
        <ele>25</ele>
        <time>2011-10-30T10:06:27.000Z</time>
      </trkpt>
      <trkpt lat="50.7393" lon="2.88405">
        <ele>25.200000762939</ele>
        <time>2011-10-30T10:06:28.000Z</time>
      </trkpt>
      <trkpt lat="50.73936" lon="2.88422">
        <ele>26</ele>
        <time>2011-10-30T10:06:34.000Z</time>
      </trkpt>
      <trkpt lat="50.73937" lon="2.88456">
        <ele>24.39999961853</ele>
        <time>2011-10-30T10:06:40.000Z</time>
      </trkpt>
      <trkpt lat="50.73933" lon="2.88489">
        <ele>22.39999961853</ele>
        <time>2011-10-30T10:06:45.000Z</time>
      </trkpt>
      <trkpt lat="50.73932" lon="2.88496">
        <ele>22</ele>
        <time>2011-10-30T10:06:46.000Z</time>
      </trkpt>
      <trkpt lat="50.73929" lon="2.88525">
        <ele>20.60000038147</ele>
        <time>2011-10-30T10:06:50.000Z</time>
      </trkpt>
      <trkpt lat="50.73931" lon="2.8856">
        <ele>19.60000038147</ele>
        <time>2011-10-30T10:06:55.000Z</time>
      </trkpt>
      <trkpt lat="50.73933" lon="2.88589">
        <ele>19</ele>
        <time>2011-10-30T10:06:59.000Z</time>
      </trkpt>
      <trkpt lat="50.73936" lon="2.88617">
        <ele>19.200000762939</ele>
        <time>2011-10-30T10:07:03.000Z</time>
      </trkpt>
      <trkpt lat="50.73937" lon="2.88632">
        <ele>19.39999961853</ele>
        <time>2011-10-30T10:07:05.000Z</time>
      </trkpt>
      <trkpt lat="50.73945" lon="2.88672">
        <ele>20</ele>
        <time>2011-10-30T10:07:11.000Z</time>
      </trkpt>
      <trkpt lat="50.73954" lon="2.88704">
        <ele>20.799999237061</ele>
        <time>2011-10-30T10:07:16.000Z</time>
      </trkpt>
      <trkpt lat="50.73963" lon="2.88735">
        <ele>21.200000762939</ele>
        <time>2011-10-30T10:07:21.000Z</time>
      </trkpt>
      <trkpt lat="50.7397" lon="2.88762">
        <ele>21.200000762939</ele>
        <time>2011-10-30T10:07:25.000Z</time>
      </trkpt>
      <trkpt lat="50.73977" lon="2.88789">
        <ele>20.799999237061</ele>
        <time>2011-10-30T10:07:29.000Z</time>
      </trkpt>
      <trkpt lat="50.73984" lon="2.88815">
        <ele>20.200000762939</ele>
        <time>2011-10-30T10:07:33.000Z</time>
      </trkpt>
      <trkpt lat="50.73991" lon="2.88845">
        <ele>19.799999237061</ele>
        <time>2011-10-30T10:07:38.000Z</time>
      </trkpt>
      <trkpt lat="50.73999" lon="2.88876">
        <ele>19.39999961853</ele>
        <time>2011-10-30T10:07:43.000Z</time>
      </trkpt>
      <trkpt lat="50.74006" lon="2.88903">
        <ele>19.39999961853</ele>
        <time>2011-10-30T10:07:47.000Z</time>
      </trkpt>
      <trkpt lat="50.74012" lon="2.88931">
        <ele>19.200000762939</ele>
        <time>2011-10-30T10:07:51.000Z</time>
      </trkpt>
      <trkpt lat="50.74018" lon="2.88958">
        <ele>19.39999961853</ele>
        <time>2011-10-30T10:07:55.000Z</time>
      </trkpt>
      <trkpt lat="50.74025" lon="2.88985">
        <ele>19.39999961853</ele>
        <time>2011-10-30T10:07:59.000Z</time>
      </trkpt>
      <trkpt lat="50.74031" lon="2.89012">
        <ele>19.799999237061</ele>
        <time>2011-10-30T10:08:03.000Z</time>
      </trkpt>
      <trkpt lat="50.74038" lon="2.89044">
        <ele>20.799999237061</ele>
        <time>2011-10-30T10:08:08.000Z</time>
      </trkpt>
      <trkpt lat="50.74039" lon="2.89056">
        <ele>21.200000762939</ele>
        <time>2011-10-30T10:08:10.000Z</time>
      </trkpt>
      <trkpt lat="50.74042" lon="2.89069">
        <ele>21.39999961853</ele>
        <time>2011-10-30T10:08:15.000Z</time>
      </trkpt>
      <trkpt lat="50.74045" lon="2.89072">
        <ele>21.39999961853</ele>
        <time>2011-10-30T10:08:46.000Z</time>
      </trkpt>
      <trkpt lat="50.74048" lon="2.89083">
        <ele>21.39999961853</ele>
        <time>2011-10-30T10:08:51.000Z</time>
      </trkpt>
      <trkpt lat="50.74052" lon="2.89111">
        <ele>22.200000762939</ele>
        <time>2011-10-30T10:08:57.000Z</time>
      </trkpt>
      <trkpt lat="50.74057" lon="2.89143">
        <ele>23</ele>
        <time>2011-10-30T10:09:02.000Z</time>
      </trkpt>
      <trkpt lat="50.74061" lon="2.89175">
        <ele>23.39999961853</ele>
        <time>2011-10-30T10:09:07.000Z</time>
      </trkpt>
      <trkpt lat="50.74063" lon="2.89186">
        <ele>23.200000762939</ele>
        <time>2011-10-30T10:09:09.000Z</time>
      </trkpt>
      <trkpt lat="50.74069" lon="2.89204">
        <ele>22.39999961853</ele>
        <time>2011-10-30T10:09:12.000Z</time>
      </trkpt>
      <trkpt lat="50.74077" lon="2.89228">
        <ele>21.60000038147</ele>
        <time>2011-10-30T10:09:16.000Z</time>
      </trkpt>
      <trkpt lat="50.74083" lon="2.89253">
        <ele>21</ele>
        <time>2011-10-30T10:09:20.000Z</time>
      </trkpt>
      <trkpt lat="50.74092" lon="2.89283">
        <ele>21</ele>
        <time>2011-10-30T10:09:26.000Z</time>
      </trkpt>
      <trkpt lat="50.741" lon="2.89313">
        <ele>21.200000762939</ele>
        <time>2011-10-30T10:09:32.000Z</time>
      </trkpt>
      <trkpt lat="50.74108" lon="2.89343">
        <ele>20.799999237061</ele>
        <time>2011-10-30T10:09:39.000Z</time>
      </trkpt>
      <trkpt lat="50.74117" lon="2.89373">
        <ele>20</ele>
        <time>2011-10-30T10:09:45.000Z</time>
      </trkpt>
      <trkpt lat="50.74126" lon="2.89403">
        <ele>19.200000762939</ele>
        <time>2011-10-30T10:09:50.000Z</time>
      </trkpt>
      <trkpt lat="50.74136" lon="2.89435">
        <ele>18.60000038147</ele>
        <time>2011-10-30T10:09:55.000Z</time>
      </trkpt>
      <trkpt lat="50.74145" lon="2.89461">
        <ele>18.200000762939</ele>
        <time>2011-10-30T10:09:59.000Z</time>
      </trkpt>
      <trkpt lat="50.74154" lon="2.89488">
        <ele>18</ele>
        <time>2011-10-30T10:10:03.000Z</time>
      </trkpt>
      <trkpt lat="50.74163" lon="2.89515">
        <ele>18.200000762939</ele>
        <time>2011-10-30T10:10:07.000Z</time>
      </trkpt>
      <trkpt lat="50.74172" lon="2.89542">
        <ele>19</ele>
        <time>2011-10-30T10:10:11.000Z</time>
      </trkpt>
      <trkpt lat="50.7418" lon="2.89569">
        <ele>19.60000038147</ele>
        <time>2011-10-30T10:10:15.000Z</time>
      </trkpt>
      <trkpt lat="50.74182" lon="2.89576">
        <ele>19.799999237061</ele>
        <time>2011-10-30T10:10:16.000Z</time>
      </trkpt>
      <trkpt lat="50.74187" lon="2.89619">
        <ele>19.60000038147</ele>
        <time>2011-10-30T10:10:22.000Z</time>
      </trkpt>
      <trkpt lat="50.74189" lon="2.89652">
        <ele>19.200000762939</ele>
        <time>2011-10-30T10:10:26.000Z</time>
      </trkpt>
      <trkpt lat="50.74191" lon="2.89684">
        <ele>19.200000762939</ele>
        <time>2011-10-30T10:10:30.000Z</time>
      </trkpt>
      <trkpt lat="50.74192" lon="2.89714">
        <ele>19.200000762939</ele>
        <time>2011-10-30T10:10:34.000Z</time>
      </trkpt>
      <trkpt lat="50.74195" lon="2.89746">
        <ele>19.200000762939</ele>
        <time>2011-10-30T10:10:38.000Z</time>
      </trkpt>
      <trkpt lat="50.74197" lon="2.89776">
        <ele>19.200000762939</ele>
        <time>2011-10-30T10:10:42.000Z</time>
      </trkpt>
      <trkpt lat="50.74198" lon="2.8981">
        <ele>19.200000762939</ele>
        <time>2011-10-30T10:10:47.000Z</time>
      </trkpt>
      <trkpt lat="50.74199" lon="2.8983">
        <ele>19.200000762939</ele>
        <time>2011-10-30T10:10:50.000Z</time>
      </trkpt>
      <trkpt lat="50.7421" lon="2.89857">
        <ele>19.39999961853</ele>
        <time>2011-10-30T10:10:55.000Z</time>
      </trkpt>
      <trkpt lat="50.74222" lon="2.89864">
        <ele>19.39999961853</ele>
        <time>2011-10-30T10:10:58.000Z</time>
      </trkpt>
      <trkpt lat="50.74248" lon="2.89876">
        <ele>19.39999961853</ele>
        <time>2011-10-30T10:11:04.000Z</time>
      </trkpt>
      <trkpt lat="50.74267" lon="2.89888">
        <ele>19.799999237061</ele>
        <time>2011-10-30T10:11:09.000Z</time>
      </trkpt>
      <trkpt lat="50.74286" lon="2.899">
        <ele>20.39999961853</ele>
        <time>2011-10-30T10:11:14.000Z</time>
      </trkpt>
      <trkpt lat="50.7429" lon="2.89902">
        <ele>20.39999961853</ele>
        <time>2011-10-30T10:11:15.000Z</time>
      </trkpt>
      <trkpt lat="50.74312" lon="2.89917">
        <ele>21.200000762939</ele>
        <time>2011-10-30T10:11:21.000Z</time>
      </trkpt>
      <trkpt lat="50.74331" lon="2.89932">
        <ele>22</ele>
        <time>2011-10-30T10:11:26.000Z</time>
      </trkpt>
      <trkpt lat="50.74348" lon="2.89947">
        <ele>22.60000038147</ele>
        <time>2011-10-30T10:11:31.000Z</time>
      </trkpt>
      <trkpt lat="50.74363" lon="2.89962">
        <ele>23.200000762939</ele>
        <time>2011-10-30T10:11:36.000Z</time>
      </trkpt>
      <trkpt lat="50.74381" lon="2.8998">
        <ele>23.60000038147</ele>
        <time>2011-10-30T10:11:42.000Z</time>
      </trkpt>
      <trkpt lat="50.74399" lon="2.89998">
        <ele>23.799999237061</ele>
        <time>2011-10-30T10:11:48.000Z</time>
      </trkpt>
      <trkpt lat="50.74416" lon="2.90013">
        <ele>24</ele>
        <time>2011-10-30T10:11:54.000Z</time>
      </trkpt>
      <trkpt lat="50.74428" lon="2.90025">
        <ele>24.39999961853</ele>
        <time>2011-10-30T10:11:59.000Z</time>
      </trkpt>
      <trkpt lat="50.74432" lon="2.9006">
        <ele>24.799999237061</ele>
        <time>2011-10-30T10:12:06.000Z</time>
      </trkpt>
      <trkpt lat="50.74434" lon="2.90093">
        <ele>25.39999961853</ele>
        <time>2011-10-30T10:12:12.000Z</time>
      </trkpt>
      <trkpt lat="50.74437" lon="2.90123">
        <ele>26.200000762939</ele>
        <time>2011-10-30T10:12:17.000Z</time>
      </trkpt>
      <trkpt lat="50.74439" lon="2.90154">
        <ele>27</ele>
        <time>2011-10-30T10:12:22.000Z</time>
      </trkpt>
      <trkpt lat="50.74439" lon="2.90186">
        <ele>27.39999961853</ele>
        <time>2011-10-30T10:12:27.000Z</time>
      </trkpt>
      <trkpt lat="50.74439" lon="2.90219">
        <ele>27.799999237061</ele>
        <time>2011-10-30T10:12:32.000Z</time>
      </trkpt>
      <trkpt lat="50.74439" lon="2.90252">
        <ele>27.799999237061</ele>
        <time>2011-10-30T10:12:37.000Z</time>
      </trkpt>
      <trkpt lat="50.74438" lon="2.90282">
        <ele>27.60000038147</ele>
        <time>2011-10-30T10:12:42.000Z</time>
      </trkpt>
      <trkpt lat="50.74431" lon="2.90307">
        <ele>27.39999961853</ele>
        <time>2011-10-30T10:12:48.000Z</time>
      </trkpt>
      <trkpt lat="50.74412" lon="2.90319">
        <ele>27</ele>
        <time>2011-10-30T10:12:54.000Z</time>
      </trkpt>
      <trkpt lat="50.74393" lon="2.90331">
        <ele>26.60000038147</ele>
        <time>2011-10-30T10:12:59.000Z</time>
      </trkpt>
      <trkpt lat="50.74374" lon="2.90344">
        <ele>26.39999961853</ele>
        <time>2011-10-30T10:13:04.000Z</time>
      </trkpt>
      <trkpt lat="50.74354" lon="2.90358">
        <ele>26.200000762939</ele>
        <time>2011-10-30T10:13:09.000Z</time>
      </trkpt>
      <trkpt lat="50.74336" lon="2.90368">
        <ele>26</ele>
        <time>2011-10-30T10:13:13.000Z</time>
      </trkpt>
      <trkpt lat="50.74317" lon="2.90381">
        <ele>25.39999961853</ele>
        <time>2011-10-30T10:13:18.000Z</time>
      </trkpt>
      <trkpt lat="50.74311" lon="2.90386">
        <ele>25.39999961853</ele>
        <time>2011-10-30T10:13:20.000Z</time>
      </trkpt>
      <trkpt lat="50.74295" lon="2.90416">
        <ele>25.39999961853</ele>
        <time>2011-10-30T10:13:28.000Z</time>
      </trkpt>
      <trkpt lat="50.74286" lon="2.90447">
        <ele>25.799999237061</ele>
        <time>2011-10-30T10:13:33.000Z</time>
      </trkpt>
      <trkpt lat="50.74278" lon="2.90478">
        <ele>26</ele>
        <time>2011-10-30T10:13:38.000Z</time>
      </trkpt>
      <trkpt lat="50.74271" lon="2.90508">
        <ele>26.39999961853</ele>
        <time>2011-10-30T10:13:43.000Z</time>
      </trkpt>
      <trkpt lat="50.74264" lon="2.90538">
        <ele>27</ele>
        <time>2011-10-30T10:13:48.000Z</time>
      </trkpt>
      <trkpt lat="50.7426" lon="2.90568">
        <ele>27.60000038147</ele>
        <time>2011-10-30T10:13:53.000Z</time>
      </trkpt>
      <trkpt lat="50.74257" lon="2.906">
        <ele>27.799999237061</ele>
        <time>2011-10-30T10:13:58.000Z</time>
      </trkpt>
      <trkpt lat="50.74255" lon="2.90634">
        <ele>27.799999237061</ele>
        <time>2011-10-30T10:14:03.000Z</time>
      </trkpt>
      <trkpt lat="50.74254" lon="2.90662">
        <ele>27.799999237061</ele>
        <time>2011-10-30T10:14:07.000Z</time>
      </trkpt>
      <trkpt lat="50.74252" lon="2.90692">
        <ele>28.200000762939</ele>
        <time>2011-10-30T10:14:11.000Z</time>
      </trkpt>
      <trkpt lat="50.74252" lon="2.90726">
        <ele>28.60000038147</ele>
        <time>2011-10-30T10:14:16.000Z</time>
      </trkpt>
      <trkpt lat="50.74252" lon="2.90738">
        <ele>28.799999237061</ele>
        <time>2011-10-30T10:14:18.000Z</time>
      </trkpt>
      <trkpt lat="50.74247" lon="2.90753">
        <ele>28.60000038147</ele>
        <time>2011-10-30T10:14:21.000Z</time>
      </trkpt>
      <trkpt lat="50.74243" lon="2.90755">
        <ele>28.39999961853</ele>
        <time>2011-10-30T10:14:22.000Z</time>
      </trkpt>
      <trkpt lat="50.74222" lon="2.90766">
        <ele>26.799999237061</ele>
        <time>2011-10-30T10:14:26.000Z</time>
      </trkpt>
      <trkpt lat="50.74204" lon="2.90774">
        <ele>25.39999961853</ele>
        <time>2011-10-30T10:14:29.000Z</time>
      </trkpt>
      <trkpt lat="50.74183" lon="2.90783">
        <ele>24</ele>
        <time>2011-10-30T10:14:32.000Z</time>
      </trkpt>
      <trkpt lat="50.74161" lon="2.9079">
        <ele>22.60000038147</ele>
        <time>2011-10-30T10:14:35.000Z</time>
      </trkpt>
      <trkpt lat="50.74137" lon="2.90795">
        <ele>21.60000038147</ele>
        <time>2011-10-30T10:14:38.000Z</time>
      </trkpt>
      <trkpt lat="50.74113" lon="2.90796">
        <ele>20.60000038147</ele>
        <time>2011-10-30T10:14:41.000Z</time>
      </trkpt>
      <trkpt lat="50.74106" lon="2.90796">
        <ele>20.39999961853</ele>
        <time>2011-10-30T10:14:42.000Z</time>
      </trkpt>
      <trkpt lat="50.74078" lon="2.90787">
        <ele>19.39999961853</ele>
        <time>2011-10-30T10:14:46.000Z</time>
      </trkpt>
      <trkpt lat="50.74058" lon="2.90783">
        <ele>19</ele>
        <time>2011-10-30T10:14:49.000Z</time>
      </trkpt>
      <trkpt lat="50.74038" lon="2.90783">
        <ele>18.60000038147</ele>
        <time>2011-10-30T10:14:52.000Z</time>
      </trkpt>
      <trkpt lat="50.74018" lon="2.90785">
        <ele>18.200000762939</ele>
        <time>2011-10-30T10:14:55.000Z</time>
      </trkpt>
      <trkpt lat="50.73999" lon="2.9079">
        <ele>18</ele>
        <time>2011-10-30T10:14:58.000Z</time>
      </trkpt>
      <trkpt lat="50.7398" lon="2.90797">
        <ele>19</ele>
        <time>2011-10-30T10:15:01.000Z</time>
      </trkpt>
      <trkpt lat="50.73957" lon="2.90807">
        <ele>20.39999961853</ele>
        <time>2011-10-30T10:15:05.000Z</time>
      </trkpt>
      <trkpt lat="50.73935" lon="2.90816">
        <ele>21.39999961853</ele>
        <time>2011-10-30T10:15:09.000Z</time>
      </trkpt>
      <trkpt lat="50.73913" lon="2.90825">
        <ele>22.200000762939</ele>
        <time>2011-10-30T10:15:13.000Z</time>
      </trkpt>
      <trkpt lat="50.73891" lon="2.90834">
        <ele>22.39999961853</ele>
        <time>2011-10-30T10:15:17.000Z</time>
      </trkpt>
      <trkpt lat="50.7387" lon="2.90843">
        <ele>22.60000038147</ele>
        <time>2011-10-30T10:15:21.000Z</time>
      </trkpt>
      <trkpt lat="50.73851" lon="2.9085">
        <ele>22.799999237061</ele>
        <time>2011-10-30T10:15:25.000Z</time>
      </trkpt>
      <trkpt lat="50.73832" lon="2.90858">
        <ele>23</ele>
        <time>2011-10-30T10:15:29.000Z</time>
      </trkpt>
      <trkpt lat="50.73812" lon="2.90865">
        <ele>23</ele>
        <time>2011-10-30T10:15:33.000Z</time>
      </trkpt>
      <trkpt lat="50.73792" lon="2.90873">
        <ele>22.799999237061</ele>
        <time>2011-10-30T10:15:37.000Z</time>
      </trkpt>
      <trkpt lat="50.73772" lon="2.90882">
        <ele>22.39999961853</ele>
        <time>2011-10-30T10:15:41.000Z</time>
      </trkpt>
      <trkpt lat="50.73754" lon="2.90892">
        <ele>22</ele>
        <time>2011-10-30T10:15:45.000Z</time>
      </trkpt>
      <trkpt lat="50.73736" lon="2.90901">
        <ele>21.799999237061</ele>
        <time>2011-10-30T10:15:49.000Z</time>
      </trkpt>
      <trkpt lat="50.73719" lon="2.9091">
        <ele>21.39999961853</ele>
        <time>2011-10-30T10:15:53.000Z</time>
      </trkpt>
      <trkpt lat="50.73715" lon="2.90911">
        <ele>21.200000762939</ele>
        <time>2011-10-30T10:15:54.000Z</time>
      </trkpt>
      <trkpt lat="50.737" lon="2.90919">
        <ele>20.799999237061</ele>
        <time>2011-10-30T10:15:58.000Z</time>
      </trkpt>
      <trkpt lat="50.73689" lon="2.90909">
        <ele>21.39999961853</ele>
        <time>2011-10-30T10:16:02.000Z</time>
      </trkpt>
      <trkpt lat="50.73673" lon="2.90892">
        <ele>23</ele>
        <time>2011-10-30T10:16:07.000Z</time>
      </trkpt>
      <trkpt lat="50.73656" lon="2.90892">
        <ele>23.39999961853</ele>
        <time>2011-10-30T10:16:11.000Z</time>
      </trkpt>
      <trkpt lat="50.73651" lon="2.90894">
        <ele>23.39999961853</ele>
        <time>2011-10-30T10:16:12.000Z</time>
      </trkpt>
      <trkpt lat="50.7363" lon="2.90903">
        <ele>23.39999961853</ele>
        <time>2011-10-30T10:16:17.000Z</time>
      </trkpt>
      <trkpt lat="50.73611" lon="2.90911">
        <ele>23.39999961853</ele>
        <time>2011-10-30T10:16:21.000Z</time>
      </trkpt>
      <trkpt lat="50.73591" lon="2.90919">
        <ele>23.39999961853</ele>
        <time>2011-10-30T10:16:25.000Z</time>
      </trkpt>
      <trkpt lat="50.73571" lon="2.90927">
        <ele>22.799999237061</ele>
        <time>2011-10-30T10:16:29.000Z</time>
      </trkpt>
      <trkpt lat="50.73551" lon="2.90936">
        <ele>21.799999237061</ele>
        <time>2011-10-30T10:16:33.000Z</time>
      </trkpt>
      <trkpt lat="50.73547" lon="2.90938">
        <ele>21.60000038147</ele>
        <time>2011-10-30T10:16:34.000Z</time>
      </trkpt>
      <trkpt lat="50.73524" lon="2.90954">
        <ele>20.60000038147</ele>
        <time>2011-10-30T10:16:39.000Z</time>
      </trkpt>
      <trkpt lat="50.73506" lon="2.9097">
        <ele>20</ele>
        <time>2011-10-30T10:16:43.000Z</time>
      </trkpt>
      <trkpt lat="50.7349" lon="2.90984">
        <ele>19.39999961853</ele>
        <time>2011-10-30T10:16:47.000Z</time>
      </trkpt>
      <trkpt lat="50.73474" lon="2.90998">
        <ele>18.60000038147</ele>
        <time>2011-10-30T10:16:51.000Z</time>
      </trkpt>
      <trkpt lat="50.73457" lon="2.91013">
        <ele>18.200000762939</ele>
        <time>2011-10-30T10:16:55.000Z</time>
      </trkpt>
      <trkpt lat="50.73441" lon="2.91027">
        <ele>17.799999237061</ele>
        <time>2011-10-30T10:16:59.000Z</time>
      </trkpt>
      <trkpt lat="50.73425" lon="2.91041">
        <ele>17.60000038147</ele>
        <time>2011-10-30T10:17:03.000Z</time>
      </trkpt>
      <trkpt lat="50.73421" lon="2.91044">
        <ele>17.39999961853</ele>
        <time>2011-10-30T10:17:04.000Z</time>
      </trkpt>
      <trkpt lat="50.73398" lon="2.91061">
        <ele>17.39999961853</ele>
        <time>2011-10-30T10:17:09.000Z</time>
      </trkpt>
      <trkpt lat="50.73393" lon="2.91064">
        <ele>17.39999961853</ele>
        <time>2011-10-30T10:17:10.000Z</time>
      </trkpt>
      <trkpt lat="50.73379" lon="2.91074">
        <ele>17.200000762939</ele>
        <time>2011-10-30T10:17:13.000Z</time>
      </trkpt>
      <trkpt lat="50.73359" lon="2.91089">
        <ele>16.799999237061</ele>
        <time>2011-10-30T10:17:18.000Z</time>
      </trkpt>
      <trkpt lat="50.73342" lon="2.91101">
        <ele>16.799999237061</ele>
        <time>2011-10-30T10:17:22.000Z</time>
      </trkpt>
      <trkpt lat="50.73325" lon="2.91112">
        <ele>17</ele>
        <time>2011-10-30T10:17:26.000Z</time>
      </trkpt>
      <trkpt lat="50.73309" lon="2.91125">
        <ele>17.39999961853</ele>
        <time>2011-10-30T10:17:31.000Z</time>
      </trkpt>
      <trkpt lat="50.7329" lon="2.91138">
        <ele>17.60000038147</ele>
        <time>2011-10-30T10:17:37.000Z</time>
      </trkpt>
      <trkpt lat="50.73273" lon="2.91148">
        <ele>17.799999237061</ele>
        <time>2011-10-30T10:17:43.000Z</time>
      </trkpt>
      <trkpt lat="50.73259" lon="2.91158">
        <ele>17.799999237061</ele>
        <time>2011-10-30T10:17:49.000Z</time>
      </trkpt>
      <trkpt lat="50.73252" lon="2.91164">
        <ele>18</ele>
        <time>2011-10-30T10:17:53.000Z</time>
      </trkpt>
      <trkpt lat="50.7324" lon="2.91173">
        <ele>17.799999237061</ele>
        <time>2011-10-30T10:18:00.000Z</time>
      </trkpt>
      <trkpt lat="50.73223" lon="2.91189">
        <ele>17.60000038147</ele>
        <time>2011-10-30T10:18:06.000Z</time>
      </trkpt>
      <trkpt lat="50.73207" lon="2.91202">
        <ele>17.39999961853</ele>
        <time>2011-10-30T10:18:11.000Z</time>
      </trkpt>
      <trkpt lat="50.7319" lon="2.91214">
        <ele>17</ele>
        <time>2011-10-30T10:18:16.000Z</time>
      </trkpt>
      <trkpt lat="50.73174" lon="2.9122">
        <ele>16.39999961853</ele>
        <time>2011-10-30T10:18:21.000Z</time>
      </trkpt>
      <trkpt lat="50.73156" lon="2.91225">
        <ele>16.39999961853</ele>
        <time>2011-10-30T10:18:26.000Z</time>
      </trkpt>
      <trkpt lat="50.73137" lon="2.91226">
        <ele>16.60000038147</ele>
        <time>2011-10-30T10:18:31.000Z</time>
      </trkpt>
      <trkpt lat="50.73116" lon="2.91228">
        <ele>16.799999237061</ele>
        <time>2011-10-30T10:18:36.000Z</time>
      </trkpt>
      <trkpt lat="50.73096" lon="2.9123">
        <ele>17</ele>
        <time>2011-10-30T10:18:41.000Z</time>
      </trkpt>
      <trkpt lat="50.73076" lon="2.91231">
        <ele>17.200000762939</ele>
        <time>2011-10-30T10:18:47.000Z</time>
      </trkpt>
      <trkpt lat="50.73057" lon="2.91234">
        <ele>17.39999961853</ele>
        <time>2011-10-30T10:18:52.000Z</time>
      </trkpt>
      <trkpt lat="50.73038" lon="2.91234">
        <ele>17.60000038147</ele>
        <time>2011-10-30T10:18:57.000Z</time>
      </trkpt>
      <trkpt lat="50.73017" lon="2.91235">
        <ele>17.799999237061</ele>
        <time>2011-10-30T10:19:02.000Z</time>
      </trkpt>
      <trkpt lat="50.72995" lon="2.91237">
        <ele>18</ele>
        <time>2011-10-30T10:19:07.000Z</time>
      </trkpt>
      <trkpt lat="50.72974" lon="2.91242">
        <ele>18.200000762939</ele>
        <time>2011-10-30T10:19:12.000Z</time>
      </trkpt>
      <trkpt lat="50.72953" lon="2.91249">
        <ele>18.39999961853</ele>
        <time>2011-10-30T10:19:17.000Z</time>
      </trkpt>
      <trkpt lat="50.72932" lon="2.91258">
        <ele>18.799999237061</ele>
        <time>2011-10-30T10:19:22.000Z</time>
      </trkpt>
      <trkpt lat="50.72913" lon="2.91268">
        <ele>18.799999237061</ele>
        <time>2011-10-30T10:19:27.000Z</time>
      </trkpt>
      <trkpt lat="50.72892" lon="2.91278">
        <ele>18.39999961853</ele>
        <time>2011-10-30T10:19:32.000Z</time>
      </trkpt>
      <trkpt lat="50.72872" lon="2.91291">
        <ele>18</ele>
        <time>2011-10-30T10:19:37.000Z</time>
      </trkpt>
      <trkpt lat="50.72852" lon="2.91303">
        <ele>17.799999237061</ele>
        <time>2011-10-30T10:19:42.000Z</time>
      </trkpt>
      <trkpt lat="50.72835" lon="2.91314">
        <ele>17.60000038147</ele>
        <time>2011-10-30T10:19:46.000Z</time>
      </trkpt>
      <trkpt lat="50.72816" lon="2.91327">
        <ele>17.39999961853</ele>
        <time>2011-10-30T10:19:51.000Z</time>
      </trkpt>
      <trkpt lat="50.72796" lon="2.91338">
        <ele>17</ele>
        <time>2011-10-30T10:19:56.000Z</time>
      </trkpt>
      <trkpt lat="50.72777" lon="2.91349">
        <ele>16.60000038147</ele>
        <time>2011-10-30T10:20:01.000Z</time>
      </trkpt>
      <trkpt lat="50.72758" lon="2.91359">
        <ele>16.39999961853</ele>
        <time>2011-10-30T10:20:06.000Z</time>
      </trkpt>
      <trkpt lat="50.72739" lon="2.91367">
        <ele>16.39999961853</ele>
        <time>2011-10-30T10:20:11.000Z</time>
      </trkpt>
      <trkpt lat="50.72721" lon="2.91377">
        <ele>16.39999961853</ele>
        <time>2011-10-30T10:20:16.000Z</time>
      </trkpt>
      <trkpt lat="50.72702" lon="2.91388">
        <ele>16.60000038147</ele>
        <time>2011-10-30T10:20:22.000Z</time>
      </trkpt>
      <trkpt lat="50.72685" lon="2.91385">
        <ele>16.60000038147</ele>
        <time>2011-10-30T10:20:26.000Z</time>
      </trkpt>
      <trkpt lat="50.72665" lon="2.91375">
        <ele>16.39999961853</ele>
        <time>2011-10-30T10:20:31.000Z</time>
      </trkpt>
      <trkpt lat="50.72645" lon="2.91364">
        <ele>16.39999961853</ele>
        <time>2011-10-30T10:20:36.000Z</time>
      </trkpt>
      <trkpt lat="50.72627" lon="2.91354">
        <ele>16.60000038147</ele>
        <time>2011-10-30T10:20:41.000Z</time>
      </trkpt>
      <trkpt lat="50.72608" lon="2.91346">
        <ele>16.60000038147</ele>
        <time>2011-10-30T10:20:46.000Z</time>
      </trkpt>
      <trkpt lat="50.72589" lon="2.9134">
        <ele>16.799999237061</ele>
        <time>2011-10-30T10:20:51.000Z</time>
      </trkpt>
      <trkpt lat="50.72569" lon="2.91332">
        <ele>16.60000038147</ele>
        <time>2011-10-30T10:20:57.000Z</time>
      </trkpt>
      <trkpt lat="50.72548" lon="2.91326">
        <ele>16</ele>
        <time>2011-10-30T10:21:03.000Z</time>
      </trkpt>
      <trkpt lat="50.72538" lon="2.91322">
        <ele>15.60000038147</ele>
        <time>2011-10-30T10:21:06.000Z</time>
      </trkpt>
      <trkpt lat="50.72527" lon="2.91319">
        <ele>15.39999961853</ele>
        <time>2011-10-30T10:21:09.000Z</time>
      </trkpt>
      <trkpt lat="50.72509" lon="2.91314">
        <ele>15</ele>
        <time>2011-10-30T10:21:14.000Z</time>
      </trkpt>
      <trkpt lat="50.7249" lon="2.91308">
        <ele>15</ele>
        <time>2011-10-30T10:21:19.000Z</time>
      </trkpt>
      <trkpt lat="50.7247" lon="2.91302">
        <ele>15.199999809265</ele>
        <time>2011-10-30T10:21:24.000Z</time>
      </trkpt>
      <trkpt lat="50.7245" lon="2.91298">
        <ele>15.60000038147</ele>
        <time>2011-10-30T10:21:29.000Z</time>
      </trkpt>
      <trkpt lat="50.7243" lon="2.91293">
        <ele>15.800000190735</ele>
        <time>2011-10-30T10:21:34.000Z</time>
      </trkpt>
      <trkpt lat="50.7241" lon="2.91289">
        <ele>16</ele>
        <time>2011-10-30T10:21:39.000Z</time>
      </trkpt>
      <trkpt lat="50.7239" lon="2.91286">
        <ele>16</ele>
        <time>2011-10-30T10:21:44.000Z</time>
      </trkpt>
      <trkpt lat="50.7237" lon="2.91284">
        <ele>16</ele>
        <time>2011-10-30T10:21:49.000Z</time>
      </trkpt>
      <trkpt lat="50.72351" lon="2.91281">
        <ele>16</ele>
        <time>2011-10-30T10:21:54.000Z</time>
      </trkpt>
      <trkpt lat="50.72331" lon="2.91279">
        <ele>16</ele>
        <time>2011-10-30T10:21:59.000Z</time>
      </trkpt>
      <trkpt lat="50.7231" lon="2.91277">
        <ele>16.200000762939</ele>
        <time>2011-10-30T10:22:04.000Z</time>
      </trkpt>
      <trkpt lat="50.7229" lon="2.91276">
        <ele>16.60000038147</ele>
        <time>2011-10-30T10:22:09.000Z</time>
      </trkpt>
      <trkpt lat="50.7227" lon="2.91275">
        <ele>16.799999237061</ele>
        <time>2011-10-30T10:22:14.000Z</time>
      </trkpt>
      <trkpt lat="50.72249" lon="2.91275">
        <ele>17.200000762939</ele>
        <time>2011-10-30T10:22:19.000Z</time>
      </trkpt>
      <trkpt lat="50.72228" lon="2.91275">
        <ele>16.799999237061</ele>
        <time>2011-10-30T10:22:24.000Z</time>
      </trkpt>
      <trkpt lat="50.72208" lon="2.91276">
        <ele>16.60000038147</ele>
        <time>2011-10-30T10:22:29.000Z</time>
      </trkpt>
      <trkpt lat="50.72187" lon="2.91276">
        <ele>16.200000762939</ele>
        <time>2011-10-30T10:22:34.000Z</time>
      </trkpt>
      <trkpt lat="50.72165" lon="2.91278">
        <ele>15.800000190735</ele>
        <time>2011-10-30T10:22:39.000Z</time>
      </trkpt>
      <trkpt lat="50.72144" lon="2.9128">
        <ele>15.39999961853</ele>
        <time>2011-10-30T10:22:44.000Z</time>
      </trkpt>
      <trkpt lat="50.72124" lon="2.91283">
        <ele>14.800000190735</ele>
        <time>2011-10-30T10:22:49.000Z</time>
      </trkpt>
      <trkpt lat="50.72104" lon="2.91285">
        <ele>14.39999961853</ele>
        <time>2011-10-30T10:22:54.000Z</time>
      </trkpt>
      <trkpt lat="50.72085" lon="2.91288">
        <ele>14</ele>
        <time>2011-10-30T10:22:59.000Z</time>
      </trkpt>
      <trkpt lat="50.72064" lon="2.91289">
        <ele>14.39999961853</ele>
        <time>2011-10-30T10:23:05.000Z</time>
      </trkpt>
      <trkpt lat="50.72044" lon="2.91292">
        <ele>15</ele>
        <time>2011-10-30T10:23:12.000Z</time>
      </trkpt>
      <trkpt lat="50.72025" lon="2.91295">
        <ele>15.60000038147</ele>
        <time>2011-10-30T10:23:17.000Z</time>
      </trkpt>
      <trkpt lat="50.72004" lon="2.91299">
        <ele>16.200000762939</ele>
        <time>2011-10-30T10:23:23.000Z</time>
      </trkpt>
      <trkpt lat="50.71983" lon="2.91303">
        <ele>16</ele>
        <time>2011-10-30T10:23:28.000Z</time>
      </trkpt>
      <trkpt lat="50.71963" lon="2.91307">
        <ele>15.60000038147</ele>
        <time>2011-10-30T10:23:33.000Z</time>
      </trkpt>
      <trkpt lat="50.71941" lon="2.91311">
        <ele>15.199999809265</ele>
        <time>2011-10-30T10:23:38.000Z</time>
      </trkpt>
      <trkpt lat="50.71923" lon="2.91315">
        <ele>15</ele>
        <time>2011-10-30T10:23:42.000Z</time>
      </trkpt>
      <trkpt lat="50.71902" lon="2.91319">
        <ele>15</ele>
        <time>2011-10-30T10:23:47.000Z</time>
      </trkpt>
      <trkpt lat="50.71881" lon="2.91324">
        <ele>15</ele>
        <time>2011-10-30T10:23:52.000Z</time>
      </trkpt>
      <trkpt lat="50.71859" lon="2.91328">
        <ele>15</ele>
        <time>2011-10-30T10:23:57.000Z</time>
      </trkpt>
      <trkpt lat="50.71839" lon="2.91333">
        <ele>15</ele>
        <time>2011-10-30T10:24:02.000Z</time>
      </trkpt>
      <trkpt lat="50.71819" lon="2.91337">
        <ele>15</ele>
        <time>2011-10-30T10:24:07.000Z</time>
      </trkpt>
      <trkpt lat="50.71798" lon="2.91341">
        <ele>15.39999961853</ele>
        <time>2011-10-30T10:24:13.000Z</time>
      </trkpt>
      <trkpt lat="50.7178" lon="2.91333">
        <ele>15.60000038147</ele>
        <time>2011-10-30T10:24:19.000Z</time>
      </trkpt>
      <trkpt lat="50.71768" lon="2.9131">
        <ele>16</ele>
        <time>2011-10-30T10:24:24.000Z</time>
      </trkpt>
      <trkpt lat="50.71759" lon="2.91284">
        <ele>16.39999961853</ele>
        <time>2011-10-30T10:24:29.000Z</time>
      </trkpt>
      <trkpt lat="50.71749" lon="2.91258">
        <ele>16.799999237061</ele>
        <time>2011-10-30T10:24:34.000Z</time>
      </trkpt>
      <trkpt lat="50.71738" lon="2.91232">
        <ele>16.60000038147</ele>
        <time>2011-10-30T10:24:39.000Z</time>
      </trkpt>
      <trkpt lat="50.71727" lon="2.91206">
        <ele>16.200000762939</ele>
        <time>2011-10-30T10:24:44.000Z</time>
      </trkpt>
      <trkpt lat="50.71716" lon="2.9118">
        <ele>16</ele>
        <time>2011-10-30T10:24:49.000Z</time>
      </trkpt>
      <trkpt lat="50.71705" lon="2.91156">
        <ele>16</ele>
        <time>2011-10-30T10:24:54.000Z</time>
      </trkpt>
      <trkpt lat="50.71693" lon="2.91131">
        <ele>16.39999961853</ele>
        <time>2011-10-30T10:24:59.000Z</time>
      </trkpt>
      <trkpt lat="50.71681" lon="2.91107">
        <ele>16.60000038147</ele>
        <time>2011-10-30T10:25:04.000Z</time>
      </trkpt>
      <trkpt lat="50.71668" lon="2.91085">
        <ele>16.799999237061</ele>
        <time>2011-10-30T10:25:09.000Z</time>
      </trkpt>
      <trkpt lat="50.71655" lon="2.91061">
        <ele>16</ele>
        <time>2011-10-30T10:25:14.000Z</time>
      </trkpt>
      <trkpt lat="50.71645" lon="2.91033">
        <ele>15</ele>
        <time>2011-10-30T10:25:19.000Z</time>
      </trkpt>
      <trkpt lat="50.71643" lon="2.91029">
        <ele>15</ele>
        <time>2011-10-30T10:25:20.000Z</time>
      </trkpt>
      <trkpt lat="50.7163" lon="2.91029">
        <ele>15</ele>
        <time>2011-10-30T10:25:24.000Z</time>
      </trkpt>
      <trkpt lat="50.71612" lon="2.91035">
        <ele>15</ele>
        <time>2011-10-30T10:25:29.000Z</time>
      </trkpt>
      <trkpt lat="50.71591" lon="2.91035">
        <ele>15</ele>
        <time>2011-10-30T10:25:35.000Z</time>
      </trkpt>
      <trkpt lat="50.71573" lon="2.91034">
        <ele>14.800000190735</ele>
        <time>2011-10-30T10:25:40.000Z</time>
      </trkpt>
      <trkpt lat="50.71554" lon="2.91032">
        <ele>14.60000038147</ele>
        <time>2011-10-30T10:25:45.000Z</time>
      </trkpt>
      <trkpt lat="50.71535" lon="2.91027">
        <ele>14.60000038147</ele>
        <time>2011-10-30T10:25:50.000Z</time>
      </trkpt>
      <trkpt lat="50.71517" lon="2.91018">
        <ele>14.199999809265</ele>
        <time>2011-10-30T10:25:55.000Z</time>
      </trkpt>
      <trkpt lat="50.71498" lon="2.91009">
        <ele>14</ele>
        <time>2011-10-30T10:26:00.000Z</time>
      </trkpt>
      <trkpt lat="50.71481" lon="2.91">
        <ele>14.199999809265</ele>
        <time>2011-10-30T10:26:05.000Z</time>
      </trkpt>
      <trkpt lat="50.71461" lon="2.9099">
        <ele>14.39999961853</ele>
        <time>2011-10-30T10:26:11.000Z</time>
      </trkpt>
      <trkpt lat="50.7144" lon="2.90981">
        <ele>14.39999961853</ele>
        <time>2011-10-30T10:26:17.000Z</time>
      </trkpt>
      <trkpt lat="50.7142" lon="2.90976">
        <ele>14.39999961853</ele>
        <time>2011-10-30T10:26:23.000Z</time>
      </trkpt>
      <trkpt lat="50.71399" lon="2.90973">
        <ele>14.39999961853</ele>
        <time>2011-10-30T10:26:29.000Z</time>
      </trkpt>
      <trkpt lat="50.7138" lon="2.9097">
        <ele>14.60000038147</ele>
        <time>2011-10-30T10:26:34.000Z</time>
      </trkpt>
      <trkpt lat="50.71359" lon="2.90968">
        <ele>14.800000190735</ele>
        <time>2011-10-30T10:26:40.000Z</time>
      </trkpt>
      <trkpt lat="50.7134" lon="2.90964">
        <ele>15</ele>
        <time>2011-10-30T10:26:45.000Z</time>
      </trkpt>
      <trkpt lat="50.71321" lon="2.9096">
        <ele>15</ele>
        <time>2011-10-30T10:26:50.000Z</time>
      </trkpt>
      <trkpt lat="50.713" lon="2.90956">
        <ele>15.199999809265</ele>
        <time>2011-10-30T10:26:56.000Z</time>
      </trkpt>
      <trkpt lat="50.7128" lon="2.90954">
        <ele>15.39999961853</ele>
        <time>2011-10-30T10:27:01.000Z</time>
      </trkpt>
      <trkpt lat="50.71263" lon="2.90951">
        <ele>15.800000190735</ele>
        <time>2011-10-30T10:27:07.000Z</time>
      </trkpt>
      <trkpt lat="50.71244" lon="2.90938">
        <ele>16</ele>
        <time>2011-10-30T10:27:13.000Z</time>
      </trkpt>
      <trkpt lat="50.71226" lon="2.90922">
        <ele>16.200000762939</ele>
        <time>2011-10-30T10:27:18.000Z</time>
      </trkpt>
      <trkpt lat="50.71211" lon="2.90905">
        <ele>16.60000038147</ele>
        <time>2011-10-30T10:27:23.000Z</time>
      </trkpt>
      <trkpt lat="50.71194" lon="2.90891">
        <ele>17</ele>
        <time>2011-10-30T10:27:28.000Z</time>
      </trkpt>
      <trkpt lat="50.71177" lon="2.90881">
        <ele>17.60000038147</ele>
        <time>2011-10-30T10:27:33.000Z</time>
      </trkpt>
      <trkpt lat="50.71158" lon="2.90884">
        <ele>17.799999237061</ele>
        <time>2011-10-30T10:27:38.000Z</time>
      </trkpt>
      <trkpt lat="50.7114" lon="2.90897">
        <ele>17.60000038147</ele>
        <time>2011-10-30T10:27:43.000Z</time>
      </trkpt>
      <trkpt lat="50.71122" lon="2.90912">
        <ele>17.39999961853</ele>
        <time>2011-10-30T10:27:48.000Z</time>
      </trkpt>
      <trkpt lat="50.71104" lon="2.90926">
        <ele>17.60000038147</ele>
        <time>2011-10-30T10:27:54.000Z</time>
      </trkpt>
      <trkpt lat="50.71086" lon="2.90934">
        <ele>17.799999237061</ele>
        <time>2011-10-30T10:28:00.000Z</time>
      </trkpt>
      <trkpt lat="50.71077" lon="2.90925">
        <ele>17.799999237061</ele>
        <time>2011-10-30T10:28:04.000Z</time>
      </trkpt>
      <trkpt lat="50.71065" lon="2.90903">
        <ele>17.799999237061</ele>
        <time>2011-10-30T10:28:10.000Z</time>
      </trkpt>
      <trkpt lat="50.71056" lon="2.90876">
        <ele>17.799999237061</ele>
        <time>2011-10-30T10:28:16.000Z</time>
      </trkpt>
      <trkpt lat="50.71048" lon="2.90846">
        <ele>17.60000038147</ele>
        <time>2011-10-30T10:28:22.000Z</time>
      </trkpt>
      <trkpt lat="50.71042" lon="2.90818">
        <ele>17.39999961853</ele>
        <time>2011-10-30T10:28:27.000Z</time>
      </trkpt>
      <trkpt lat="50.71038" lon="2.90787">
        <ele>17</ele>
        <time>2011-10-30T10:28:32.000Z</time>
      </trkpt>
      <trkpt lat="50.71033" lon="2.90755">
        <ele>17</ele>
        <time>2011-10-30T10:28:37.000Z</time>
      </trkpt>
      <trkpt lat="50.71029" lon="2.90725">
        <ele>16.799999237061</ele>
        <time>2011-10-30T10:28:42.000Z</time>
      </trkpt>
      <trkpt lat="50.71024" lon="2.90697">
        <ele>16.39999961853</ele>
        <time>2011-10-30T10:28:48.000Z</time>
      </trkpt>
      <trkpt lat="50.71018" lon="2.9067">
        <ele>16.200000762939</ele>
        <time>2011-10-30T10:28:54.000Z</time>
      </trkpt>
      <trkpt lat="50.71008" lon="2.90659">
        <ele>16</ele>
        <time>2011-10-30T10:28:58.000Z</time>
      </trkpt>
      <trkpt lat="50.70994" lon="2.90666">
        <ele>16</ele>
        <time>2011-10-30T10:29:02.000Z</time>
      </trkpt>
      <trkpt lat="50.70991" lon="2.90668">
        <ele>16</ele>
        <time>2011-10-30T10:29:03.000Z</time>
      </trkpt>
      <trkpt lat="50.70975" lon="2.90681">
        <ele>16</ele>
        <time>2011-10-30T10:29:09.000Z</time>
      </trkpt>
      <trkpt lat="50.70956" lon="2.90695">
        <ele>16</ele>
        <time>2011-10-30T10:29:15.000Z</time>
      </trkpt>
      <trkpt lat="50.70937" lon="2.9071">
        <ele>16</ele>
        <time>2011-10-30T10:29:21.000Z</time>
      </trkpt>
      <trkpt lat="50.70914" lon="2.90728">
        <ele>16</ele>
        <time>2011-10-30T10:29:28.000Z</time>
      </trkpt>
      <trkpt lat="50.70897" lon="2.90741">
        <ele>16</ele>
        <time>2011-10-30T10:29:33.000Z</time>
      </trkpt>
      <trkpt lat="50.70879" lon="2.90754">
        <ele>16</ele>
        <time>2011-10-30T10:29:38.000Z</time>
      </trkpt>
      <trkpt lat="50.70862" lon="2.90767">
        <ele>16</ele>
        <time>2011-10-30T10:29:43.000Z</time>
      </trkpt>
      <trkpt lat="50.70844" lon="2.90778">
        <ele>16</ele>
        <time>2011-10-30T10:29:48.000Z</time>
      </trkpt>
      <trkpt lat="50.70826" lon="2.9079">
        <ele>15.800000190735</ele>
        <time>2011-10-30T10:29:53.000Z</time>
      </trkpt>
      <trkpt lat="50.70808" lon="2.90802">
        <ele>15.800000190735</ele>
        <time>2011-10-30T10:29:58.000Z</time>
      </trkpt>
      <trkpt lat="50.7079" lon="2.90814">
        <ele>15.800000190735</ele>
        <time>2011-10-30T10:30:03.000Z</time>
      </trkpt>
      <trkpt lat="50.70772" lon="2.90826">
        <ele>15.800000190735</ele>
        <time>2011-10-30T10:30:08.000Z</time>
      </trkpt>
      <trkpt lat="50.70754" lon="2.90838">
        <ele>16</ele>
        <time>2011-10-30T10:30:13.000Z</time>
      </trkpt>
      <trkpt lat="50.70736" lon="2.9085">
        <ele>15.800000190735</ele>
        <time>2011-10-30T10:30:18.000Z</time>
      </trkpt>
      <trkpt lat="50.7072" lon="2.90864">
        <ele>15.60000038147</ele>
        <time>2011-10-30T10:30:23.000Z</time>
      </trkpt>
      <trkpt lat="50.70708" lon="2.90886">
        <ele>15.39999961853</ele>
        <time>2011-10-30T10:30:28.000Z</time>
      </trkpt>
      <trkpt lat="50.70693" lon="2.90906">
        <ele>15.199999809265</ele>
        <time>2011-10-30T10:30:33.000Z</time>
      </trkpt>
      <trkpt lat="50.70676" lon="2.90923">
        <ele>15</ele>
        <time>2011-10-30T10:30:38.000Z</time>
      </trkpt>
      <trkpt lat="50.70659" lon="2.90942">
        <ele>14.800000190735</ele>
        <time>2011-10-30T10:30:43.000Z</time>
      </trkpt>
      <trkpt lat="50.70642" lon="2.9096">
        <ele>14.800000190735</ele>
        <time>2011-10-30T10:30:48.000Z</time>
      </trkpt>
      <trkpt lat="50.70625" lon="2.90979">
        <ele>14.60000038147</ele>
        <time>2011-10-30T10:30:53.000Z</time>
      </trkpt>
      <trkpt lat="50.70614" lon="2.90989">
        <ele>14.39999961853</ele>
        <time>2011-10-30T10:30:56.000Z</time>
      </trkpt>
      <trkpt lat="50.70593" lon="2.9101">
        <ele>14.199999809265</ele>
        <time>2011-10-30T10:31:02.000Z</time>
      </trkpt>
      <trkpt lat="50.70577" lon="2.91027">
        <ele>14.199999809265</ele>
        <time>2011-10-30T10:31:07.000Z</time>
      </trkpt>
      <trkpt lat="50.7056" lon="2.91043">
        <ele>14.39999961853</ele>
        <time>2011-10-30T10:31:12.000Z</time>
      </trkpt>
      <trkpt lat="50.70541" lon="2.91062">
        <ele>14.39999961853</ele>
        <time>2011-10-30T10:31:17.000Z</time>
      </trkpt>
      <trkpt lat="50.70518" lon="2.91084">
        <ele>14.199999809265</ele>
        <time>2011-10-30T10:31:23.000Z</time>
      </trkpt>
      <trkpt lat="50.70501" lon="2.911">
        <ele>14</ele>
        <time>2011-10-30T10:31:28.000Z</time>
      </trkpt>
      <trkpt lat="50.70483" lon="2.91118">
        <ele>13.39999961853</ele>
        <time>2011-10-30T10:31:33.000Z</time>
      </trkpt>
      <trkpt lat="50.70465" lon="2.91135">
        <ele>12.800000190735</ele>
        <time>2011-10-30T10:31:38.000Z</time>
      </trkpt>
      <trkpt lat="50.70447" lon="2.91151">
        <ele>12.199999809265</ele>
        <time>2011-10-30T10:31:43.000Z</time>
      </trkpt>
      <trkpt lat="50.70444" lon="2.91153">
        <ele>12</ele>
        <time>2011-10-30T10:31:44.000Z</time>
      </trkpt>
      <trkpt lat="50.70431" lon="2.91144">
        <ele>11.60000038147</ele>
        <time>2011-10-30T10:31:48.000Z</time>
      </trkpt>
      <trkpt lat="50.70429" lon="2.91138">
        <ele>11.60000038147</ele>
        <time>2011-10-30T10:31:49.000Z</time>
      </trkpt>
      <trkpt lat="50.70417" lon="2.911">
        <ele>11.60000038147</ele>
        <time>2011-10-30T10:31:55.000Z</time>
      </trkpt>
      <trkpt lat="50.70404" lon="2.91073">
        <ele>12.199999809265</ele>
        <time>2011-10-30T10:32:00.000Z</time>
      </trkpt>
      <trkpt lat="50.70391" lon="2.91047">
        <ele>12.800000190735</ele>
        <time>2011-10-30T10:32:05.000Z</time>
      </trkpt>
      <trkpt lat="50.7039" lon="2.91041">
        <ele>13</ele>
        <time>2011-10-30T10:32:06.000Z</time>
      </trkpt>
      <trkpt lat="50.70395" lon="2.91025">
        <ele>13.199999809265</ele>
        <time>2011-10-30T10:32:09.000Z</time>
      </trkpt>
      <trkpt lat="50.70398" lon="2.9102">
        <ele>13.39999961853</ele>
        <time>2011-10-30T10:32:10.000Z</time>
      </trkpt>
      <trkpt lat="50.70404" lon="2.90996">
        <ele>14</ele>
        <time>2011-10-30T10:32:15.000Z</time>
      </trkpt>
      <trkpt lat="50.70399" lon="2.90968">
        <ele>14.39999961853</ele>
        <time>2011-10-30T10:32:20.000Z</time>
      </trkpt>
      <trkpt lat="50.70393" lon="2.90939">
        <ele>14.800000190735</ele>
        <time>2011-10-30T10:32:25.000Z</time>
      </trkpt>
      <trkpt lat="50.70371" lon="2.90893">
        <ele>15.199999809265</ele>
        <time>2011-10-30T10:32:34.000Z</time>
      </trkpt>
      <trkpt lat="50.70361" lon="2.90872">
        <ele>15.199999809265</ele>
        <time>2011-10-30T10:32:38.000Z</time>
      </trkpt>
      <trkpt lat="50.70343" lon="2.90848">
        <ele>15</ele>
        <time>2011-10-30T10:32:44.000Z</time>
      </trkpt>
      <trkpt lat="50.70339" lon="2.90845">
        <ele>15</ele>
        <time>2011-10-30T10:32:45.000Z</time>
      </trkpt>
      <trkpt lat="50.70335" lon="2.90842">
        <ele>15</ele>
        <time>2011-10-30T10:32:46.000Z</time>
      </trkpt>
      <trkpt lat="50.70323" lon="2.90839">
        <ele>14.800000190735</ele>
        <time>2011-10-30T10:32:49.000Z</time>
      </trkpt>
      <trkpt lat="50.70319" lon="2.90838">
        <ele>14.800000190735</ele>
        <time>2011-10-30T10:32:50.000Z</time>
      </trkpt>
      <trkpt lat="50.70311" lon="2.90837">
        <ele>14.60000038147</ele>
        <time>2011-10-30T10:32:52.000Z</time>
      </trkpt>
      <trkpt lat="50.70288" lon="2.90818">
        <ele>14.39999961853</ele>
        <time>2011-10-30T10:32:58.000Z</time>
      </trkpt>
      <trkpt lat="50.70285" lon="2.90814">
        <ele>14.39999961853</ele>
        <time>2011-10-30T10:32:59.000Z</time>
      </trkpt>
      <trkpt lat="50.7027" lon="2.90793">
        <ele>14.60000038147</ele>
        <time>2011-10-30T10:33:04.000Z</time>
      </trkpt>
      <trkpt lat="50.70255" lon="2.90774">
        <ele>14.60000038147</ele>
        <time>2011-10-30T10:33:09.000Z</time>
      </trkpt>
      <trkpt lat="50.7024" lon="2.90753">
        <ele>14.800000190735</ele>
        <time>2011-10-30T10:33:14.000Z</time>
      </trkpt>
      <trkpt lat="50.70225" lon="2.90732">
        <ele>14.800000190735</ele>
        <time>2011-10-30T10:33:19.000Z</time>
      </trkpt>
      <trkpt lat="50.70211" lon="2.90713">
        <ele>15</ele>
        <time>2011-10-30T10:33:24.000Z</time>
      </trkpt>
      <trkpt lat="50.70195" lon="2.90693">
        <ele>15.60000038147</ele>
        <time>2011-10-30T10:33:29.000Z</time>
      </trkpt>
      <trkpt lat="50.70178" lon="2.90678">
        <ele>16.200000762939</ele>
        <time>2011-10-30T10:33:34.000Z</time>
      </trkpt>
      <trkpt lat="50.70168" lon="2.90678">
        <ele>16.39999961853</ele>
        <time>2011-10-30T10:33:36.000Z</time>
      </trkpt>
      <trkpt lat="50.70146" lon="2.90696">
        <ele>15.39999961853</ele>
        <time>2011-10-30T10:33:42.000Z</time>
      </trkpt>
      <trkpt lat="50.70135" lon="2.90706">
        <ele>14.800000190735</ele>
        <time>2011-10-30T10:33:45.000Z</time>
      </trkpt>
      <trkpt lat="50.70117" lon="2.90729">
        <ele>14</ele>
        <time>2011-10-30T10:33:50.000Z</time>
      </trkpt>
      <trkpt lat="50.7011" lon="2.90738">
        <ele>13.60000038147</ele>
        <time>2011-10-30T10:33:52.000Z</time>
      </trkpt>
      <trkpt lat="50.7009" lon="2.90746">
        <ele>13</ele>
        <time>2011-10-30T10:33:57.000Z</time>
      </trkpt>
      <trkpt lat="50.70086" lon="2.90745">
        <ele>13</ele>
        <time>2011-10-30T10:33:58.000Z</time>
      </trkpt>
      <trkpt lat="50.70068" lon="2.9074">
        <ele>12.800000190735</ele>
        <time>2011-10-30T10:34:02.000Z</time>
      </trkpt>
      <trkpt lat="50.70055" lon="2.90737">
        <ele>12.60000038147</ele>
        <time>2011-10-30T10:34:05.000Z</time>
      </trkpt>
      <trkpt lat="50.70043" lon="2.90737">
        <ele>12.199999809265</ele>
        <time>2011-10-30T10:34:08.000Z</time>
      </trkpt>
      <trkpt lat="50.70028" lon="2.90727">
        <ele>12.199999809265</ele>
        <time>2011-10-30T10:34:12.000Z</time>
      </trkpt>
      <trkpt lat="50.70007" lon="2.90706">
        <ele>12.199999809265</ele>
        <time>2011-10-30T10:34:18.000Z</time>
      </trkpt>
      <trkpt lat="50.69992" lon="2.9069">
        <ele>12.199999809265</ele>
        <time>2011-10-30T10:34:22.000Z</time>
      </trkpt>
      <trkpt lat="50.69975" lon="2.90673">
        <ele>12.39999961853</ele>
        <time>2011-10-30T10:34:26.000Z</time>
      </trkpt>
      <trkpt lat="50.69959" lon="2.90658">
        <ele>12.39999961853</ele>
        <time>2011-10-30T10:34:30.000Z</time>
      </trkpt>
      <trkpt lat="50.69942" lon="2.90642">
        <ele>12.199999809265</ele>
        <time>2011-10-30T10:34:35.000Z</time>
      </trkpt>
      <trkpt lat="50.69925" lon="2.90625">
        <ele>12</ele>
        <time>2011-10-30T10:34:40.000Z</time>
      </trkpt>
      <trkpt lat="50.69908" lon="2.90609">
        <ele>11.800000190735</ele>
        <time>2011-10-30T10:34:45.000Z</time>
      </trkpt>
      <trkpt lat="50.69892" lon="2.90591">
        <ele>11.800000190735</ele>
        <time>2011-10-30T10:34:50.000Z</time>
      </trkpt>
      <trkpt lat="50.69875" lon="2.90572">
        <ele>12</ele>
        <time>2011-10-30T10:34:55.000Z</time>
      </trkpt>
      <trkpt lat="50.69859" lon="2.90554">
        <ele>12.199999809265</ele>
        <time>2011-10-30T10:35:00.000Z</time>
      </trkpt>
      <trkpt lat="50.69844" lon="2.90535">
        <ele>12.39999961853</ele>
        <time>2011-10-30T10:35:06.000Z</time>
      </trkpt>
      <trkpt lat="50.69836" lon="2.90522">
        <ele>12.60000038147</ele>
        <time>2011-10-30T10:35:12.000Z</time>
      </trkpt>
      <trkpt lat="50.69834" lon="2.90521">
        <ele>12.60000038147</ele>
        <time>2011-10-30T10:35:16.000Z</time>
      </trkpt>
      <trkpt lat="50.69828" lon="2.90522">
        <ele>12.60000038147</ele>
        <time>2011-10-30T10:35:26.000Z</time>
      </trkpt>
      <trkpt lat="50.69816" lon="2.90537">
        <ele>12.60000038147</ele>
        <time>2011-10-30T10:35:30.000Z</time>
      </trkpt>
      <trkpt lat="50.69801" lon="2.90558">
        <ele>12.60000038147</ele>
        <time>2011-10-30T10:35:35.000Z</time>
      </trkpt>
      <trkpt lat="50.69785" lon="2.90582">
        <ele>12.39999961853</ele>
        <time>2011-10-30T10:35:40.000Z</time>
      </trkpt>
      <trkpt lat="50.6977" lon="2.90605">
        <ele>12.39999961853</ele>
        <time>2011-10-30T10:35:45.000Z</time>
      </trkpt>
      <trkpt lat="50.69754" lon="2.90628">
        <ele>12.39999961853</ele>
        <time>2011-10-30T10:35:50.000Z</time>
      </trkpt>
      <trkpt lat="50.69745" lon="2.90642">
        <ele>12.39999961853</ele>
        <time>2011-10-30T10:35:53.000Z</time>
      </trkpt>
      <trkpt lat="50.69726" lon="2.90671">
        <ele>12.800000190735</ele>
        <time>2011-10-30T10:35:59.000Z</time>
      </trkpt>
      <trkpt lat="50.69711" lon="2.90694">
        <ele>12.800000190735</ele>
        <time>2011-10-30T10:36:04.000Z</time>
      </trkpt>
      <trkpt lat="50.69697" lon="2.90715">
        <ele>12.800000190735</ele>
        <time>2011-10-30T10:36:08.000Z</time>
      </trkpt>
      <trkpt lat="50.6968" lon="2.90738">
        <ele>12.199999809265</ele>
        <time>2011-10-30T10:36:13.000Z</time>
      </trkpt>
      <trkpt lat="50.69664" lon="2.90762">
        <ele>11.60000038147</ele>
        <time>2011-10-30T10:36:18.000Z</time>
      </trkpt>
      <trkpt lat="50.69651" lon="2.90782">
        <ele>11.60000038147</ele>
        <time>2011-10-30T10:36:23.000Z</time>
      </trkpt>
      <trkpt lat="50.69637" lon="2.90802">
        <ele>11.60000038147</ele>
        <time>2011-10-30T10:36:29.000Z</time>
      </trkpt>
      <trkpt lat="50.69622" lon="2.90824">
        <ele>11.60000038147</ele>
        <time>2011-10-30T10:36:36.000Z</time>
      </trkpt>
      <trkpt lat="50.69609" lon="2.90844">
        <ele>12</ele>
        <time>2011-10-30T10:36:43.000Z</time>
      </trkpt>
      <trkpt lat="50.69599" lon="2.9086">
        <ele>12.39999961853</ele>
        <time>2011-10-30T10:36:49.000Z</time>
      </trkpt>
      <trkpt lat="50.69595" lon="2.90865">
        <ele>12.60000038147</ele>
        <time>2011-10-30T10:36:51.000Z</time>
      </trkpt>
      <trkpt lat="50.69581" lon="2.90886">
        <ele>12.800000190735</ele>
        <time>2011-10-30T10:36:58.000Z</time>
      </trkpt>
      <trkpt lat="50.69567" lon="2.90907">
        <ele>13</ele>
        <time>2011-10-30T10:37:05.000Z</time>
      </trkpt>
      <trkpt lat="50.69557" lon="2.90922">
        <ele>13.199999809265</ele>
        <time>2011-10-30T10:37:11.000Z</time>
      </trkpt>
      <trkpt lat="50.69557" lon="2.90925">
        <ele>13.199999809265</ele>
        <time>2011-10-30T10:37:12.000Z</time>
      </trkpt>
      <trkpt lat="50.69565" lon="2.90935">
        <ele>13</ele>
        <time>2011-10-30T10:37:17.000Z</time>
      </trkpt>
      <trkpt lat="50.69566" lon="2.90938">
        <ele>12.800000190735</ele>
        <time>2011-10-30T10:37:18.000Z</time>
      </trkpt>
      <trkpt lat="50.6958" lon="2.90961">
        <ele>12.39999961853</ele>
        <time>2011-10-30T10:37:24.000Z</time>
      </trkpt>
      <trkpt lat="50.69593" lon="2.90984">
        <ele>12</ele>
        <time>2011-10-30T10:37:28.000Z</time>
      </trkpt>
      <trkpt lat="50.69597" lon="2.90998">
        <ele>12</ele>
        <time>2011-10-30T10:37:30.000Z</time>
      </trkpt>
      <trkpt lat="50.69601" lon="2.91018">
        <ele>12.199999809265</ele>
        <time>2011-10-30T10:37:33.000Z</time>
      </trkpt>
      <trkpt lat="50.69603" lon="2.9103">
        <ele>12.199999809265</ele>
        <time>2011-10-30T10:37:35.000Z</time>
      </trkpt>
      <trkpt lat="50.69607" lon="2.91047">
        <ele>12.39999961853</ele>
        <time>2011-10-30T10:37:40.000Z</time>
      </trkpt>
      <trkpt lat="50.69615" lon="2.91048">
        <ele>12.39999961853</ele>
        <time>2011-10-30T10:37:44.000Z</time>
      </trkpt>
      <trkpt lat="50.6963" lon="2.91048">
        <ele>12.39999961853</ele>
        <time>2011-10-30T10:37:49.000Z</time>
      </trkpt>
      <trkpt lat="50.69633" lon="2.91053">
        <ele>12.60000038147</ele>
        <time>2011-10-30T10:37:53.000Z</time>
      </trkpt>
      <trkpt lat="50.69634" lon="2.91059">
        <ele>12.60000038147</ele>
        <time>2011-10-30T10:37:58.000Z</time>
      </trkpt>
      <trkpt lat="50.69638" lon="2.9107">
        <ele>12.800000190735</ele>
        <time>2011-10-30T10:38:05.000Z</time>
      </trkpt>
      <trkpt lat="50.69646" lon="2.91073">
        <ele>12.800000190735</ele>
        <time>2011-10-30T10:38:13.000Z</time>
      </trkpt>
      <trkpt lat="50.69654" lon="2.91068">
        <ele>12.800000190735</ele>
        <time>2011-10-30T10:38:21.000Z</time>
      </trkpt>
      <trkpt lat="50.6966" lon="2.91063">
        <ele>12.60000038147</ele>
        <time>2011-10-30T10:38:28.000Z</time>
      </trkpt>
      <trkpt lat="50.69666" lon="2.91059">
        <ele>12.60000038147</ele>
        <time>2011-10-30T10:38:34.000Z</time>
      </trkpt>
      <trkpt lat="50.69674" lon="2.91058">
        <ele>12.60000038147</ele>
        <time>2011-10-30T10:38:41.000Z</time>
      </trkpt>
      <trkpt lat="50.69681" lon="2.91055">
        <ele>12.39999961853</ele>
        <time>2011-10-30T10:38:48.000Z</time>
      </trkpt>
      <trkpt lat="50.69688" lon="2.91053">
        <ele>12.199999809265</ele>
        <time>2011-10-30T10:38:54.000Z</time>
      </trkpt>
      <trkpt lat="50.69694" lon="2.91053">
        <ele>12.199999809265</ele>
        <time>2011-10-30T10:39:00.000Z</time>
      </trkpt>
      <trkpt lat="50.69701" lon="2.91055">
        <ele>12.199999809265</ele>
        <time>2011-10-30T10:39:07.000Z</time>
      </trkpt>
      <trkpt lat="50.69707" lon="2.91055">
        <ele>12</ele>
        <time>2011-10-30T10:39:14.000Z</time>
      </trkpt>
      <trkpt lat="50.69711" lon="2.91053">
        <ele>12</ele>
        <time>2011-10-30T10:39:21.000Z</time>
      </trkpt>
      <trkpt lat="50.69716" lon="2.91047">
        <ele>11.800000190735</ele>
        <time>2011-10-30T10:39:41.000Z</time>
      </trkpt>
      <trkpt lat="50.69721" lon="2.91041">
        <ele>11.39999961853</ele>
        <time>2011-10-30T10:39:47.000Z</time>
      </trkpt>
      <trkpt lat="50.69722" lon="2.9104">
        <ele>11.39999961853</ele>
        <time>2011-10-30T10:39:50.000Z</time>
      </trkpt>
      <trkpt lat="50.69732" lon="2.91038">
        <ele>11</ele>
        <time>2011-10-30T10:39:55.000Z</time>
      </trkpt>
      <trkpt lat="50.69738" lon="2.91034">
        <ele>10.800000190735</ele>
        <time>2011-10-30T10:39:58.000Z</time>
      </trkpt>
      <trkpt lat="50.69743" lon="2.91025">
        <ele>10.199999809265</ele>
        <time>2011-10-30T10:40:03.000Z</time>
      </trkpt>
      <trkpt lat="50.69744" lon="2.91023">
        <ele>10.199999809265</ele>
        <time>2011-10-30T10:40:06.000Z</time>
      </trkpt>
      <trkpt lat="50.69748" lon="2.91022">
        <ele>10</ele>
        <time>2011-10-30T10:40:09.000Z</time>
      </trkpt>
      <trkpt lat="50.69765" lon="2.91035">
        <ele>11</ele>
        <time>2011-10-30T10:40:16.000Z</time>
      </trkpt>
      <trkpt lat="50.69783" lon="2.91045">
        <ele>11.800000190735</ele>
        <time>2011-10-30T10:40:22.000Z</time>
      </trkpt>
      <trkpt lat="50.69802" lon="2.91062">
        <ele>12.800000190735</ele>
        <time>2011-10-30T10:40:29.000Z</time>
      </trkpt>
      <trkpt lat="50.69821" lon="2.91077">
        <ele>13.60000038147</ele>
        <time>2011-10-30T10:40:35.000Z</time>
      </trkpt>
      <trkpt lat="50.6984" lon="2.91092">
        <ele>13.800000190735</ele>
        <time>2011-10-30T10:40:41.000Z</time>
      </trkpt>
      <trkpt lat="50.69858" lon="2.91108">
        <ele>13.60000038147</ele>
        <time>2011-10-30T10:40:47.000Z</time>
      </trkpt>
      <trkpt lat="50.69873" lon="2.91123">
        <ele>13.199999809265</ele>
        <time>2011-10-30T10:40:52.000Z</time>
      </trkpt>
      <trkpt lat="50.6989" lon="2.91142">
        <ele>12.800000190735</ele>
        <time>2011-10-30T10:40:57.000Z</time>
      </trkpt>
      <trkpt lat="50.69907" lon="2.91164">
        <ele>12.199999809265</ele>
        <time>2011-10-30T10:41:02.000Z</time>
      </trkpt>
      <trkpt lat="50.69922" lon="2.91182">
        <ele>11.800000190735</ele>
        <time>2011-10-30T10:41:06.000Z</time>
      </trkpt>
      <trkpt lat="50.69936" lon="2.91201">
        <ele>11.60000038147</ele>
        <time>2011-10-30T10:41:10.000Z</time>
      </trkpt>
      <trkpt lat="50.69952" lon="2.91224">
        <ele>11.199999809265</ele>
        <time>2011-10-30T10:41:15.000Z</time>
      </trkpt>
      <trkpt lat="50.69954" lon="2.91228">
        <ele>11.199999809265</ele>
        <time>2011-10-30T10:41:16.000Z</time>
      </trkpt>
      <trkpt lat="50.69971" lon="2.91257">
        <ele>11</ele>
        <time>2011-10-30T10:41:22.000Z</time>
      </trkpt>
      <trkpt lat="50.69983" lon="2.91281">
        <ele>11.60000038147</ele>
        <time>2011-10-30T10:41:26.000Z</time>
      </trkpt>
      <trkpt lat="50.69994" lon="2.91306">
        <ele>12.199999809265</ele>
        <time>2011-10-30T10:41:30.000Z</time>
      </trkpt>
      <trkpt lat="50.70004" lon="2.91329">
        <ele>12.60000038147</ele>
        <time>2011-10-30T10:41:34.000Z</time>
      </trkpt>
      <trkpt lat="50.70014" lon="2.91355">
        <ele>12.800000190735</ele>
        <time>2011-10-30T10:41:38.000Z</time>
      </trkpt>
      <trkpt lat="50.70023" lon="2.91381">
        <ele>13</ele>
        <time>2011-10-30T10:41:42.000Z</time>
      </trkpt>
      <trkpt lat="50.70025" lon="2.91388">
        <ele>13</ele>
        <time>2011-10-30T10:41:43.000Z</time>
      </trkpt>
      <trkpt lat="50.70035" lon="2.9142">
        <ele>13.39999961853</ele>
        <time>2011-10-30T10:41:48.000Z</time>
      </trkpt>
      <trkpt lat="50.70044" lon="2.91446">
        <ele>13.60000038147</ele>
        <time>2011-10-30T10:41:52.000Z</time>
      </trkpt>
      <trkpt lat="50.70052" lon="2.91472">
        <ele>13.60000038147</ele>
        <time>2011-10-30T10:41:56.000Z</time>
      </trkpt>
      <trkpt lat="50.7006" lon="2.915">
        <ele>13.800000190735</ele>
        <time>2011-10-30T10:42:01.000Z</time>
      </trkpt>
      <trkpt lat="50.70069" lon="2.91529">
        <ele>13.800000190735</ele>
        <time>2011-10-30T10:42:06.000Z</time>
      </trkpt>
      <trkpt lat="50.70078" lon="2.9156">
        <ele>13.800000190735</ele>
        <time>2011-10-30T10:42:11.000Z</time>
      </trkpt>
      <trkpt lat="50.70086" lon="2.91585">
        <ele>13.800000190735</ele>
        <time>2011-10-30T10:42:15.000Z</time>
      </trkpt>
      <trkpt lat="50.70096" lon="2.91618">
        <ele>13.800000190735</ele>
        <time>2011-10-30T10:42:20.000Z</time>
      </trkpt>
      <trkpt lat="50.70105" lon="2.9165">
        <ele>13.60000038147</ele>
        <time>2011-10-30T10:42:25.000Z</time>
      </trkpt>
      <trkpt lat="50.70113" lon="2.91676">
        <ele>13.39999961853</ele>
        <time>2011-10-30T10:42:29.000Z</time>
      </trkpt>
      <trkpt lat="50.70119" lon="2.91695">
        <ele>13.199999809265</ele>
        <time>2011-10-30T10:42:32.000Z</time>
      </trkpt>
      <trkpt lat="50.70121" lon="2.91702">
        <ele>13</ele>
        <time>2011-10-30T10:42:34.000Z</time>
      </trkpt>
      <trkpt lat="50.70128" lon="2.91728">
        <ele>12.60000038147</ele>
        <time>2011-10-30T10:42:37.000Z</time>
      </trkpt>
      <trkpt lat="50.70136" lon="2.91755">
        <ele>12.199999809265</ele>
        <time>2011-10-30T10:42:41.000Z</time>
      </trkpt>
      <trkpt lat="50.70144" lon="2.91782">
        <ele>12.199999809265</ele>
        <time>2011-10-30T10:42:45.000Z</time>
      </trkpt>
      <trkpt lat="50.70153" lon="2.91809">
        <ele>12.199999809265</ele>
        <time>2011-10-30T10:42:49.000Z</time>
      </trkpt>
      <trkpt lat="50.70162" lon="2.91838">
        <ele>12.199999809265</ele>
        <time>2011-10-30T10:42:53.000Z</time>
      </trkpt>
      <trkpt lat="50.70166" lon="2.91848">
        <ele>12.199999809265</ele>
        <time>2011-10-30T10:42:55.000Z</time>
      </trkpt>
      <trkpt lat="50.70171" lon="2.91859">
        <ele>12.39999961853</ele>
        <time>2011-10-30T10:42:58.000Z</time>
      </trkpt>
      <trkpt lat="50.70177" lon="2.91878">
        <ele>12.60000038147</ele>
        <time>2011-10-30T10:43:02.000Z</time>
      </trkpt>
      <trkpt lat="50.70189" lon="2.91915">
        <ele>13</ele>
        <time>2011-10-30T10:43:08.000Z</time>
      </trkpt>
      <trkpt lat="50.70195" lon="2.91941">
        <ele>13.60000038147</ele>
        <time>2011-10-30T10:43:12.000Z</time>
      </trkpt>
      <trkpt lat="50.70198" lon="2.91948">
        <ele>13.60000038147</ele>
        <time>2011-10-30T10:43:13.000Z</time>
      </trkpt>
      <trkpt lat="50.70203" lon="2.91961">
        <ele>13.800000190735</ele>
        <time>2011-10-30T10:43:15.000Z</time>
      </trkpt>
      <trkpt lat="50.70216" lon="2.92006">
        <ele>14</ele>
        <time>2011-10-30T10:43:20.000Z</time>
      </trkpt>
      <trkpt lat="50.70224" lon="2.92034">
        <ele>13.800000190735</ele>
        <time>2011-10-30T10:43:23.000Z</time>
      </trkpt>
      <trkpt lat="50.70233" lon="2.92064">
        <ele>13.60000038147</ele>
        <time>2011-10-30T10:43:26.000Z</time>
      </trkpt>
      <trkpt lat="50.70241" lon="2.92091">
        <ele>13.60000038147</ele>
        <time>2011-10-30T10:43:29.000Z</time>
      </trkpt>
      <trkpt lat="50.7025" lon="2.92118">
        <ele>13.800000190735</ele>
        <time>2011-10-30T10:43:32.000Z</time>
      </trkpt>
      <trkpt lat="50.70261" lon="2.92151">
        <ele>14</ele>
        <time>2011-10-30T10:43:36.000Z</time>
      </trkpt>
      <trkpt lat="50.70271" lon="2.92184">
        <ele>13.800000190735</ele>
        <time>2011-10-30T10:43:40.000Z</time>
      </trkpt>
      <trkpt lat="50.70279" lon="2.92211">
        <ele>13.39999961853</ele>
        <time>2011-10-30T10:43:43.000Z</time>
      </trkpt>
      <trkpt lat="50.70287" lon="2.92237">
        <ele>13</ele>
        <time>2011-10-30T10:43:46.000Z</time>
      </trkpt>
      <trkpt lat="50.70295" lon="2.92263">
        <ele>12.800000190735</ele>
        <time>2011-10-30T10:43:49.000Z</time>
      </trkpt>
      <trkpt lat="50.70303" lon="2.92289">
        <ele>13</ele>
        <time>2011-10-30T10:43:52.000Z</time>
      </trkpt>
      <trkpt lat="50.70313" lon="2.92321">
        <ele>13</ele>
        <time>2011-10-30T10:43:56.000Z</time>
      </trkpt>
      <trkpt lat="50.70324" lon="2.92348">
        <ele>13</ele>
        <time>2011-10-30T10:44:00.000Z</time>
      </trkpt>
      <trkpt lat="50.70334" lon="2.92371">
        <ele>12.800000190735</ele>
        <time>2011-10-30T10:44:04.000Z</time>
      </trkpt>
      <trkpt lat="50.70345" lon="2.92395">
        <ele>12.60000038147</ele>
        <time>2011-10-30T10:44:08.000Z</time>
      </trkpt>
      <trkpt lat="50.70357" lon="2.92416">
        <ele>12.39999961853</ele>
        <time>2011-10-30T10:44:13.000Z</time>
      </trkpt>
      <trkpt lat="50.7036" lon="2.9242">
        <ele>12.199999809265</ele>
        <time>2011-10-30T10:44:14.000Z</time>
      </trkpt>
      <trkpt lat="50.70374" lon="2.92431">
        <ele>11.800000190735</ele>
        <time>2011-10-30T10:44:17.000Z</time>
      </trkpt>
      <trkpt lat="50.70392" lon="2.92447">
        <ele>11.199999809265</ele>
        <time>2011-10-30T10:44:21.000Z</time>
      </trkpt>
      <trkpt lat="50.70411" lon="2.92461">
        <ele>11</ele>
        <time>2011-10-30T10:44:25.000Z</time>
      </trkpt>
      <trkpt lat="50.70429" lon="2.92474">
        <ele>11.199999809265</ele>
        <time>2011-10-30T10:44:29.000Z</time>
      </trkpt>
      <trkpt lat="50.70448" lon="2.92485">
        <ele>11.800000190735</ele>
        <time>2011-10-30T10:44:33.000Z</time>
      </trkpt>
      <trkpt lat="50.70469" lon="2.92496">
        <ele>12.60000038147</ele>
        <time>2011-10-30T10:44:37.000Z</time>
      </trkpt>
      <trkpt lat="50.70486" lon="2.92506">
        <ele>13.39999961853</ele>
        <time>2011-10-30T10:44:41.000Z</time>
      </trkpt>
      <trkpt lat="50.7049" lon="2.92508">
        <ele>13.60000038147</ele>
        <time>2011-10-30T10:44:42.000Z</time>
      </trkpt>
      <trkpt lat="50.7051" lon="2.92513">
        <ele>13.800000190735</ele>
        <time>2011-10-30T10:44:46.000Z</time>
      </trkpt>
      <trkpt lat="50.70534" lon="2.92519">
        <ele>13</ele>
        <time>2011-10-30T10:44:51.000Z</time>
      </trkpt>
      <trkpt lat="50.70557" lon="2.92525">
        <ele>12.39999961853</ele>
        <time>2011-10-30T10:44:54.000Z</time>
      </trkpt>
      <trkpt lat="50.70576" lon="2.92529">
        <ele>11.800000190735</ele>
        <time>2011-10-30T10:44:57.000Z</time>
      </trkpt>
      <trkpt lat="50.70599" lon="2.92535">
        <ele>12</ele>
        <time>2011-10-30T10:45:01.000Z</time>
      </trkpt>
      <trkpt lat="50.70621" lon="2.92539">
        <ele>12.39999961853</ele>
        <time>2011-10-30T10:45:05.000Z</time>
      </trkpt>
      <trkpt lat="50.70638" lon="2.92543">
        <ele>13</ele>
        <time>2011-10-30T10:45:09.000Z</time>
      </trkpt>
      <trkpt lat="50.70666" lon="2.9255">
        <ele>13.60000038147</ele>
        <time>2011-10-30T10:45:15.000Z</time>
      </trkpt>
      <trkpt lat="50.70672" lon="2.92551">
        <ele>13.800000190735</ele>
        <time>2011-10-30T10:45:16.000Z</time>
      </trkpt>
      <trkpt lat="50.7069" lon="2.92558">
        <ele>14</ele>
        <time>2011-10-30T10:45:19.000Z</time>
      </trkpt>
      <trkpt lat="50.70739" lon="2.92588">
        <ele>15</ele>
        <time>2011-10-30T10:45:28.000Z</time>
      </trkpt>
      <trkpt lat="50.70776" lon="2.9263">
        <ele>14.39999961853</ele>
        <time>2011-10-30T10:45:37.000Z</time>
      </trkpt>
      <trkpt lat="50.70792" lon="2.92654">
        <ele>14</ele>
        <time>2011-10-30T10:45:40.000Z</time>
      </trkpt>
      <trkpt lat="50.70796" lon="2.92661">
        <ele>14</ele>
        <time>2011-10-30T10:45:41.000Z</time>
      </trkpt>
      <trkpt lat="50.7081" lon="2.92694">
        <ele>13.199999809265</ele>
        <time>2011-10-30T10:45:46.000Z</time>
      </trkpt>
      <trkpt lat="50.7082" lon="2.92725">
        <ele>12.60000038147</ele>
        <time>2011-10-30T10:45:51.000Z</time>
      </trkpt>
      <trkpt lat="50.70831" lon="2.92757">
        <ele>12.199999809265</ele>
        <time>2011-10-30T10:45:54.000Z</time>
      </trkpt>
      <trkpt lat="50.70841" lon="2.92789">
        <ele>12.60000038147</ele>
        <time>2011-10-30T10:45:57.000Z</time>
      </trkpt>
      <trkpt lat="50.70853" lon="2.9282">
        <ele>12.800000190735</ele>
        <time>2011-10-30T10:46:00.000Z</time>
      </trkpt>
      <trkpt lat="50.70865" lon="2.92847">
        <ele>12.60000038147</ele>
        <time>2011-10-30T10:46:03.000Z</time>
      </trkpt>
      <trkpt lat="50.70878" lon="2.92873">
        <ele>12.800000190735</ele>
        <time>2011-10-30T10:46:06.000Z</time>
      </trkpt>
      <trkpt lat="50.70883" lon="2.9288">
        <ele>12.800000190735</ele>
        <time>2011-10-30T10:46:07.000Z</time>
      </trkpt>
      <trkpt lat="50.70899" lon="2.92898">
        <ele>12.800000190735</ele>
        <time>2011-10-30T10:46:10.000Z</time>
      </trkpt>
      <trkpt lat="50.70919" lon="2.92918">
        <ele>12.800000190735</ele>
        <time>2011-10-30T10:46:13.000Z</time>
      </trkpt>
      <trkpt lat="50.70938" lon="2.92933">
        <ele>12.60000038147</ele>
        <time>2011-10-30T10:46:16.000Z</time>
      </trkpt>
      <trkpt lat="50.70958" lon="2.92947">
        <ele>12.39999961853</ele>
        <time>2011-10-30T10:46:19.000Z</time>
      </trkpt>
      <trkpt lat="50.70976" lon="2.9296">
        <ele>12.39999961853</ele>
        <time>2011-10-30T10:46:22.000Z</time>
      </trkpt>
      <trkpt lat="50.70996" lon="2.92976">
        <ele>12.39999961853</ele>
        <time>2011-10-30T10:46:25.000Z</time>
      </trkpt>
      <trkpt lat="50.71016" lon="2.9299">
        <ele>12.39999961853</ele>
        <time>2011-10-30T10:46:28.000Z</time>
      </trkpt>
      <trkpt lat="50.71036" lon="2.93005">
        <ele>12.199999809265</ele>
        <time>2011-10-30T10:46:31.000Z</time>
      </trkpt>
      <trkpt lat="50.71055" lon="2.93017">
        <ele>11.800000190735</ele>
        <time>2011-10-30T10:46:34.000Z</time>
      </trkpt>
      <trkpt lat="50.71076" lon="2.93027">
        <ele>11.39999961853</ele>
        <time>2011-10-30T10:46:37.000Z</time>
      </trkpt>
      <trkpt lat="50.71096" lon="2.93037">
        <ele>11.60000038147</ele>
        <time>2011-10-30T10:46:40.000Z</time>
      </trkpt>
      <trkpt lat="50.71117" lon="2.93044">
        <ele>12</ele>
        <time>2011-10-30T10:46:43.000Z</time>
      </trkpt>
      <trkpt lat="50.71137" lon="2.93045">
        <ele>12.39999961853</ele>
        <time>2011-10-30T10:46:46.000Z</time>
      </trkpt>
      <trkpt lat="50.71159" lon="2.93044">
        <ele>12.800000190735</ele>
        <time>2011-10-30T10:46:49.000Z</time>
      </trkpt>
      <trkpt lat="50.7118" lon="2.93039">
        <ele>13</ele>
        <time>2011-10-30T10:46:52.000Z</time>
      </trkpt>
      <trkpt lat="50.71201" lon="2.93035">
        <ele>13</ele>
        <time>2011-10-30T10:46:55.000Z</time>
      </trkpt>
      <trkpt lat="50.71222" lon="2.93032">
        <ele>13.199999809265</ele>
        <time>2011-10-30T10:46:58.000Z</time>
      </trkpt>
      <trkpt lat="50.71244" lon="2.9303">
        <ele>13.39999961853</ele>
        <time>2011-10-30T10:47:02.000Z</time>
      </trkpt>
      <trkpt lat="50.71264" lon="2.9303">
        <ele>13.39999961853</ele>
        <time>2011-10-30T10:47:04.000Z</time>
      </trkpt>
      <trkpt lat="50.71282" lon="2.93034">
        <ele>13.60000038147</ele>
        <time>2011-10-30T10:47:08.000Z</time>
      </trkpt>
      <trkpt lat="50.71287" lon="2.93035">
        <ele>13.60000038147</ele>
        <time>2011-10-30T10:47:09.000Z</time>
      </trkpt>
      <trkpt lat="50.71313" lon="2.9304">
        <ele>13.800000190735</ele>
        <time>2011-10-30T10:47:14.000Z</time>
      </trkpt>
      <trkpt lat="50.71335" lon="2.93042">
        <ele>14</ele>
        <time>2011-10-30T10:47:18.000Z</time>
      </trkpt>
      <trkpt lat="50.71353" lon="2.93044">
        <ele>13.800000190735</ele>
        <time>2011-10-30T10:47:21.000Z</time>
      </trkpt>
      <trkpt lat="50.71381" lon="2.93047">
        <ele>13.60000038147</ele>
        <time>2011-10-30T10:47:25.000Z</time>
      </trkpt>
      <trkpt lat="50.71385" lon="2.93046">
        <ele>13.60000038147</ele>
        <time>2011-10-30T10:47:27.000Z</time>
      </trkpt>
      <trkpt lat="50.71392" lon="2.93048">
        <ele>13.60000038147</ele>
        <time>2011-10-30T10:47:31.000Z</time>
      </trkpt>
      <trkpt lat="50.71384" lon="2.93048">
        <ele>13.800000190735</ele>
        <time>2011-10-30T10:47:37.000Z</time>
      </trkpt>
      <trkpt lat="50.71374" lon="2.93046">
        <ele>13.800000190735</ele>
        <time>2011-10-30T10:47:46.000Z</time>
      </trkpt>
      <trkpt lat="50.71364" lon="2.93045">
        <ele>13.800000190735</ele>
        <time>2011-10-30T10:47:52.000Z</time>
      </trkpt>
      <trkpt lat="50.71352" lon="2.93043">
        <ele>13.800000190735</ele>
        <time>2011-10-30T10:47:56.000Z</time>
      </trkpt>
      <trkpt lat="50.71335" lon="2.93041">
        <ele>13.800000190735</ele>
        <time>2011-10-30T10:48:01.000Z</time>
      </trkpt>
      <trkpt lat="50.71318" lon="2.93037">
        <ele>13.800000190735</ele>
        <time>2011-10-30T10:48:07.000Z</time>
      </trkpt>
      <trkpt lat="50.71297" lon="2.9304">
        <ele>13.800000190735</ele>
        <time>2011-10-30T10:48:14.000Z</time>
      </trkpt>
      <trkpt lat="50.71294" lon="2.93047">
        <ele>14</ele>
        <time>2011-10-30T10:48:16.000Z</time>
      </trkpt>
      <trkpt lat="50.7129" lon="2.93058">
        <ele>14.60000038147</ele>
        <time>2011-10-30T10:48:19.000Z</time>
      </trkpt>
      <trkpt lat="50.71287" lon="2.93081">
        <ele>15.39999961853</ele>
        <time>2011-10-30T10:48:24.000Z</time>
      </trkpt>
      <trkpt lat="50.71283" lon="2.93108">
        <ele>16</ele>
        <time>2011-10-30T10:48:31.000Z</time>
      </trkpt>
      <trkpt lat="50.71277" lon="2.9313">
        <ele>16.60000038147</ele>
        <time>2011-10-30T10:48:37.000Z</time>
      </trkpt>
      <trkpt lat="50.71273" lon="2.93145">
        <ele>16.799999237061</ele>
        <time>2011-10-30T10:48:42.000Z</time>
      </trkpt>
      <trkpt lat="50.71269" lon="2.93165">
        <ele>17.39999961853</ele>
        <time>2011-10-30T10:48:48.000Z</time>
      </trkpt>
      <trkpt lat="50.71267" lon="2.93168">
        <ele>17.60000038147</ele>
        <time>2011-10-30T10:48:49.000Z</time>
      </trkpt>
      <trkpt lat="50.7126" lon="2.93165">
        <ele>17.60000038147</ele>
        <time>2011-10-30T10:48:52.000Z</time>
      </trkpt>
      <trkpt lat="50.71245" lon="2.93155">
        <ele>17.39999961853</ele>
        <time>2011-10-30T10:48:58.000Z</time>
      </trkpt>
      <trkpt lat="50.71243" lon="2.93154">
        <ele>17.39999961853</ele>
        <time>2011-10-30T10:49:02.000Z</time>
      </trkpt>
      <trkpt lat="50.7124" lon="2.93155">
        <ele>17.39999961853</ele>
        <time>2011-10-30T10:49:08.000Z</time>
      </trkpt>
      <trkpt lat="50.71236" lon="2.9316">
        <ele>17.39999961853</ele>
        <time>2011-10-30T10:49:13.000Z</time>
      </trkpt>
      <trkpt lat="50.71236" lon="2.93162">
        <ele>17.39999961853</ele>
        <time>2011-10-30T10:49:19.000Z</time>
      </trkpt>
      <trkpt lat="50.71234" lon="2.93161">
        <ele>17.39999961853</ele>
        <time>2011-10-30T10:49:24.000Z</time>
      </trkpt>
      <trkpt lat="50.71233" lon="2.93162">
        <ele>17.39999961853</ele>
        <time>2011-10-30T10:49:36.000Z</time>
      </trkpt>
    </trkseg>
  </trk>
</gpx>